[[{"header":{"parameterUnit":"m.s-1","parameterCategory":1,"la1":30.6,"la2":29.2853,"lo1":-89.7004,"lo2":-87.6739,"dx":0.0162,"dy":0.0183,"nx":112,"ny":82,"refTime":"2022-12-14T06:00:00:Z","depth":0,"parameterNumber":2,"parameterNumberName":"U-component_of_WINDS"},"data":[0.0,0.0,0.0,0.0,0.0,0.0,0.0,0.0,0.0,0.0,0.0,0.0,0.0,0.0,0.0,0.0,0.0,0.0,0.0,0.0,0.0,0.0,0.0,0.0,0.0,0.0,0.0,0.0,0.0,0.0,0.0,0.0,0.0,0.0,0.0,0.0,0.0,0.0,0.0,0.0,0.0,0.0,0.0,0.0,0.0,0.0,0.0,0.0,0.0,0.0,0.0,0.0,0.0,0.0,0.0,0.0,0.0,0.0,0.0,0.0,0.0,0.0,0.0,0.0,0.0,0.0,0.0,0.0,0.0,0.0,0.0,0.0,0.0,0.0,0.0,0.0,0.0,0.0,0.0,0.0,0.0,0.0,0.0,0.0,0.0,0.0,0.0,0.0,0.0,0.0,2.4089,2.5253,2.7638,2.9194,2.9313,2.9228,2.7283,2.2919,0.0,0.0,0.0,0.0,0.0,0.0,0.0,0.0,0.0,0.0,0.0,0.0,0.0,0.0,0.0,0.0,0.0,0.0,0.0,0.0,0.0,0.0,0.0,0.0,0.0,0.0,0.0,0.0,0.0,0.0,0.0,0.0,0.0,0.0,0.0,0.0,0.0,0.0,0.0,0.0,0.0,0.0,0.0,0.0,0.0,0.0,0.0,0.0,0.0,0.0,0.0,0.0,0.0,0.0,0.0,0.0,0.0,0.0,0.0,0.0,0.0,0.0,0.0,0.0,0.0,0.0,0.0,0.0,0.0,0.0,0.0,0.0,0.0,0.0,0.0,0.0,0.0,0.0,0.0,0.0,0.0,0.0,0.0,0.0,0.0,0.0,0.0,0.0,0.0,0.0,0.0,0.0,0.0,0.0,0.0,0.0,0.0,0.0,0.0,0.0,0.0,0.0,0.0,0.0,2.3583,2.8704,2.9668,3.0192,3.0801,3.0294,2.8281,2.4391,0.0,0.0,0.0,0.0,0.0,0.0,0.0,0.0,0.0,0.0,0.0,0.0,0.0,0.0,0.0,0.0,0.0,0.0,0.0,0.0,0.0,0.0,0.0,0.0,0.0,0.0,0.0,0.0,0.0,0.0,0.0,0.0,0.0,0.0,0.0,0.0,0.0,0.0,0.0,0.0,0.0,0.0,0.0,0.0,0.0,0.0,0.0,0.0,0.0,0.0,0.0,0.0,0.0,0.0,0.0,0.0,0.0,0.0,0.0,0.0,0.0,0.0,0.0,0.0,0.0,0.0,0.0,0.0,0.0,0.0,0.0,0.0,0.0,0.0,0.0,0.0,0.0,0.0,0.0,0.0,0.0,0.0,0.0,0.0,0.0,0.0,0.0,0.0,0.0,0.0,0.0,0.0,0.0,0.0,0.0,0.0,0.0,0.0,0.0,0.0,0.0,0.0,0.0,2.3291,2.5845,3.0226,3.07,3.0835,3.1157,3.0886,2.8924,2.4777,2.2784,0.0,0.0,0.0,0.0,0.0,0.0,0.0,0.0,0.0,0.0,0.0,0.0,0.0,0.0,0.0,0.0,0.0,0.0,0.0,0.0,0.0,0.0,0.0,0.0,0.0,0.0,0.0,0.0,0.0,0.0,0.0,0.0,0.0,0.0,0.0,0.0,0.0,0.0,0.0,0.0,0.0,0.0,0.0,0.0,0.0,0.0,0.0,0.0,0.0,0.0,0.0,0.0,0.0,0.0,0.0,0.0,0.0,0.0,0.0,0.0,0.0,0.0,0.0,0.0,0.0,0.0,0.0,0.0,0.0,0.0,0.0,0.0,0.0,0.0,0.0,0.0,0.0,0.0,0.0,0.0,0.0,0.0,0.0,0.0,0.0,0.0,0.0,0.0,0.0,0.0,0.0,0.0,0.0,0.0,0.0,0.0,0.0,0.0,0.0,0.0,0.0,0.0,2.664,2.8636,3.0954,3.119,3.119,3.119,3.119,2.9262,2.4794,2.3122,0.0,0.0,0.0,0.0,0.0,0.0,0.0,0.0,0.0,0.0,0.0,0.0,0.0,0.0,0.0,0.0,0.0,0.0,0.0,0.0,0.0,0.0,0.0,0.0,0.0,0.0,0.0,0.0,0.0,0.0,0.0,0.0,0.0,0.0,0.0,0.0,0.0,0.0,0.0,0.0,0.0,0.0,0.0,0.0,0.0,0.0,0.0,0.0,0.0,0.0,0.0,0.0,0.0,0.0,0.0,0.0,0.0,0.0,0.0,0.0,0.0,0.0,0.0,0.0,0.0,0.0,0.0,0.0,0.0,0.0,0.0,0.0,0.0,0.0,0.0,0.0,0.0,0.0,0.0,0.0,0.0,0.0,0.0,0.0,0.0,0.0,0.0,0.0,0.0,0.0,0.0,0.0,0.0,0.0,0.0,0.0,0.0,0.0,0.0,0.0,0.0,0.0,2.7841,3.0954,3.1173,3.119,3.119,3.119,3.119,2.9262,2.4794,2.3122,0.0,0.0,0.0,0.0,0.0,0.0,0.0,0.0,0.0,0.0,0.0,0.0,0.0,0.0,0.0,0.0,0.0,0.0,0.0,0.0,0.0,0.0,0.0,0.0,0.0,0.0,0.0,0.0,0.0,0.0,0.0,0.0,0.0,0.0,0.0,0.0,0.0,0.0,0.0,0.0,0.0,0.0,0.0,0.0,0.0,0.0,0.0,0.0,0.0,0.0,0.0,0.0,0.0,0.0,0.0,0.0,0.0,0.0,0.0,0.0,0.0,0.0,0.0,0.0,0.0,0.0,0.0,0.0,0.0,0.0,0.0,0.0,0.0,0.0,0.0,0.0,0.0,0.0,0.0,0.0,0.0,0.0,0.0,0.0,0.0,0.0,0.0,0.0,0.0,0.0,0.0,0.0,0.0,0.0,0.0,0.0,0.0,0.0,0.0,0.0,0.0,0.0,2.7148,3.0345,3.1732,3.229,3.2577,3.2577,3.2138,2.9956,2.5473,0.0,0.0,0.0,0.0,0.0,0.0,0.0,0.0,0.0,0.0,0.0,0.0,0.0,0.0,0.0,0.0,0.0,0.0,0.0,0.0,0.0,0.0,0.0,0.0,0.0,0.0,0.0,0.0,0.0,0.0,0.0,0.0,0.0,0.0,0.0,0.0,0.0,0.0,0.0,0.0,0.0,0.0,0.0,0.0,0.0,0.0,0.0,0.0,0.0,0.0,0.0,0.0,0.0,0.0,0.0,0.0,0.0,0.0,0.0,0.0,0.0,0.0,0.0,0.0,0.0,0.0,0.0,0.0,0.0,0.0,0.0,0.0,0.0,0.0,0.0,0.0,0.0,0.0,0.0,0.0,0.0,0.0,0.0,0.0,0.0,0.0,0.0,0.0,0.0,0.0,0.0,0.0,0.0,0.0,0.0,0.0,0.0,0.0,0.0,0.0,0.0,0.0,2.3748,2.7571,3.0738,3.2442,3.3102,3.3406,3.3406,3.2933,3.0531,2.5558,0.0,0.0,0.0,0.0,0.0,0.0,0.0,0.0,0.0,0.0,0.0,0.0,0.0,0.0,0.0,0.0,0.0,0.0,0.0,0.0,0.0,0.0,0.0,0.0,0.0,0.0,0.0,0.0,0.0,0.0,0.0,0.0,0.0,0.0,0.0,0.0,0.0,0.0,0.0,0.0,0.0,0.0,0.0,0.0,0.0,0.0,0.0,0.0,0.0,0.0,0.0,0.0,0.0,0.0,0.0,0.0,0.0,0.0,0.0,0.0,0.0,0.0,0.0,0.0,0.0,0.0,0.0,0.0,0.0,0.0,0.0,0.0,0.0,0.0,0.0,0.0,0.0,0.0,0.0,0.0,0.0,0.0,0.0,0.0,0.0,0.0,0.0,0.0,0.0,0.0,0.0,0.0,0.0,0.0,0.0,0.0,0.0,0.0,0.0,0.0,0.0,0.0,2.5321,2.9533,3.2594,3.3339,3.344,3.344,3.344,3.3423,3.0886,0.0,0.0,0.0,0.0,0.0,0.0,0.0,0.0,0.0,0.0,0.0,0.0,0.0,0.0,0.0,0.0,0.0,0.0,0.0,0.0,0.0,0.0,0.0,0.0,0.0,0.0,0.0,0.0,0.0,0.0,0.0,0.0,0.0,0.0,0.0,0.0,0.0,0.0,0.0,0.0,0.0,0.0,0.0,0.0,0.0,0.0,0.0,0.0,0.0,0.0,0.0,0.0,0.0,0.0,0.0,0.0,0.0,0.0,0.0,0.0,0.0,0.0,0.0,0.0,0.0,0.0,0.0,0.0,0.0,0.0,0.0,0.0,0.0,0.0,0.0,0.0,0.0,0.0,0.0,0.0,0.0,0.0,0.0,0.0,0.0,0.0,0.0,0.0,0.0,0.0,0.0,0.0,0.0,0.0,0.0,0.0,0.0,0.0,0.0,0.0,0.0,0.0,0.0,2.5389,3.0429,3.3914,3.415,3.5131,3.5571,3.5013,3.4962,3.2188,2.5693,0.0,0.0,0.0,0.0,0.0,0.0,0.0,0.0,0.0,0.0,0.0,0.0,0.0,0.0,0.0,0.0,0.0,0.0,0.0,0.0,0.0,0.0,0.0,0.0,0.0,0.0,0.0,0.0,0.0,0.0,0.0,0.0,0.0,0.0,0.0,0.0,0.0,0.0,0.0,0.0,0.0,0.0,0.0,0.0,0.0,0.0,0.0,0.0,0.0,0.0,0.0,0.0,0.0,0.0,0.0,0.0,0.0,0.0,0.0,0.0,0.0,0.0,0.0,0.0,0.0,0.0,0.0,0.0,0.0,0.0,0.0,0.0,0.0,0.0,0.0,0.0,0.0,0.0,0.0,0.0,0.0,0.0,0.0,0.0,0.0,0.0,0.0,0.0,0.0,0.0,0.0,0.0,0.0,0.0,0.0,0.0,0.0,0.0,0.0,0.0,0.0,0.0,2.5812,3.0987,3.4726,3.5334,3.5943,3.6265,3.6096,3.5791,3.3271,2.7757,0.0,0.0,0.0,0.0,0.0,0.0,0.0,0.0,0.0,0.0,0.0,0.0,0.0,0.0,0.0,0.0,0.0,0.0,0.0,0.0,0.0,0.0,0.0,0.0,0.0,0.0,0.0,0.0,0.0,0.0,0.0,0.0,0.0,0.0,0.0,0.0,0.0,0.0,0.0,0.0,0.0,0.0,0.0,0.0,0.0,0.0,0.0,0.0,0.0,0.0,0.0,0.0,0.0,0.0,0.0,0.0,0.0,0.0,0.0,0.0,0.0,0.0,0.0,0.0,0.0,0.0,0.0,0.0,0.0,0.0,0.0,0.0,0.0,0.0,0.0,0.0,0.0,0.0,0.0,0.0,0.0,0.0,0.0,0.0,0.0,0.0,0.0,0.0,0.0,0.0,0.0,0.0,0.0,0.0,0.0,0.0,0.0,0.0,0.0,0.0,0.0,0.0,2.6522,3.1427,3.5267,3.6738,3.6383,3.6299,3.6924,3.64,3.4353,3.0523,0.0,0.0,0.0,0.0,0.0,0.0,0.0,0.0,0.0,0.0,0.0,0.0,0.0,0.0,0.0,0.0,0.0,0.0,0.0,0.0,0.0,0.0,0.0,0.0,0.0,0.0,0.0,0.0,0.0,0.0,0.0,0.0,0.0,0.0,0.0,0.0,0.0,0.0,0.0,0.0,0.0,0.0,0.0,0.0,0.0,0.0,0.0,0.0,0.0,0.0,0.0,0.0,0.0,0.0,0.0,0.0,0.0,0.0,0.0,0.0,2.1262,1.8318,0.0,0.0,0.0,0.0,0.0,0.0,0.0,0.0,0.0,0.0,0.0,0.0,0.0,0.0,0.0,0.0,0.0,0.0,0.0,0.0,0.0,0.0,0.0,0.0,0.0,0.0,0.0,0.0,0.0,0.0,0.0,0.0,0.0,0.0,0.0,0.0,0.0,0.0,0.0,0.0,2.73,3.2679,3.6654,3.7567,3.8548,3.8954,3.8565,3.8886,3.6939,3.1854,3.075,0.0,0.0,0.0,0.0,0.0,0.0,0.0,0.0,0.0,0.0,0.0,0.0,0.0,0.0,0.0,0.0,0.0,0.0,0.0,0.0,0.0,0.0,0.0,0.0,0.0,0.0,0.0,0.0,0.0,0.0,0.0,0.0,0.0,0.0,0.0,0.0,0.0,0.0,0.0,0.0,0.0,0.0,0.0,0.0,0.0,0.0,0.0,0.0,0.0,0.0,0.0,0.0,0.0,0.0,0.0,0.0,0.0,0.0,0.0,2.3849,2.187,0.0,0.0,0.0,0.0,0.0,0.0,0.0,0.0,0.0,0.0,0.0,0.0,0.0,0.0,0.0,0.0,0.0,0.0,0.0,0.0,0.0,0.0,0.0,0.0,0.0,0.0,0.0,0.0,0.0,0.0,0.0,0.0,0.0,0.0,0.0,0.0,0.0,0.0,0.0,0.0,2.8636,3.4455,3.8667,3.9411,3.9851,4.007,4.0054,3.9749,3.8353,3.5497,3.3571,0.0,0.0,0.0,0.0,0.0,0.0,0.0,0.0,0.0,0.0,0.0,0.0,0.0,0.0,0.0,0.0,0.0,0.0,0.0,0.0,0.0,0.0,0.0,0.0,0.0,0.0,0.0,0.0,0.0,0.0,0.0,0.0,0.0,0.0,0.0,0.0,0.0,0.0,0.0,0.0,0.0,0.0,0.0,0.0,0.0,0.0,0.0,0.0,0.0,0.0,0.0,0.0,0.0,2.456,2.5406,2.6607,2.7199,2.8586,3.0277,2.6556,2.6201,2.7892,2.3532,0.0,0.0,0.0,0.0,0.0,0.0,0.0,0.0,0.0,0.0,0.0,0.0,0.0,0.0,0.0,0.0,0.0,0.0,0.0,0.0,0.0,0.0,2.7418,2.7689,2.9178,2.9854,2.7351,0.0,0.0,0.0,0.0,0.0,0.0,0.0,0.0,0.0,0.0,0.0,3.0886,3.6569,4.0578,4.1322,4.095,4.0916,4.1542,4.0476,3.9679,3.9498,3.6444,3.4121,0.0,0.0,0.0,0.0,0.0,0.0,0.0,0.0,0.0,0.0,0.0,0.0,0.0,0.0,0.0,0.0,0.0,0.0,0.0,0.0,0.0,0.0,0.0,0.0,0.0,0.0,0.0,0.0,0.0,0.0,0.0,0.0,1.9983,2.0077,0.0,0.0,0.0,0.0,0.0,0.0,0.0,0.0,0.0,0.0,0.0,0.0,0.0,2.3182,2.414,2.5949,2.7012,2.7232,2.9228,3.026,3.0463,3.0548,3.1106,3.1968,3.136,0.0,2.9753,2.9059,0.0,0.0,0.0,0.0,0.0,0.0,0.0,0.0,0.0,0.0,0.0,0.0,0.0,0.0,0.0,0.0,0.0,0.0,0.0,0.0,0.0,0.0,3.4641,3.596,3.6518,3.662,3.6231,3.0514,2.5507,2.5642,2.5659,2.4492,0.0,0.0,0.0,0.0,0.0,0.0,3.5182,3.892,4.1339,4.2066,4.2642,4.3014,4.3115,4.2946,4.2415,4.1402,4.0856,3.9331,3.6544,3.5768,0.0,0.0,0.0,0.0,0.0,0.0,0.0,0.0,0.0,0.0,0.0,0.0,0.0,0.0,0.0,0.0,0.0,0.0,0.0,0.0,0.0,0.0,0.0,0.0,0.0,0.0,0.0,0.0,0.0,1.8624,1.9905,2.1069,1.9729,1.8145,0.0,0.0,0.0,0.0,0.0,0.0,0.0,0.0,0.0,2.5614,2.5814,2.664,2.823,2.8822,2.9313,2.9719,3.0717,3.141,3.1833,3.2662,3.3457,3.4184,3.4607,3.4692,3.4269,3.1326,2.8755,2.6589,0.0,0.0,0.0,0.0,2.5367,2.5678,2.7872,2.8663,2.8508,2.7698,0.0,0.0,0.0,0.0,0.0,0.0,0.0,2.8264,3.1579,3.3406,3.4979,3.7347,3.7584,3.7618,3.8853,3.6299,3.2966,3.0345,2.8822,2.6572,2.1983,2.3257,0.0,0.0,0.0,3.41,3.7584,4.1001,4.3217,4.3538,4.3876,4.4062,4.4062,4.3673,4.3372,4.3249,4.2705,4.1742,4.0293,3.8409,3.541,0.0,0.0,0.0,0.0,0.0,0.0,0.0,0.0,0.0,0.0,0.0,0.0,0.0,0.0,0.0,0.0,0.0,0.0,0.0,0.0,0.0,0.0,0.0,0.0,0.0,0.0,0.0,0.0,1.9916,2.1144,2.2525,2.1874,2.0558,0.0,0.0,0.0,0.0,0.0,0.0,2.4946,2.4727,2.5799,2.8566,2.8687,2.9583,3.1444,3.0937,3.1038,3.1765,3.1765,3.2036,3.2611,3.3897,3.4912,3.5656,3.6451,3.7212,3.7601,3.3711,3.1647,3.084,2.9712,2.8579,2.7792,2.9472,3.0128,3.0421,3.2662,3.3455,3.3266,3.2127,3.1162,2.9976,2.7691,0.0,0.0,0.0,0.0,3.1072,3.4066,3.5077,3.5956,3.8427,3.8734,3.8904,4.0557,4.034,3.8819,3.5487,3.3508,3.0852,2.603,2.7926,0.0,2.8146,3.3136,3.7872,4.0121,4.3031,4.4874,4.4874,4.5026,4.5241,4.5375,4.4848,4.4818,4.5422,4.459,4.3984,4.3844,4.1722,3.9469,3.7149,0.0,0.0,0.0,0.0,0.0,0.0,0.0,0.0,0.0,0.0,0.0,0.0,0.0,0.0,0.0,0.0,0.0,0.0,0.0,0.0,0.0,0.0,0.0,0.0,0.0,0.0,0.0,0.0,0.0,2.5377,2.5726,0.0,0.0,0.0,0.0,2.3865,2.5179,2.6465,2.7535,2.8315,2.9414,3.097,3.1021,3.141,3.2222,3.2188,3.2544,3.3288,3.3288,3.3322,3.3372,3.415,3.4912,3.5656,3.6451,3.7212,3.7889,3.7635,3.5825,3.3288,3.3922,3.2432,3.0277,3.316,3.4193,3.4515,3.6818,3.7614,3.7597,3.7513,3.6022,3.4177,3.3878,3.2462,0.0,0.0,3.4106,3.4912,3.7939,3.9671,4.0845,4.1799,4.2479,4.2982,4.3103,4.0994,3.9597,4.1424,4.1694,4.0426,3.6637,0.0,3.6535,3.7144,3.7584,3.9411,4.3741,4.5077,4.5652,4.5652,4.6261,4.6924,4.7605,4.7625,4.7838,4.8371,4.763,4.707,4.6891,4.6745,4.4363,3.9425,3.942,0.0,0.0,0.0,0.0,0.0,0.0,0.0,0.0,0.0,0.0,0.0,0.0,0.0,0.0,0.0,0.0,0.0,0.0,0.0,0.0,0.0,0.0,0.0,0.0,0.0,0.0,0.0,0.0,2.4957,2.6069,0.0,2.5003,2.657,2.7566,2.7279,2.9029,3.0499,3.1376,3.1224,3.1562,3.2577,3.2628,3.2747,3.3,3.3,3.3136,3.3406,3.3406,3.366,3.4134,3.4878,3.591,3.7127,3.7889,3.8616,3.9309,3.9309,3.8108,3.6361,3.6908,3.629,3.5294,3.6661,3.7395,3.7836,3.8649,3.9182,3.9312,3.8624,3.7868,3.7205,3.7302,3.6803,3.6639,3.8787,3.9437,3.9917,4.1858,4.2073,4.1985,4.2718,4.2736,4.284,4.3794,4.318,4.2857,4.4096,4.2074,3.9445,3.7178,3.9157,4.0341,3.8227,4.0764,4.3504,4.5094,4.594,4.6413,4.6413,4.6633,4.7084,4.7709,4.7817,4.8257,4.9307,4.8594,4.8327,4.871,4.871,4.7589,4.5205,4.526,4.1335,0.0,0.0,0.0,0.0,0.0,0.0,0.0,0.0,0.0,0.0,0.0,0.0,0.0,0.0,0.0,0.0,0.0,0.0,0.0,0.0,0.0,0.0,0.0,0.0,0.0,2.3983,2.5766,2.5219,2.699,2.7789,2.6617,2.8843,3.0409,3.0497,3.1833,3.2882,3.3372,3.2933,3.2899,3.3389,3.3406,3.3525,3.3778,3.3778,3.4032,3.4539,3.4539,3.5047,3.6028,3.6518,3.7584,3.9056,3.9529,4.0155,4.0815,4.0815,4.0391,3.9682,3.926,3.887,3.8623,3.9163,3.9748,4.0229,4.0046,4.0087,4.0164,3.968,3.9692,4.0013,4.056,4.0754,4.1103,4.27,4.3044,4.301,4.3733,4.3744,4.3645,4.3903,4.3974,4.4243,4.5236,4.5316,4.5304,4.5834,4.3182,4.0646,3.9918,4.2236,4.3267,4.0561,4.3521,4.5889,4.5382,4.6413,4.7175,4.7175,4.7597,4.8129,4.8835,4.8136,4.8577,5.0812,4.915,4.868,4.9958,4.8673,4.7553,4.6709,4.6673,4.3387,3.6652,0.0,0.0,0.0,0.0,0.0,0.0,0.0,0.0,0.0,0.0,0.0,0.0,0.0,0.0,0.0,0.0,0.0,0.0,0.0,0.0,0.0,0.0,0.0,2.4639,2.5207,2.5837,2.6406,2.8756,3.0096,2.954,3.1227,3.2611,3.3355,3.3423,3.344,3.344,3.344,3.3457,3.3508,3.3508,3.388,3.4624,3.4624,3.5385,3.6874,3.6874,3.7652,3.9056,3.9056,3.9851,4.1238,4.1238,4.1644,4.2286,4.2339,4.2723,4.3103,4.1033,4.0089,4.003,4.0758,4.1383,4.1821,4.123,4.0741,4.0408,4.1087,4.1746,4.2526,4.3719,4.4156,4.4351,4.4957,4.4707,4.412,4.3585,4.4875,4.6182,4.5561,4.6436,4.7445,4.7636,4.7156,4.6736,4.685,4.5733,4.4931,4.5659,4.5794,4.554,4.4812,4.5947,0.0,4.4914,4.6658,4.7979,4.7885,4.9124,5.0227,5.0963,4.878,4.9003,5.2962,4.9499,4.8379,5.0784,4.7076,4.4599,4.3773,4.3608,4.313,4.2304,0.0,0.0,0.0,0.0,0.0,0.0,0.0,0.0,0.0,0.0,0.0,0.0,0.0,0.0,0.0,0.0,0.0,0.0,0.0,0.0,0.0,2.5502,2.6186,2.5895,2.7571,2.8748,2.8533,2.9453,3.0521,3.1402,3.2486,3.3186,3.3389,3.3897,3.4201,3.4201,3.4201,3.4709,3.5825,3.5859,3.6468,3.7736,3.7753,3.8227,3.9174,3.9174,3.9681,4.0595,4.0595,4.1102,4.1999,4.1999,4.21,4.2339,4.2809,4.3143,4.3256,4.2645,4.2653,4.2996,4.3225,4.365,4.4232,4.4433,4.4433,4.425,4.4089,4.4178,4.4317,4.4192,4.4219,4.4476,4.5642,4.5846,4.593,4.6716,4.7,4.7222,4.7589,4.7625,4.7861,4.8972,4.8644,4.837,4.8862,4.8282,4.7631,4.7289,4.7214,4.7145,4.6938,4.8205,4.8765,4.782,4.9159,4.9637,4.801,4.8173,4.8695,4.9422,4.887,4.9847,5.2975,5.216,5.1848,5.2527,5.1463,5.049,4.9664,4.6177,4.3699,0.0,0.0,0.0,0.0,0.0,0.0,0.0,0.0,0.0,0.0,0.0,0.0,0.0,0.0,0.0,0.0,0.0,0.0,0.0,0.0,0.0,0.0,2.851,2.9026,2.8876,2.9659,3.0319,3.0523,3.083,3.1478,3.2645,3.3152,3.366,3.4286,3.4726,3.525,3.5893,3.5926,3.6468,3.7669,3.7702,3.8261,3.9428,3.9462,3.9834,4.0544,4.0544,4.1102,4.2117,4.1796,4.2252,4.3234,4.2912,4.2946,4.3288,4.3681,4.4144,4.4533,0.0,0.0,0.0,0.0,4.498,4.516,4.5472,4.5415,4.5196,4.5174,4.5384,4.558,4.5548,4.5724,4.6104,4.6898,4.7419,4.7802,4.8298,4.8621,4.8859,4.9061,4.9037,4.9163,5.0073,4.9941,4.9811,5.0277,5.004,0.0,4.924,4.8657,4.8182,4.787,4.8809,4.9316,4.8546,4.9726,5.0275,4.9275,4.9433,4.9773,5.0186,4.9287,0.0,0.0,0.0,5.1004,5.0674,5.0655,0.0,0.0,0.0,4.559,4.6361,4.3681,0.0,0.0,3.8487,3.7239,0.0,0.0,0.0,0.0,0.0,0.0,0.0,0.0,0.0,0.0,0.0,0.0,0.0,0.0,0.0,0.0,3.1556,3.2696,3.2688,3.1708,3.135,3.23,3.256,3.2949,3.3711,3.3778,3.437,3.5774,3.5876,3.6502,3.7956,3.8024,0.0,0.0,0.0,3.9631,4.0443,4.0476,4.0865,4.1576,4.1576,4.2269,4.3521,4.2861,4.3301,4.4536,4.3952,4.402,4.472,4.4869,4.5614,4.6475,4.5178,4.4964,4.5512,4.5992,4.586,4.5472,4.5472,0.0,0.0,4.5446,4.6047,4.6685,4.7422,4.8024,4.8471,4.8563,4.9132,4.9621,4.9016,4.981,5.0662,5.0177,5.0466,5.089,5.1086,5.1112,5.1077,5.1319,5.1361,5.1361,5.1361,5.0136,4.8951,4.8273,4.8764,4.8983,4.8342,4.946,5.043,5.089,5.149,0.0,5.1842,4.9792,4.9805,5.3023,5.0472,4.8545,4.7829,4.781,4.781,4.781,4.7095,4.8508,5.2123,5.1426,5.1077,5.0857,4.2047,4.023,0.0,0.0,0.0,0.0,0.0,0.0,0.0,0.0,0.0,0.0,0.0,0.0,0.0,0.0,0.0,3.2268,3.3481,3.429,3.4868,3.4756,3.4223,3.3322,3.4252,3.5284,3.6062,3.6129,3.6502,3.7398,3.7466,3.7855,3.8734,3.8785,3.9394,4.073,4.0781,4.1407,4.276,4.2777,4.3166,4.3927,4.3927,0.0,4.435,4.4198,4.4299,4.4626,4.4917,4.5182,4.5425,4.6448,4.7281,4.7901,4.763,4.756,4.7696,4.7791,4.7752,4.7657,4.7657,4.7599,4.7539,4.7685,4.7798,4.8059,4.8941,4.9255,0.0,5.0123,5.0435,5.0523,5.0424,5.0593,5.0908,5.1449,5.1224,5.123,5.2473,5.2273,5.2043,5.2644,5.2787,5.2787,5.2787,5.1602,5.0664,5.0505,5.0576,5.0823,5.1231,5.1513,5.1305,5.0253,5.0263,5.0308,5.0308,4.9898,5.0623,5.3036,5.2619,5.2197,5.205,5.2032,5.2032,5.2032,5.1885,5.2197,5.2968,5.2821,5.2747,5.2674,4.9481,4.8508,0.0,0.0,0.0,0.0,0.0,0.0,0.0,0.0,0.0,0.0,0.0,2.7446,3.0365,0.0,3.2357,3.4218,3.5148,3.5639,3.5622,3.6586,3.6755,3.5267,3.5757,3.6502,3.728,3.7347,3.7652,3.8396,3.8785,3.9309,4.0054,4.0443,4.1153,4.2286,4.232,4.2861,4.3995,4.3995,4.4198,4.4587,4.4587,4.4587,4.4626,4.4906,4.5052,4.5089,4.5681,4.5965,4.6014,4.7017,4.7572,4.7933,4.8687,4.8673,4.8306,4.8306,4.8581,4.8948,4.8948,4.9205,4.9554,4.9554,4.9554,4.9627,5.0068,5.0196,5.027,5.0692,5.1096,5.1389,5.1389,5.1701,5.2105,5.2509,5.2334,5.2277,5.3011,5.2893,5.2769,5.3103,5.3206,5.3103,5.2707,5.2083,5.1593,5.1593,5.1292,5.1343,5.2,5.2112,5.1963,5.1595,5.1566,5.1566,5.1566,5.1566,5.2017,5.3109,5.3206,5.3206,5.3206,5.3206,5.3206,5.3206,5.3206,5.3206,5.3206,5.3206,5.3206,5.3188,5.238,5.2013,0.0,0.0,0.0,0.0,0.0,0.0,0.0,2.5575,2.659,2.9465,3.0057,3.0835,3.3372,3.3964,3.4455,3.5656,3.6502,3.684,3.6332,3.7838,3.8599,3.755,3.7415,3.7652,3.8278,3.8464,3.8785,3.9377,4.0104,4.0832,4.1593,4.2185,4.2861,4.3623,4.3639,4.3944,4.457,4.4587,4.4587,4.4587,4.4587,4.4587,4.4626,4.5232,4.5511,4.5545,4.6288,4.6753,4.7079,4.7619,4.7916,4.8158,4.9358,4.9389,4.8802,4.8802,4.9224,4.9811,4.9811,5.0251,5.0802,5.0802,5.0802,5.0839,5.0986,5.1041,5.1077,5.1224,5.1738,5.2234,5.2234,5.2711,5.3206,5.3206,5.3206,5.3206,5.3206,5.3206,5.3206,5.3206,5.3206,5.2999,5.2445,5.2317,5.2271,5.2112,5.1544,5.1393,5.2224,5.2159,5.2381,5.3103,5.3206,5.3206,5.3206,5.3206,5.3206,5.3206,5.3206,5.3206,5.3206,5.3206,5.3206,5.3206,5.3206,5.3206,5.3206,5.3206,5.3206,5.3206,5.3206,5.3206,3.0385,2.9008,2.6944,2.7893,2.7655,2.8095,0.0,3.1326,3.1089,3.3406,3.3863,3.4184,3.5182,3.5943,3.6451,3.662,3.728,3.7973,3.8531,3.8836,3.9174,3.9648,3.9715,3.9732,3.9834,4.0443,4.0882,4.095,4.1644,4.2371,4.3132,4.325,4.3639,4.4418,4.4451,4.4485,4.4587,4.4587,4.4587,4.4587,4.4587,4.4587,4.4626,4.5232,4.5511,4.5563,4.6774,4.8031,4.9248,4.9328,4.9768,5.0446,5.0578,5.0618,5.0527,5.0527,5.0582,5.0674,5.0674,5.0729,5.0802,5.0802,5.0802,5.093,5.1646,5.1867,5.2013,5.2747,5.3004,5.3078,5.3078,5.3133,5.3206,5.3206,5.3206,5.3206,5.3206,5.3206,5.3206,5.3206,5.3206,5.3164,5.3103,5.306,5.2831,5.2224,5.1544,5.1562,5.2893,5.2509,5.2381,5.3103,5.3206,5.3206,5.3206,5.3206,5.3206,5.3206,5.3206,5.3206,5.3206,5.3206,5.3206,5.3206,5.3206,5.3206,5.3206,5.3206,5.3206,5.3206,5.3206,5.3206,3.2368,3.0955,2.9589,3.0649,3.0987,3.1478,3.3051,3.3254,3.3491,3.4861,3.5148,3.525,3.5554,3.6265,3.6772,3.6772,3.777,3.865,3.8954,3.936,3.9732,4.0037,4.046,4.073,4.073,4.1018,4.139,4.1813,4.2523,4.3081,4.3403,4.3842,4.4248,4.457,4.4587,4.4587,4.4587,4.4587,4.4587,4.4587,4.4587,4.4759,4.5159,4.6271,4.7434,4.8632,4.9622,5.0415,5.1022,5.1499,5.1903,5.2215,5.2215,5.2215,5.2087,5.1151,5.1096,5.1499,5.1499,5.1793,5.2215,5.2215,5.2215,5.227,5.2601,5.2711,5.2766,5.3115,5.3206,5.3206,5.3206,5.3206,5.3206,5.3206,5.3206,5.3206,5.3206,5.3206,5.3206,5.3206,5.3206,5.3206,5.3206,5.3206,5.3103,5.2787,5.2509,5.2527,5.3103,5.2937,5.2875,5.3164,5.3206,5.3206,5.3206,5.3206,5.3206,5.3206,5.3206,5.3206,5.3206,5.3206,5.3206,5.3206,5.3206,5.3206,5.3206,5.3206,5.3206,5.3206,5.3206,5.3206,3.3602,3.2723,3.2114,3.251,3.3152,3.3761,3.3964,3.4421,3.4962,3.5504,3.5622,3.569,3.591,3.6569,3.7161,3.7347,3.8464,3.9292,3.9292,3.9749,4.0155,4.0358,4.0865,4.1373,4.1779,4.1813,4.2033,4.2557,4.3301,4.3741,4.3741,4.4265,4.4587,4.4587,4.4587,4.4587,4.4587,4.4587,4.4587,4.4587,4.479,4.512,4.5629,4.7483,4.9341,5.1187,5.1977,5.2454,5.2711,5.3298,5.3665,5.3867,5.3867,5.3867,5.372,5.2546,5.2215,5.2325,5.2325,5.2711,5.3206,5.3206,5.3206,5.3206,5.3206,5.3206,5.3206,5.3206,5.3206,5.3206,5.3206,5.3206,5.3206,5.3206,5.3206,5.3206,5.3206,5.3206,5.3206,5.3206,5.3206,5.3206,5.3206,5.3206,5.3206,5.3206,5.3206,5.3206,5.3206,5.3206,5.3206,5.3206,5.3206,5.3206,5.3206,5.3206,5.3206,5.3206,5.3206,5.3206,5.3206,5.3206,5.3206,5.3206,5.3206,5.3206,5.3206,5.3206,5.3316,5.3537,5.3537,5.3665,3.3037,3.3745,3.3984,3.3507,3.3914,3.4641,3.5385,3.5571,3.5588,3.5622,3.5622,3.5859,3.6603,3.7364,3.8108,3.8819,3.9546,4.0054,4.0054,4.007,4.0358,4.1085,4.1187,4.1762,4.3217,4.3352,4.3369,4.3386,4.4096,4.4536,4.4536,4.457,4.4587,4.4587,4.4587,4.4587,4.4587,4.4587,4.4587,4.4587,4.5314,4.5669,4.576,4.8645,5.0652,5.1995,5.2821,5.361,5.4326,5.4344,5.4821,5.5519,5.5519,5.5519,5.55,5.5464,5.4473,5.317,5.317,5.3188,5.3206,5.3206,5.3206,5.3206,5.3206,5.3206,5.3206,5.3206,5.3206,5.3206,5.3206,5.3206,5.3206,5.3206,5.3206,5.3206,5.3206,5.3206,5.3206,5.3206,5.3206,5.3206,5.3206,5.3206,5.3206,5.3206,5.3206,5.3206,5.3206,5.3206,5.3206,5.3206,5.3206,5.3206,5.3206,5.3206,5.3206,5.3206,5.3206,5.3206,5.3206,5.3206,5.3206,5.3206,5.3206,5.3206,5.3206,5.3206,5.361,5.4363,5.4363,5.4785,3.3,3.4235,3.5096,3.4905,3.5064,3.5301,3.5554,3.5622,3.5622,3.5622,3.5622,3.569,3.596,3.7043,3.799,3.8227,3.9292,4.007,4.007,4.007,4.0358,4.1119,4.1627,4.232,4.3318,4.342,4.3639,4.4147,4.4434,4.4587,4.4587,4.4587,4.4587,4.4587,4.4587,4.4823,4.5331,4.5331,4.5821,4.6802,4.7967,4.9106,5.0113,5.1485,5.294,5.4418,5.5244,5.5739,5.6033,5.6565,5.695,5.7134,5.6602,5.64,5.6326,5.5794,5.5244,5.4711,5.4179,5.4014,5.3922,5.339,5.3206,5.3206,5.3206,5.3206,5.3206,5.3206,5.3206,5.3206,5.3206,5.3206,5.3206,5.3206,5.3206,5.3206,5.3206,5.3206,5.3206,5.3206,5.3206,5.3206,5.3206,5.3206,5.3206,5.3206,5.3206,5.3206,5.3206,5.3206,5.3206,5.3206,5.3206,5.3206,5.3206,5.3206,5.3206,5.3206,5.3206,5.3206,5.3206,5.3206,5.3206,5.3206,5.3206,5.3206,5.3206,5.3739,5.4142,5.4418,5.495,5.5335,3.3625,3.4865,3.5589,3.5616,3.5622,3.5622,3.5622,3.5622,3.569,3.5977,3.5605,3.547,3.6282,3.7026,3.777,3.8565,3.9918,4.0781,4.051,4.0933,4.1356,4.1576,4.2236,4.2997,4.3758,4.3826,4.4045,4.4536,4.4587,4.4587,4.4587,4.4587,4.4587,4.4587,4.4587,4.4942,4.5703,4.5957,4.7131,4.9146,5.0315,5.1632,5.3135,5.381,5.4796,5.6069,5.6877,5.7226,5.7281,5.7795,5.7997,5.7941,5.7428,5.7226,5.7171,5.6638,5.6455,5.629,5.5207,5.4638,5.4308,5.3812,5.3445,5.3206,5.3206,5.3206,5.3206,5.3206,5.3206,5.3206,5.3206,5.3206,5.3206,5.3206,5.3206,5.3206,5.3206,5.3206,5.3206,5.3206,5.3206,5.3206,5.3206,5.3206,5.3206,5.3206,5.3445,5.3537,5.3243,5.3206,5.3206,5.3206,5.3206,5.3206,5.3206,5.3206,5.3206,5.3206,5.3206,5.3206,5.3206,5.3206,5.3206,5.3206,5.3482,5.3628,5.3628,5.4436,5.4968,5.528,5.5794,5.618,3.4847,3.5598,3.5606,3.5616,3.5622,3.5622,3.5622,3.5622,3.5825,3.6518,3.5504,3.5148,3.728,3.7178,3.7483,3.9597,4.1204,4.1948,4.1288,4.2405,4.3064,4.2422,4.298,4.3724,4.4502,4.4587,4.4587,4.4587,4.4587,4.4587,4.4587,4.4587,4.4604,4.4637,4.4637,4.5043,4.5872,4.6726,4.8565,5.1448,5.2216,5.333,5.4742,5.5501,5.6207,5.6914,5.7666,5.7997,5.7997,5.7997,5.7997,5.7997,5.7997,5.7997,5.7997,5.7997,5.7997,5.7776,5.6235,5.517,5.4454,5.4418,5.3867,5.3206,5.3206,5.3206,5.3206,5.3206,5.3206,5.3206,5.3206,5.3206,5.3206,5.3206,5.3206,5.3206,5.3206,5.3206,5.3206,5.3206,5.3206,5.3206,5.3206,5.3243,5.328,5.328,5.3959,5.4179,5.3371,5.328,5.3298,5.3335,5.3261,5.3225,5.328,5.3225,5.3206,5.3206,5.3243,5.328,5.328,5.3316,5.3335,5.3335,5.4069,5.4454,5.4454,5.5262,5.6051,5.6804,5.684,5.7281,3.5382,3.5613,3.5599,3.5605,3.5622,3.5622,3.5622,3.5622,3.552,3.5148,3.4759,3.4506,3.4539,3.5774,3.6958,3.7533,3.9326,4.0781,4.1153,4.1525,4.2117,4.3031,4.3301,4.3724,4.4502,4.4587,4.4587,4.4587,4.4587,4.4587,4.4587,4.4587,4.484,4.5399,4.5415,4.6295,4.8139,5.0592,5.2158,5.2969,5.4235,5.5347,5.6317,5.6515,5.6993,5.7703,5.7905,5.7997,5.7997,5.7997,5.7997,5.7997,5.7997,5.7997,5.7997,5.7997,5.7997,5.7941,5.7519,5.6455,5.5188,5.4583,5.3867,5.3206,5.3206,5.3206,5.3206,5.3206,5.3206,5.3206,5.3206,5.3206,5.3206,5.3206,5.3206,5.3206,5.3206,5.3206,5.3206,5.3206,5.3206,5.3206,5.3206,5.3702,5.4087,5.4087,5.4785,5.4987,5.4197,5.4087,5.4326,5.4913,5.3922,5.3445,5.4051,5.3555,5.3206,5.3206,5.3775,5.4087,5.4087,5.4675,5.4987,5.4987,5.5188,5.528,5.5299,5.6106,5.6602,5.6822,5.7409,5.7795,3.562,3.5582,3.5622,3.5622,3.5622,3.5537,3.5199,3.5131,3.5013,3.4573,3.3981,3.3702,3.4279,3.5396,3.6535,3.7475,3.9833,4.1576,4.1677,4.254,4.3234,4.3403,4.3724,4.4096,4.4536,4.4874,4.5077,4.5077,4.4773,4.4722,4.506,4.5077,4.5415,4.616,4.6498,4.7895,5.0437,5.281,5.4296,5.5009,5.6152,5.6927,5.7401,5.7401,5.7613,5.7997,5.7997,5.7997,5.7997,5.7997,5.7997,5.7997,5.7997,5.7997,5.7997,5.7997,5.7997,5.7997,5.7997,5.7171,5.6051,5.5592,5.4913,5.4197,5.383,5.3739,5.3665,5.3316,5.3206,5.3206,5.3206,5.3206,5.3298,5.3647,5.3739,5.3739,5.3739,5.3739,5.3739,5.3739,5.3445,5.3316,5.3683,5.4106,5.4399,5.4399,5.539,5.5959,5.5519,5.5152,5.5097,5.5537,5.4473,5.3922,5.4363,5.3995,5.3739,5.3739,5.4473,5.4932,5.4932,5.5354,5.5592,5.5592,5.5941,5.6124,5.6124,5.6932,5.7336,5.7336,5.7795,5.7997,3.5616,3.5622,3.5622,3.5622,3.5622,3.5419,3.4641,3.4472,3.4438,3.4235,3.3245,3.2897,3.4687,3.5006,3.5746,3.8014,4.1053,4.2949,4.2371,4.4079,4.4942,4.3724,4.4181,4.4621,4.4722,4.5314,4.5737,4.5838,4.5246,4.5162,4.5821,4.5855,4.6269,4.7216,4.8167,4.9966,5.2677,5.4158,5.558,5.6912,5.766,5.7997,5.7997,5.7997,5.7997,5.7997,5.7997,5.7997,5.7997,5.7997,5.7997,5.7997,5.7997,5.7997,5.7997,5.7997,5.7997,5.7997,5.7997,5.7538,5.695,5.684,5.6253,5.5464,5.4766,5.4564,5.4418,5.372,5.3537,5.3537,5.3537,5.3537,5.3702,5.4399,5.4564,5.4564,5.4564,5.4564,5.4528,5.4418,5.3922,5.3683,5.4161,5.4418,5.4564,5.4564,5.5849,5.684,5.695,5.6253,5.5794,5.5904,5.5188,5.4766,5.4876,5.4785,5.473,5.473,5.5372,5.5757,5.5757,5.5849,5.5904,5.5904,5.6602,5.6969,5.6969,5.7666,5.7997,5.7997,5.7997,5.7997,3.5605,3.5622,3.5622,3.5622,3.5622,3.5341,3.4462,3.4361,3.415,3.2916,3.2635,3.2473,3.2066,3.1942,3.3141,3.6763,3.9918,4.2006,4.2255,4.3166,4.3961,4.4333,4.4502,4.4823,4.5449,4.5618,4.5957,4.6549,4.6481,4.6464,4.6599,4.6599,4.7527,4.9447,5.1467,5.3077,5.4232,5.5723,5.6665,5.6912,5.766,5.7997,5.7997,5.7997,5.7997,5.7997,5.7997,5.7997,5.7997,5.7997,5.7997,5.7997,5.7997,5.7997,5.7997,5.7997,5.7997,5.7997,5.7997,5.7905,5.7685,5.7024,5.6253,5.5556,5.5427,5.5372,5.5354,5.5207,5.517,5.517,5.517,5.517,5.5207,5.5354,5.5372,5.5372,5.5372,5.5372,5.5188,5.4528,5.4821,5.4803,5.361,5.4509,5.5372,5.5372,5.6198,5.7042,5.7703,5.7097,5.6859,5.7501,5.6859,5.6657,5.7317,5.6767,5.6381,5.6381,5.651,5.6602,5.6602,5.7226,5.7574,5.7574,5.7721,5.7795,5.7795,5.7923,5.7997,5.7997,5.7997,5.7997,3.5622,3.5622,3.5622,3.5622,3.5622,3.5351,3.4397,3.3448,3.2555,3.1884,3.141,3.114,3.119,3.1189,3.1824,3.3711,3.7844,4.1254,4.2533,4.3447,4.4173,4.4575,4.5049,4.549,4.5845,4.6447,4.7005,4.7361,4.7733,4.7784,4.7394,4.8088,4.9564,5.1783,5.2951,5.4233,5.5794,5.6541,5.7065,5.7468,5.7839,5.7997,5.7997,5.7997,5.7997,5.7997,5.7997,5.7997,5.7997,5.7997,5.7997,5.7997,5.7997,5.7997,5.7997,5.7997,5.7997,5.7997,5.7997,5.7997,5.7941,5.7556,5.7152,5.6767,5.6345,5.6216,5.6143,5.5702,5.5592,5.5592,5.5592,5.5592,5.5702,5.6124,5.6216,5.6216,5.6216,5.5886,5.5592,5.5647,5.5611,5.5482,5.5133,5.5721,5.6216,5.6216,5.6914,5.7556,5.7941,5.7666,5.774,5.8547,5.7905,5.7758,5.8565,5.7886,5.7428,5.7428,5.7428,5.7428,5.7428,5.7795,5.7997,5.7997,5.7997,5.7997,5.7997,5.7997,5.7997,5.7997,5.7997,5.7997,3.5605,3.5622,3.5622,3.5622,3.5622,3.543,3.467,3.2797,3.1127,3.0791,3.0357,3.0277,3.1043,3.1211,3.1199,3.1209,3.5664,3.9929,4.2159,4.3693,4.461,4.4609,4.5246,4.5805,4.615,4.7175,4.7875,4.8139,4.8999,4.9152,4.8409,4.9933,5.1723,5.3652,5.4039,5.5139,5.7116,5.7134,5.7449,5.7997,5.7997,5.7997,5.7997,5.7997,5.7997,5.7997,5.7997,5.7997,5.7997,5.7997,5.7997,5.7997,5.7997,5.7997,5.7997,5.7997,5.7997,5.7997,5.7997,5.7997,5.7997,5.7997,5.7997,5.7886,5.7262,5.706,5.6932,5.629,5.6106,5.6106,5.6106,5.6106,5.6271,5.6914,5.706,5.706,5.706,5.6565,5.6235,5.6712,5.6418,5.6198,5.6492,5.6693,5.6804,5.6804,5.7336,5.7813,5.7978,5.7997,5.8364,5.9355,5.8896,5.8841,5.9667,5.8988,5.851,5.851,5.818,5.7997,5.7997,5.7997,5.7997,5.7997,5.7997,5.7997,5.7997,5.7997,5.7997,5.7997,5.7997,5.7997,3.5616,3.5622,3.5622,3.5622,3.5622,3.5593,3.5497,3.3277,3.0834,2.947,3.0192,3.1083,3.1168,3.1201,3.1211,3.1203,3.3918,3.703,3.9951,4.2787,4.4619,4.4592,4.471,4.526,4.6599,4.7216,4.7943,4.8849,5.024,5.0754,4.9944,5.1991,5.3589,5.4482,5.5848,5.6993,5.7886,5.7886,5.7932,5.7997,5.7997,5.7997,5.7997,5.7997,5.7997,5.7997,5.7997,5.7997,5.7997,5.7997,5.7997,5.7997,5.7997,5.7997,5.7997,5.7997,5.7997,5.7997,5.7997,5.7997,5.7997,5.7997,5.7997,5.7997,5.7905,5.7886,5.7868,5.7795,5.7776,5.7776,5.7776,5.7776,5.7795,5.7868,5.7886,5.7886,5.7886,5.7831,5.7593,5.6932,5.7336,5.7336,5.5941,5.6326,5.6804,5.6804,5.6877,5.7171,5.7905,5.7997,5.8584,6.0126,6.0236,6.0511,6.13,6.0639,6.0181,6.0181,5.8804,5.7997,5.7997,5.7997,5.7997,5.7997,5.7997,5.7997,5.7997,5.7997,5.7997,5.7997,5.7997,5.7997,3.547,3.5622,3.5622,3.5622,3.5627,3.5589,3.5608,3.3325,3.1021,3.0448,2.9353,2.9063,3.0857,3.1179,3.1183,3.1182,3.3664,3.6011,3.7201,4.1529,4.4609,4.4606,4.4619,4.553,4.7886,4.8318,4.8812,4.9777,5.1042,5.1848,5.2068,5.3427,5.473,5.5955,5.6577,5.7234,5.7997,5.7997,5.7997,5.7997,5.7997,5.7997,5.7997,5.7997,5.7997,5.7997,5.7997,5.7997,5.7997,5.7997,5.7997,5.7997,5.7997,5.7997,5.7997,5.7997,5.7997,5.7997,5.7997,5.7997,5.7997,5.7997,5.7997,5.7997,5.7997,5.7997,5.7997,5.7997,5.7997,5.7997,5.7997,5.7997,5.7997,5.7997,5.7997,5.7997,5.7997,5.7997,5.7905,5.7574,5.7776,5.7795,5.7152,5.7299,5.7519,5.7519,5.7519,5.7648,5.796,5.7997,5.8621,6.0236,6.0401,6.0933,6.2218,6.1575,6.0915,6.0438,5.9355,5.851,5.8015,5.7997,5.7997,5.7997,5.7997,5.7997,5.7997,5.8492,5.8731,5.8731,5.9226,5.9446,3.5093,3.547,3.5622,3.5622,3.5603,3.536,3.4483,3.27,3.1173,3.1201,2.8815,2.7613,3.0644,3.1196,3.1213,3.1224,3.3677,3.5586,3.5585,3.926,4.262,4.4412,4.536,4.6709,4.8771,4.9016,4.9256,4.9919,5.1066,5.2236,5.3353,5.4811,5.6005,5.6894,5.7134,5.7449,5.7997,5.7997,5.7997,5.7997,5.7997,5.7997,5.7997,5.7997,5.7997,5.7997,5.7997,5.7997,5.7997,5.7997,5.7997,5.7997,5.7997,5.7997,5.7997,5.7997,5.7997,5.7997,5.7997,5.7997,5.7997,5.7997,5.7997,5.7997,5.7997,5.7997,5.7997,5.7997,5.7997,5.7997,5.7997,5.7997,5.7997,5.7997,5.7997,5.7997,5.7997,5.7997,5.7997,5.7997,5.7997,5.7997,5.7997,5.7997,5.7997,5.7997,5.7997,5.7997,5.7997,5.7997,5.8621,6.0236,6.0401,6.1062,6.2677,6.2053,6.1263,6.0456,5.9648,5.8859,5.8033,5.7997,5.8107,5.8345,5.8125,5.8125,5.8364,5.8933,5.9208,5.9245,6.0034,6.0401,3.4402,3.5098,3.5622,3.5622,3.5603,3.4822,3.1926,3.1197,3.1179,3.1202,2.8808,2.7602,3.0628,3.1189,3.1219,3.1187,3.37,3.5581,3.5585,3.5644,3.7903,4.392,4.7162,4.8964,4.9017,4.8984,4.8991,4.9022,5.0337,5.1829,5.3428,5.6343,5.766,5.6912,5.7613,5.7997,5.7997,5.7997,5.7997,5.7997,5.7997,5.7997,5.7997,5.7997,5.7997,5.7997,5.7997,5.7997,5.7997,5.7997,5.7997,5.7997,5.7997,5.7997,5.7997,5.7997,5.7997,5.7997,5.7997,5.7997,5.7997,5.7997,5.7997,5.7997,5.7997,5.7997,5.7997,5.7997,5.7997,5.7997,5.7997,5.7997,5.7997,5.7997,5.7997,5.7997,5.7997,5.7997,5.7997,5.7997,5.7997,5.7997,5.7997,5.7997,5.7997,5.7997,5.7997,5.7997,5.7997,5.7997,5.8621,6.0236,6.0401,6.1062,6.2677,6.2053,6.1263,6.0456,5.9648,5.8859,5.8033,5.7997,5.8382,5.9189,5.8419,5.84,5.9208,5.9208,5.9208,5.9245,6.0034,6.0401,3.2928,3.3902,3.4652,3.4652,3.438,3.3573,3.1657,3.1196,3.1198,3.1185,3.0438,3.0091,3.1031,3.1189,3.1223,3.1207,3.1991,3.3311,3.5338,3.7369,3.9404,4.1285,4.4172,4.6767,4.8838,4.9023,4.8984,4.9009,5.1174,5.3258,5.4848,5.6896,5.7886,5.766,5.7886,5.7997,5.7997,5.7997,5.7997,5.7997,5.7997,5.7997,5.7997,5.7997,5.7997,5.7997,5.7997,5.7997,5.7997,5.7997,5.7997,5.7997,5.7997,5.7997,5.7997,5.7997,5.7997,5.7997,5.7997,5.7997,5.7997,5.7997,5.7997,5.7997,5.7997,5.7997,5.7997,5.7997,5.7997,5.7997,5.7997,5.7997,5.7997,5.7997,5.7997,5.7997,5.7997,5.7997,5.7997,5.7997,5.7997,5.7997,5.7997,5.7997,5.7997,5.7997,5.7997,5.7997,5.7997,5.7997,5.8621,6.0236,6.0401,6.1062,6.2677,6.2585,6.1851,6.0493,6.0162,5.941,5.8052,5.7997,5.8125,5.8382,5.8125,5.8125,5.8382,5.8951,5.9777,6.086,6.1098,6.152,3.1643,3.2937,3.3905,3.3905,3.3505,3.2808,3.1516,3.1218,3.0874,2.9736,2.9512,2.9841,3.097,3.1189,3.1201,3.1182,3.3094,3.5196,3.702,3.8925,4.0922,4.3199,4.5152,4.7009,4.8826,4.8991,4.8993,4.8978,5.158,5.4143,5.6371,5.7481,5.8006,5.7997,5.7997,5.7997,5.7997,5.7997,5.7997,5.7997,5.7997,5.7997,5.7997,5.7997,5.7997,5.7997,5.7997,5.7997,0.0,5.7997,5.7997,5.7997,5.7997,5.7997,5.7997,5.7997,5.7997,5.7997,5.7997,5.7997,5.7997,5.7997,5.7997,5.7997,5.7997,5.7997,5.7997,5.7997,5.7997,5.7997,5.7997,5.7997,5.7997,5.7997,5.7997,5.7997,5.7997,5.7997,5.7997,5.7997,5.7997,5.7997,5.7997,5.7997,5.7997,5.7997,5.7997,5.7997,5.7997,5.7997,5.8621,6.0236,6.0401,6.1062,6.2677,6.253,6.1796,6.0493,6.0126,5.9373,5.8052,5.7997,5.8143,5.8455,5.8143,5.8143,5.8455,5.8969,6.0034,6.1594,6.1594,6.2034,0.0,3.2059,3.3102,3.3102,3.2754,3.2201,3.1365,3.1125,0.0,2.7311,2.6684,2.757,3.0358,3.0879,3.0874,3.0887,3.5727,3.9536,3.974,4.0322,4.2805,4.8358,4.8998,4.8975,4.9001,4.9004,4.9104,4.9275,5.1732,5.4498,5.7505,5.7884,5.7996,5.7997,5.7997,5.7997,5.7997,5.7997,5.7997,5.7997,5.7997,5.7997,5.7997,5.7997,5.7997,5.7997,5.7997,5.7997,5.7997,5.7997,5.7997,5.7997,5.7997,5.7997,5.7997,5.7997,5.7997,5.7997,5.7997,5.7997,5.7997,5.7997,5.7997,5.7997,5.7997,5.7997,5.7997,5.7997,5.7997,5.7997,5.7997,5.7997,5.7997,5.7997,5.7997,5.7997,5.7997,5.7997,5.7997,5.7997,5.7997,5.7997,5.7997,5.7997,5.7997,5.7997,5.7997,5.7997,5.7997,5.7997,5.8621,6.0236,6.0401,6.1062,6.2677,6.2126,6.1318,6.0456,5.9722,5.8914,5.8033,5.7997,5.8345,5.9116,5.8382,5.8364,5.9116,5.9245,6.0034,6.1429,6.1539,6.1998,2.8471,0.0,3.0023,3.0023,2.9959,3.0102,0.0,3.0307,2.8966,2.7088,2.6716,2.6931,2.7636,2.7748,2.7756,2.7766,3.0876,3.4068,3.6323,4.2571,4.7444,4.8798,4.9017,4.8993,4.8998,4.9017,4.989,5.204,5.283,5.3523,5.4279,5.6665,5.7996,5.7997,5.7997,5.7997,5.7997,5.7997,5.7997,5.7997,5.7997,5.7997,5.7997,5.7997,5.7997,5.7997,5.7997,5.7997,5.7997,5.7997,5.7997,5.7997,5.7997,5.7997,5.7997,5.7997,5.7997,5.7997,5.7997,5.7997,5.7997,5.7997,5.7997,5.7997,5.7997,5.7997,5.7997,5.7997,5.7997,5.7997,5.7997,5.7997,5.7997,5.7997,5.7997,5.7997,5.7997,5.7997,5.7997,5.7997,5.7997,5.7997,5.7997,5.7997,5.7997,5.7997,5.7997,5.7997,5.7997,5.7997,5.8621,6.0236,6.0401,6.1062,6.2677,6.264,6.1924,6.0493,6.0236,5.9483,5.8052,5.7997,5.8088,5.829,5.8107,5.8088,5.829,5.952,6.0015,5.9795,6.1025,6.1686,2.73,2.8383,2.9499,2.9499,2.9499,2.9641,3.008,2.957,2.8543,2.7011,2.6689,2.6704,2.67,2.8934,3.0331,2.9,3.015,3.3646,4.0742,4.5913,4.901,4.8993,5.1436,5.2564,5.1077,4.9765,5.0186,5.2992,5.3222,5.3217,5.3211,5.6242,5.8031,5.7987,5.7978,5.7997,5.7997,5.7997,5.7997,5.7997,5.7997,5.7997,5.7997,5.7997,5.7997,5.7997,5.7997,5.7997,5.7997,5.7997,5.7997,5.7997,5.7997,5.7997,5.7997,5.7997,5.7997,5.7997,5.7997,5.7997,5.7997,5.7997,5.7997,5.7997,5.7997,5.7997,5.7997,5.7997,5.7997,5.7997,5.7997,5.7997,5.7997,5.7997,5.7997,5.7997,5.7997,5.7997,5.7997,5.7997,5.7997,5.7997,5.7997,5.7997,5.7997,5.7997,5.7997,5.7997,5.7997,5.8327,5.9043,6.0272,6.0731,6.1447,6.2695,6.2805,6.2273,6.1025,6.0603,5.985,5.8602,5.8547,5.8382,5.7997,5.8731,5.8914,5.8547,5.9813,6.0382,6.0327,6.119,6.1796,2.6843,2.845,3.0023,2.9685,2.977,2.9719,2.8837,2.8657,2.8285,2.6978,2.6708,2.6706,2.6706,3.1202,3.4542,3.3422,3.3251,3.6936,4.7485,4.9018,4.9161,4.9664,5.419,5.6184,5.3473,5.1029,5.0638,5.3031,5.3178,5.3201,5.3207,5.579,5.7479,5.7986,5.7987,5.7978,5.7997,5.7997,5.7997,5.7997,5.7997,5.7997,5.7997,5.7997,5.7997,5.7997,5.7997,5.7997,5.7997,5.7997,5.7997,5.7997,5.7997,5.7997,5.7997,5.7997,5.7997,5.7997,5.7997,5.7997,5.7997,5.7997,5.7997,5.7997,5.7997,5.7997,5.7997,5.7997,5.7997,5.7997,5.7997,5.7997,5.7997,5.7997,5.7997,5.7997,5.7997,5.7997,5.7997,5.7997,5.7997,5.7997,5.7997,5.7997,5.7997,5.7997,5.7997,5.7997,5.7997,5.8749,5.9593,6.0419,6.1153,6.1924,6.275,6.2805,6.2511,6.1832,6.0915,5.9997,5.9079,5.9153,5.8896,5.8198,5.9648,6.007,5.941,6.0199,6.0878,6.141,6.1667,6.2089,2.7469,2.8856,2.9651,2.7706,2.8197,2.8803,2.7377,2.705,2.6975,2.674,2.669,2.6698,2.6707,2.9527,3.421,4.1371,4.2518,4.4024,4.8392,4.8976,4.9964,5.2501,5.3483,5.3724,5.3225,5.279,5.2733,5.3186,5.3178,5.3201,5.3207,5.3689,5.5207,5.7913,5.8023,5.8015,5.7997,5.7997,5.7997,5.7997,5.7997,5.7997,5.7997,5.7997,5.7997,5.7997,5.7997,5.7997,5.7997,5.7997,5.7997,5.7997,5.7997,5.7997,5.7997,5.7997,5.7997,5.7997,5.7997,5.7997,5.7997,5.7997,5.7997,5.7997,5.7997,5.7997,5.7997,5.7997,5.7997,5.7997,5.7997,5.7997,5.7997,5.7997,5.7997,5.7997,5.7997,5.7997,5.7997,5.7997,5.7997,5.7997,5.7997,5.7997,5.7997,5.7997,5.7997,5.7997,5.7997,5.8877,5.9934,6.0945,6.1404,6.1924,6.275,6.2805,6.2768,6.264,6.1227,5.974,5.8253,5.8859,5.9153,5.9024,5.9942,6.0346,6.0236,6.1025,6.1135,6.0621,6.1998,6.2328,2.642,2.7723,2.8721,2.8095,2.9347,3.0598,2.9875,3.0241,3.0236,2.8336,2.8581,2.9125,2.9127,3.4252,3.979,4.3941,4.461,4.5648,4.8588,4.8993,5.0084,5.2967,5.3243,5.3175,5.319,5.32,5.3213,5.317,5.3207,5.3182,5.3176,5.3182,5.3877,5.5357,5.7079,5.8006,5.7997,5.7997,5.7997,5.7997,5.7997,5.7997,5.7997,5.7997,5.7997,5.7997,5.7997,5.7997,5.7997,5.7997,5.7997,5.7997,5.7997,5.7997,5.7997,5.7997,5.7997,5.7997,5.7997,5.7997,5.7997,5.7997,5.7997,5.7997,5.7997,5.7997,5.7997,5.7997,5.7997,5.7997,5.7997,5.7997,5.7997,5.7997,5.7997,5.7997,5.7997,5.7997,5.7997,5.7997,5.7997,5.7997,5.7997,5.7997,5.7997,5.7997,5.7997,5.7997,5.7997,5.8417,5.926,6.0603,6.1649,6.2401,6.2787,6.2805,6.2622,6.2181,6.1062,6.007,5.9336,5.9648,5.9869,5.9869,6.108,6.1484,6.1043,6.1869,6.2071,6.1722,6.2475,6.2603,2.5879,2.6962,2.8095,2.9211,3.0768,3.2178,3.2635,3.3658,3.4167,3.2906,3.272,3.2647,3.2293,3.8985,4.4588,4.463,4.4604,4.5648,4.8603,4.9545,5.0787,5.2924,5.3175,5.3208,5.3219,5.3206,5.3206,5.3206,5.3206,5.3206,5.3206,5.3207,5.3566,5.4305,5.6712,5.8006,5.7997,5.7997,5.7997,5.7997,5.7997,5.7997,5.7997,5.7997,5.7997,5.7997,5.7997,5.7997,5.7997,5.7997,5.7997,5.7997,5.7997,5.7997,5.7997,5.7997,5.7997,5.7997,5.7997,5.7997,5.7997,5.7997,5.7997,5.7997,5.7997,5.7997,5.7997,5.7997,5.7997,5.7997,5.7997,5.7997,5.7997,5.7997,5.7997,5.7997,5.7997,5.7997,5.7997,5.7997,5.7997,5.7997,5.7997,5.7997,5.7997,5.7997,5.7997,5.7997,5.7997,5.7975,5.8761,6.0761,6.2053,6.2805,6.2805,6.2805,6.2475,6.1649,6.1025,6.0603,6.0419,6.0584,6.0676,6.0676,6.2089,6.2511,6.1887,6.2511,6.2805,6.2805,6.2805,6.2805,2.7249,2.7705,2.8332,3.0497,3.1157,3.1772,3.3658,3.4797,3.7033,4.2377,4.0262,3.6992,3.5531,4.0387,4.4619,4.4624,4.4602,4.562,4.8605,5.1218,5.2943,5.3175,5.3207,5.3219,5.3206,5.3206,5.3206,5.3206,5.3206,5.3206,5.3206,5.3182,5.4553,5.7542,5.7881,5.7994,5.7997,5.7997,5.7997,5.7997,5.7997,5.7997,5.7997,5.7997,5.7997,5.7997,5.7997,5.7997,5.7997,5.7997,5.7997,5.7997,5.7997,5.7997,5.7997,5.7997,5.7997,5.7997,5.7997,5.7997,5.7997,5.7997,5.7997,5.7997,5.7997,5.7997,5.7997,5.7997,5.7997,5.7997,5.7997,5.7997,5.7997,5.7997,5.7997,5.7997,5.7997,5.7997,5.7997,5.7997,5.7997,5.7997,5.7997,5.7997,5.7997,5.7997,5.7997,5.7997,5.7997,5.7975,5.9194,6.2284,6.2739,6.2805,6.2805,6.2805,6.2475,6.1649,6.1539,6.1172,6.0438,6.1117,6.1502,6.1502,6.2365,6.2787,6.2713,6.2787,6.2805,6.2805,6.2805,6.2805,2.5473,2.6759,2.8146,2.9482,3.0852,3.2466,3.4566,3.6095,3.7769,4.0354,4.1518,4.1334,3.8858,4.1006,4.3453,4.444,4.461,4.6221,5.0932,5.2546,5.3207,5.3215,5.3188,5.3206,5.3206,5.3206,5.3206,5.3206,5.3206,5.3206,5.3206,5.3219,5.3763,5.4998,5.6948,5.8005,5.7997,5.7997,5.7997,5.7997,5.7997,5.7997,5.7997,5.7997,5.7997,5.7997,5.7997,5.7997,5.7997,5.7997,5.7997,5.7997,5.7997,5.7997,5.7997,5.7997,5.7997,5.7997,5.7997,5.7997,5.7997,5.7997,5.7997,5.7997,5.7997,5.7997,5.7997,5.7997,5.7997,5.7997,5.7997,5.7997,5.7997,5.7997,5.7997,5.7997,5.7997,5.7997,5.7997,5.7997,5.7997,5.7997,5.7997,5.7997,5.7997,5.7997,5.7997,5.7997,5.7997,5.7975,5.923,6.248,6.2794,6.2805,6.2805,6.2805,6.2677,6.2383,6.1887,6.1447,6.1153,6.1429,6.1832,6.2346,6.2658,6.2805,6.2805,6.2805,6.2805,6.2805,6.2805,6.2805,2.5406,2.6826,2.8535,3.0006,3.1326,3.3,3.5723,3.6789,3.7597,3.9126,4.1756,4.3352,4.1801,4.1847,4.2613,4.4317,4.5269,4.7487,5.2509,5.3208,5.3198,5.3201,5.3206,5.3206,5.3206,5.3206,5.3206,5.3206,5.3206,5.3206,5.3206,5.3176,5.3182,5.3204,5.6334,5.8005,5.7997,5.7997,5.7997,5.7997,5.7997,5.7997,5.7997,5.7997,5.7997,5.7997,5.7997,5.7997,5.7997,5.7997,5.7997,5.7997,5.7997,5.7997,5.7997,5.7997,5.7997,5.7997,5.7997,5.7997,5.7997,5.7997,5.7997,5.7997,5.7997,5.7997,5.7997,5.7997,5.7997,5.7997,5.7997,5.7997,5.7997,5.7997,5.7997,5.7997,5.7997,5.7997,5.7997,5.7997,5.7997,5.7997,5.7997,5.7997,5.7997,5.7997,5.7997,5.7997,5.7997,5.7975,5.9249,6.2457,6.2781,6.2805,6.2805,6.2805,6.2805,6.2805,6.2291,6.1979,6.1979,6.1979,6.2236,6.2805,6.2805,6.2805,6.2805,6.2805,6.2805,6.2805,6.2805,6.2805,2.7755,2.8383,2.9702,3.2645,3.2848,3.3305,3.706,3.6738,3.6705,4.0443,4.1662,4.2593,4.4301,4.2997,4.2272,4.4279,4.6692,4.9424,5.2744,5.3182,5.3206,5.3206,5.3206,5.3206,5.3206,5.3206,5.3206,5.3206,5.3206,5.3206,5.3206,5.3206,5.3213,5.3204,5.6305,5.7976,5.7997,5.7997,5.7997,5.7997,5.7997,5.7997,5.7997,5.7997,5.7997,5.7997,5.7997,5.7997,5.7997,5.7997,5.7997,5.7997,5.7997,5.7997,5.7997,5.7997,5.7997,5.7997,5.7997,5.7997,5.7997,5.7997,5.7997,5.7997,5.7997,5.7997,5.7997,5.7997,5.7997,5.7997,5.7997,5.7997,5.7997,5.7997,5.7997,5.7997,5.7997,5.7997,5.7997,5.7997,5.7997,5.7997,5.7997,5.7997,5.7997,5.7997,5.7997,5.7997,5.7997,5.8011,5.9292,6.2443,6.2805,6.2805,6.2805,6.2805,6.2805,6.2805,6.2805,6.2805,6.2805,6.2805,6.2805,6.2805,6.2805,6.2805,6.2805,6.2805,6.2805,6.2805,6.2805,6.2805,2.5609,2.7571,2.9989,3.0869,3.3288,3.5876,3.7533,3.7567,3.8116,4.1212,4.2006,4.2762,4.4847,4.4636,4.4483,4.5677,4.648,4.8407,5.2614,5.3212,5.3206,5.3206,5.3206,5.3206,5.3206,5.3206,5.3206,5.3206,5.3206,5.3206,5.3206,5.3206,5.3213,5.3204,5.6305,5.7976,5.7997,5.7997,5.7997,5.7997,5.7997,5.7997,5.7997,5.7997,5.7997,5.7997,5.7997,5.7997,5.7997,5.7997,5.7997,5.7997,5.7997,5.7997,5.7997,5.7997,5.7997,5.7997,5.7997,5.7997,5.7997,5.7997,5.7997,5.7997,5.7997,5.7997,5.7997,5.7997,5.7997,5.7997,5.7997,5.7997,5.7997,5.7997,5.7997,5.7997,5.7997,5.7997,5.7997,5.7997,5.7997,5.7997,5.7997,5.7997,5.7997,5.7997,5.7997,5.8005,5.7993,5.9997,6.1765,6.2713,6.2805,6.2805,6.2805,6.2805,6.2805,6.2805,6.2805,6.2805,6.2805,6.2805,6.2805,6.2805,6.2805,6.2805,6.2805,6.2805,6.2805,6.2805,6.2805,6.2805,2.7469,2.9888,3.2442,3.3051,3.5233,3.7577,3.8815,3.9084,3.9555,4.1276,4.2002,4.2882,4.4609,4.5027,4.5462,4.6495,4.7032,4.8692,5.2655,5.3222,5.3206,5.3206,5.3206,5.3206,5.3206,5.3206,5.3206,5.3206,5.3206,5.3206,5.3206,5.3206,5.3195,5.3211,5.6331,5.8021,5.7987,5.7978,5.7997,5.7997,5.7997,5.7997,5.7997,5.7997,5.7997,5.7997,5.7997,5.7997,5.7997,5.7997,5.7997,5.7997,5.7997,5.7997,5.7997,5.7997,5.7997,5.7997,5.7997,5.7997,5.7997,5.7997,5.7997,5.7997,5.7997,5.7997,5.7997,5.7997,5.7997,5.7997,5.7997,5.7997,5.7997,5.7997,5.7997,5.7997,5.7997,5.7997,5.7997,5.7997,5.7997,5.7997,5.7997,5.7997,5.7997,5.7997,5.7997,5.8024,5.7989,5.9681,6.1385,6.2677,6.2805,6.2805,6.2805,6.2805,6.2805,6.2805,6.2805,6.2805,6.2805,6.2805,6.2805,6.2805,6.2805,6.2805,6.2805,6.2805,6.2805,6.2805,6.2805,6.2805,3.1348,3.3727,3.5994,3.7415,3.8004,3.8653,4.0469,4.0995,4.1087,4.1087,4.1937,4.2987,4.396,4.4588,4.5459,4.6958,4.8107,4.9815,5.2674,5.3125,5.3206,5.3206,5.3206,5.3206,5.3206,5.3206,5.3206,5.3206,5.3206,5.3206,5.3206,5.3206,5.3201,5.3207,5.6029,5.7726,5.8005,5.8006,5.7997,5.7997,5.7997,5.7997,5.7997,5.7997,5.7997,5.7997,5.7997,5.7997,5.7997,5.7997,5.7997,5.7997,5.7997,5.7997,5.7997,5.7997,5.7997,5.7997,5.7997,5.7997,5.7997,5.7997,5.7997,5.7997,5.7997,5.7997,5.7997,5.7997,5.7997,5.7997,5.7997,5.7997,5.7997,5.7997,5.7997,5.7997,5.7997,5.7997,5.7997,5.7997,5.7997,5.7997,5.7997,5.7997,5.7997,5.8015,5.7997,5.7977,5.7989,5.8007,5.9207,6.2443,6.2805,6.2805,6.2805,6.2805,6.2805,6.2805,6.2805,6.2805,6.2805,6.2805,6.2805,6.2805,6.2805,6.2805,6.2805,6.2805,6.2805,6.2805,6.2805,6.2805,2.8591,3.2305,3.6164,3.6877,3.864,4.0353,4.0787,4.1621,4.2302,4.2302,4.2519,4.3077,4.4361,4.4674,4.5461,4.7673,4.8992,5.0222,5.172,5.2656,5.3206,5.3206,5.3206,5.3206,5.3206,5.3206,5.3206,5.3206,5.3206,5.3206,5.3206,5.3206,5.3201,5.3207,5.3884,5.5456,5.7986,5.8006,5.7997,5.7997,5.7997,5.7997,5.7997,5.7997,5.7997,5.7997,5.7997,5.7997,5.7997,5.7997,5.7997,5.7997,5.7997,5.7997,5.7997,5.7997,5.7997,5.7997,5.7997,5.7997,5.7997,5.7997,5.7997,5.7997,5.7997,5.7997,5.7997,5.7997,5.7997,5.7997,5.7997,5.7997,5.7997,5.7997,5.7997,5.7997,5.7997,5.7997,5.7997,5.7997,5.7997,5.7997,5.7997,5.7997,5.7987,5.8014,5.8005,5.7995,5.7984,5.7996,5.9207,6.2443,6.2805,6.2805,6.2805,6.2805,6.2805,6.2805,6.2805,6.2805,6.2805,6.2805,6.2805,6.2805,6.2805,6.2805,6.2805,6.2805,6.2805,6.2805,6.2805,6.2805,2.9661,3.3438,3.6988,3.8747,4.0499,4.175,4.175,4.2444,4.3087,4.3087,4.3087,4.3415,4.4508,4.4709,4.5369,4.7407,4.8857,5.0126,5.1096,5.238,5.3206,5.3206,5.3206,5.3206,5.3206,5.3206,5.3206,5.3206,5.3206,5.3206,5.3206,5.3206,5.3182,5.3195,5.3193,5.4726,5.7958,5.8015,5.7997,5.7997,5.7997,5.7997,5.7997,5.7997,5.7997,5.7997,5.7997,5.7997,5.7997,5.7997,5.7997,5.7997,5.7997,5.7997,5.7997,5.7997,5.7997,5.7997,5.7997,5.7997,5.7997,5.7997,5.7997,5.7997,5.7997,5.7997,5.7997,5.7997,5.7997,5.7997,5.7997,5.7997,5.7997,5.7997,5.7997,5.7997,5.7997,5.7997,5.7997,5.7997,5.7997,5.7997,5.7997,5.7997,5.8015,5.7977,5.932,5.9732,5.8178,5.9347,6.0958,6.264,6.2805,6.2805,6.2805,6.2805,6.2805,6.2805,6.2805,6.2805,6.2805,6.2805,6.2805,6.2805,6.2805,6.2805,6.2805,6.2805,6.2805,6.2805,6.2805,6.2805,3.0591,3.4302,3.768,4.1079,4.2342,4.2711,4.2711,4.3124,4.3497,4.3497,4.3497,4.3699,4.4378,4.4617,4.5241,4.6856,4.8343,4.9682,5.0857,5.227,5.3188,5.3206,5.3206,5.3206,5.3206,5.3206,5.3206,5.3206,5.3206,5.3206,5.3206,5.3206,5.3225,5.3201,5.3218,5.4752,5.7991,5.7996,5.7997,5.7997,5.7997,5.7997,5.7997,5.7997,5.7997,5.7997,5.7997,5.7997,5.7997,5.7997,5.7997,5.7997,5.7997,5.7997,5.7997,5.7997,5.7997,5.7997,5.7997,5.7997,5.7997,5.7997,5.7997,5.7997,5.7997,5.7997,5.7997,5.7997,5.7997,5.7997,5.7997,5.7997,5.7997,5.7997,5.7997,5.7997,5.7997,5.7997,5.7997,5.7997,5.7997,5.7997,5.7997,5.8015,5.7987,5.7987,6.0267,6.1187,5.9072,6.1153,6.2794,6.2805,6.2805,6.2805,6.2805,6.2805,6.2805,6.2805,6.2805,6.2805,6.2805,6.2805,6.2805,6.2805,6.2805,6.2805,6.2805,6.2805,6.2805,6.2805,6.2805,6.2855,2.5967,3.1072,3.7026,4.1471,4.2655,4.2711,4.2711,4.3124,4.3497,4.3497,4.3497,4.3516,4.3626,4.4232,4.5241,4.6856,4.7884,4.926,5.1518,5.2629,5.3198,5.3206,5.3206,5.3206,5.3206,5.3206,5.3206,5.3206,5.3206,5.3206,5.3206,5.3206,5.3201,5.3188,5.3211,5.4745,5.7949,5.7987,5.7997,5.7997,5.7997,5.7997,5.7997,5.7997,5.7997,5.7997,5.7997,5.7997,5.7997,5.7997,5.7997,5.7997,5.7997,5.7997,5.7997,5.7997,5.7997,5.7997,5.7997,5.7997,5.7997,5.7997,5.7997,5.7997,5.7997,5.7997,5.7997,5.7997,5.7997,5.7997,5.7997,5.7997,5.7997,5.7997,5.7997,5.7997,5.7997,5.7997,5.7997,5.7997,5.7997,5.7997,5.7997,5.7977,5.8004,5.8004,5.8359,5.9468,6.1845,6.25,6.2794,6.2805,6.2805,6.2805,6.2805,6.2805,6.2805,6.2805,6.2805,6.2805,6.2805,6.2805,6.2805,6.2805,6.2805,6.2805,6.2805,6.2805,6.2805,6.2805,6.2805,6.3062,2.8701,3.3653,3.8341,4.2213,4.3142,4.3142,4.3142,4.3321,4.3497,4.3497,4.3497,4.3497,4.3497,4.4158,4.5094,4.625,4.748,4.8838,5.038,5.1599,5.2541,5.3125,5.3198,5.3193,5.3206,5.3206,5.3206,5.3206,5.3206,5.3206,5.3206,5.3206,5.3182,5.3176,5.495,5.6562,5.8002,5.8015,5.7997,5.7997,5.7997,5.7997,5.7997,5.7997,5.7997,5.7997,5.7997,5.7997,5.7997,5.7997,5.7997,5.7997,5.7997,5.7997,5.7997,5.7997,5.7997,5.7997,5.7997,5.7997,5.7997,5.7997,5.7997,5.7997,5.7997,5.7997,5.7997,5.7997,5.7997,5.7997,5.7997,5.7997,5.7997,5.7997,5.7997,5.7997,5.7997,5.7997,5.7997,5.7997,5.7997,5.7997,5.7997,5.7987,5.8621,6.0433,5.915,5.9146,6.2371,6.2812,6.2818,6.2805,6.2805,6.2805,6.2805,6.2805,6.2805,6.2805,6.2805,6.2805,6.2805,6.2805,6.2805,6.2805,6.2805,6.2805,6.2805,6.2805,6.2805,6.2805,6.3091,6.3363,2.9832,3.3844,3.6909,4.0946,4.2268,4.2745,4.3351,4.3497,4.3497,4.3497,4.3644,4.3791,4.3791,4.447,4.5278,4.6067,4.7388,4.86,4.9407,5.042,5.1452,5.2486,5.2946,5.3203,5.3212,5.3188,5.3206,5.3206,5.3206,5.3206,5.3206,5.3206,5.3182,5.3201,5.5533,5.7166,5.7965,5.7996,5.7997,5.7997,5.7997,5.7997,5.7997,5.7997,5.7997,5.7997,5.7997,5.7997,5.7997,5.7997,5.7997,5.7997,5.7997,5.7997,5.7997,5.7997,5.7997,5.7997,5.7997,5.7997,5.7997,5.7997,5.7997,5.7997,5.7997,5.7997,5.7997,5.7997,5.7997,5.7997,5.7997,5.7997,5.7997,5.7997,5.7997,5.7997,5.7997,5.7997,5.7997,5.7997,5.7997,5.7997,5.7997,5.8015,5.8832,6.1227,6.0217,6.0084,6.2463,6.28,6.2805,6.2805,6.2805,6.2805,6.2805,6.2805,6.2805,6.2805,6.2805,6.2805,6.2805,6.2805,6.291,6.3198,6.2959,6.2781,6.2781,6.2973,6.3067,6.3085,6.3575,6.3873,2.5212,2.7424,2.9879,3.624,3.8946,4.0689,4.2965,4.3497,4.3497,4.3497,4.4103,4.4654,4.4654,4.5296,4.6104,4.6929,4.7755,4.86,4.9462,4.9646,4.9994,5.082,5.2261,5.3185,5.3185,5.3193,5.3206,5.3206,5.3206,5.3206,5.3206,5.3206,5.3201,5.3207,5.3357,5.4891,5.7968,5.8006,5.7997,5.7997,5.7997,5.7997,5.7997,5.7997,5.7997,5.7997,5.7997,5.7997,5.7997,5.7997,5.7997,5.7997,5.7997,5.7997,5.7997,5.7997,5.7997,5.7997,5.7997,5.7997,5.7997,5.7997,5.7997,5.7997,5.7997,5.7997,5.7997,5.7997,5.7997,5.7997,5.7997,5.7997,5.7997,5.7997,5.7997,5.7997,5.7997,5.7997,5.7997,5.7997,5.7997,5.7997,5.7997,5.7995,5.8059,5.8205,6.0676,6.2622,6.2788,6.28,6.2805,6.2805,6.2805,6.2805,6.2805,6.2805,6.2805,6.2805,6.2805,6.2805,6.2805,6.2805,6.3265,6.4301,6.3319,6.2792,6.2792,6.3456,6.3766,6.3841,6.4219,6.459,2.4641,2.6329,2.8209,3.3128,3.6358,3.8707,4.0102,4.2011,4.3497,4.3497,4.414,4.4874,4.5369,4.614,4.6764,4.7076,4.7792,4.8416,4.8728,4.8765,4.9077,4.9921,5.0989,5.2077,5.3074,5.3193,5.3206,5.3206,5.3206,5.3206,5.3206,5.3206,5.3182,5.3219,5.3175,5.4737,5.7969,5.7978,5.7997,5.7997,5.7997,5.7997,5.7997,5.7997,5.7997,5.7997,5.7997,5.7997,5.7997,5.7997,5.7997,5.7997,5.7997,5.7997,5.7997,5.7997,5.7997,5.7997,5.7997,5.7997,5.7997,5.7997,5.7997,5.7997,5.7997,5.7997,5.7997,5.7997,5.7997,5.7997,5.7997,5.7997,5.7997,5.7997,5.7997,5.7997,5.7997,5.7997,5.7997,5.7997,5.7997,5.7997,5.7997,5.7995,5.7993,5.8,6.072,6.278,6.2794,6.2796,6.2788,6.2818,6.2805,6.2805,6.2805,6.2805,6.2805,6.2805,6.2805,6.2965,6.3289,6.3447,6.368,6.408,6.4558,6.4784,6.4778,6.503,6.4936,6.4558,6.4734,6.4952,2.2758,2.4153,2.6025,3.0338,3.2834,3.5165,3.8707,4.0524,4.1864,4.3204,4.414,4.4947,4.5755,4.6562,4.7205,4.748,4.7957,4.8306,4.8306,4.8306,4.8508,4.9077,5.0123,5.1301,5.2541,5.2991,5.3206,5.3206,5.3206,5.3206,5.3206,5.3206,5.3201,5.3213,5.4257,5.5841,5.7978,5.7997,5.7997,5.7997,5.7997,5.7997,5.7997,5.7997,5.7997,5.7997,5.7997,5.7997,5.7997,5.7997,5.7997,5.7997,5.7997,5.7997,5.7997,5.7997,5.7997,5.7997,5.7997,5.7997,5.7997,5.7997,5.7997,5.7997,5.7997,5.7997,5.7997,5.7997,5.7997,5.7997,5.7997,5.7997,5.7997,5.7997,5.7997,5.7987,5.7984,5.8005,5.7997,5.7997,5.7997,5.7987,5.8002,5.7976,5.8354,5.944,6.1416,6.3051,6.377,6.3245,6.278,6.2798,6.2789,6.2789,6.2789,6.2788,6.2804,6.2804,6.3165,6.3502,6.3854,6.4014,6.4136,6.4287,6.5123,6.5677,6.5889,6.5889,6.5679,6.5228,6.5326,6.5503,0.0,0.0,0.0,2.7563,2.8246,3.0008,3.8726,3.8946,3.845,4.2506,4.3975,4.4819,4.5736,4.6562,4.737,4.8177,4.8306,4.8306,4.8306,4.8306,4.8306,4.8306,4.9793,5.0986,5.1526,5.2569,5.3206,5.3206,5.3206,5.3206,5.3206,5.3206,5.3213,5.3204,5.6305,5.7976,5.7997,5.7997,5.7997,5.7997,5.7997,5.7997,5.7997,5.7997,5.7997,5.7997,5.7997,5.7997,5.7997,5.7997,5.7997,5.7997,5.7997,5.7997,5.7997,5.7997,5.7997,5.7997,5.7997,5.7997,5.7997,5.7997,5.7997,5.7997,5.7997,5.7997,5.7997,5.7997,5.7997,5.7997,5.7997,5.7997,5.7997,5.7978,5.7978,5.8031,5.7992,5.803,5.8079,5.8024,5.7997,5.8013,5.8006,5.8126,5.9264,6.2431,6.2859,6.3559,6.5627,6.4115,6.2881,6.2899,6.2899,6.2899,6.2899,6.2897,6.2854,6.2798,6.3798,6.4426,6.4408,6.4402,6.4626,6.513,6.5016,6.5254,6.5897,6.5897,6.5897,6.5897,6.5897,6.634,1.9305,0.0,0.0,0.0,0.0,0.0,3.065,3.2302,3.4394,3.9074,4.0194,4.1497,4.5223,4.6562,4.737,4.8177,4.8306,4.8306,4.8306,4.8306,4.8306,4.8306,4.9793,5.0857,5.1026,5.2344,5.3206,5.3206,5.3206,5.3206,5.3206,5.3206,5.3213,5.3204,5.6305,5.7976,5.7997,5.7997,5.7997,5.7997,5.7997,5.7997,5.7997,5.7997,5.7997,5.7997,5.7997,5.7997,5.7997,5.7997,5.7997,5.7997,5.7997,5.7997,5.7997,5.7997,5.7997,5.7997,5.7997,5.7997,5.7997,5.7997,5.7997,5.7997,5.7997,5.7997,5.7997,5.7997,5.7997,5.7997,5.7997,5.7997,5.7978,5.7987,5.8017,5.801,5.7978,5.9059,5.9632,5.827,5.8013,5.7987,5.7974,6.1153,6.4009,6.4916,6.3738,6.3543,6.5633,6.5419,6.5031,6.503,6.503,6.503,6.503,6.5047,6.4383,6.2873,6.3798,6.4388,6.4403,6.4737,6.5149,6.5663,6.5651,6.5697,6.5897,6.5897,6.5897,6.5897,6.5897,6.6455,1.9895,2.006,2.0611,2.1767,0.0,0.0,3.0118,3.1623,3.377,4.0359,4.1442,4.2176,4.5314,4.6287,4.6874,4.7682,4.8086,4.8306,4.8306,4.8306,4.8306,4.8306,4.9793,5.0802,5.0802,5.227,5.3206,5.3206,5.3206,5.3206,5.3206,5.3206,5.3213,5.3204,5.6305,5.7976,5.7997,5.7997,5.7997,5.7997,5.7997,5.7997,5.7997,5.7997,5.7997,5.7997,5.7997,5.7997,5.7997,5.7997,5.7997,5.7997,5.7997,5.7997,5.7997,5.7997,5.7997,5.7997,5.7997,5.7997,5.7997,5.7997,5.7997,5.7997,5.7997,5.7997,5.7997,5.7997,5.7997,5.7987,5.7991,5.8024,5.8005,5.7993,5.8607,5.8945,5.8159,5.947,6.0246,5.8349,5.9069,5.9994,5.9993,6.3275,6.5916,6.5904,6.4851,6.4543,6.5749,6.5893,6.5894,6.5906,6.5893,6.5893,6.5893,6.5914,6.5388,6.418,6.4293,6.4596,6.5018,6.5295,6.5569,6.5897,6.5897,6.5897,6.5897,6.5897,6.5897,6.5897,6.5897,6.6494,2.1088,2.1418,2.2372,2.3621,2.2483,0.0,3.2485,3.2981,3.3862,4.2066,4.313,4.2965,4.4305,4.4635,4.4966,4.5792,4.6966,4.7902,4.8251,4.8379,4.8434,4.8434,4.9921,5.093,5.093,5.2325,5.3206,5.3206,5.3206,5.3206,5.3206,5.3206,5.3286,5.3485,5.6397,5.7976,5.7997,5.7997,5.7997,5.7997,5.7997,5.7997,5.7997,5.7997,5.7997,5.7997,5.7997,5.7997,5.7997,5.7997,5.7997,5.7997,5.7997,5.7997,5.7997,5.7997,5.7997,5.7997,5.7997,5.7997,5.7997,5.7997,5.7997,5.7997,5.7997,5.8006,5.7978,5.8013,5.7986,5.8002,5.7996,5.8157,5.8293,5.8305,5.9575,6.035,5.8682,5.9602,6.0314,5.8628,6.0717,6.2873,6.3102,6.469,6.591,6.591,6.5904,6.5889,6.5902,6.5885,6.5897,6.5897,6.5897,6.5897,6.5897,6.5906,6.5893,6.5893,6.5061,6.4946,6.5779,6.5866,6.5897,6.5897,6.5897,6.5897,6.5897,6.5897,6.5897,6.5897,6.5897,6.6551,2.3345,2.3107,2.3492,2.2501,2.3345,0.0,2.3712,2.4263,2.5933,2.9622,2.9732,3.0595,3.5293,3.6707,3.7422,3.8267,4.1791,4.5333,4.7939,4.8893,4.9334,4.9334,5.0765,5.1756,5.1756,5.2637,5.3206,5.3206,5.3206,5.3206,5.3206,5.3206,5.3769,5.5089,5.7,5.7976,5.7997,5.7997,5.7997,5.7997,5.7997,5.7997,5.7997,5.7997,5.7997,5.7997,5.7997,5.7997,5.7997,5.7997,5.7997,5.7997,5.7997,5.7997,5.7997,5.7997,5.7997,5.7997,5.7997,5.7997,5.7997,5.7997,5.7997,5.7997,5.7997,5.7998,5.7996,5.7997,5.8012,5.8018,5.7997,5.9116,6.0235,6.0266,6.0538,6.0714,6.0329,6.0559,6.0696,6.0297,6.164,6.3341,6.5028,6.5633,6.5902,6.5901,6.591,6.5891,6.5897,6.591,6.5897,6.5897,6.5897,6.5897,6.5897,6.5906,6.5893,6.5893,6.5722,6.5512,6.5252,6.5674,6.5897,6.5897,6.5897,6.5897,6.5897,6.5897,6.5897,6.5897,6.5897,6.6955,2.4799,2.4247,2.4685,2.43,2.4502,0.0,0.0,2.5658,2.6667,3.1109,3.0411,3.0099,3.3733,3.4412,3.4688,3.5532,3.9735,4.2892,4.291,4.6764,4.9738,5.0141,5.1242,5.1995,5.1995,5.2729,5.3206,5.3206,5.3206,5.3206,5.3206,5.3206,5.383,5.5145,5.6515,5.7453,5.7978,5.7997,5.7997,5.7997,5.7997,5.7997,5.7997,5.7997,5.7997,5.7997,5.7997,5.7997,5.7997,5.7997,5.7997,5.7997,5.7997,5.7997,5.7997,5.7997,5.7997,5.7997,5.7997,5.7997,5.7997,5.7997,5.7997,5.7987,5.8005,5.8661,5.9188,5.824,5.8669,5.9377,5.9397,6.0085,6.0791,6.0805,6.0808,6.0818,6.0806,6.0808,6.1291,6.2995,6.3876,6.4684,6.5703,6.5905,6.5904,6.5891,6.5897,6.5897,6.5897,6.5897,6.5897,6.5897,6.5897,6.5897,6.5897,6.5893,6.5906,6.5906,6.5906,6.5791,6.5513,6.5762,6.5897,6.5897,6.5897,6.5897,6.5897,6.5897,6.5897,6.5897,6.5897,6.709,2.7003,2.6191,2.6587,2.6477,2.5772,2.5823,0.0,0.0,0.0,3.3201,3.2118,3.0754,3.2386,3.2173,3.1935,3.257,3.6798,3.9056,3.645,4.2396,4.7388,4.8361,5.0692,5.1922,5.1132,5.1371,5.2032,5.3133,5.2197,5.205,5.3151,5.3206,5.3732,5.4943,5.5802,5.6793,5.7978,5.7997,5.7997,5.7997,5.7997,5.7997,5.7997,5.7997,5.7997,5.7997,5.7997,5.7997,5.7997,5.7997,5.7997,5.7997,5.7997,5.7997,5.7997,5.7997,5.7997,5.7978,5.8005,5.8013,5.7994,5.8017,5.8024,5.7944,5.7637,5.8633,5.9552,5.8334,5.9103,6.0341,6.0705,6.0806,6.0805,6.0791,6.08,6.08,6.0796,6.1315,6.2608,6.5345,6.5884,6.5904,6.5905,6.5885,6.5897,6.5897,6.5897,6.5897,6.5897,6.5897,6.5897,6.5897,6.5897,6.5897,6.5897,6.5897,6.5897,6.5897,6.5897,6.5897,6.5897,6.5897,6.5897,6.5897,6.5897,6.5897,6.5897,6.5897,6.5897,6.5897,6.5897,6.7032,3.1896,3.0658,3.0232,2.6766,2.7189,2.709,2.1859,0.0,2.3345,2.2575,0.0,2.2373,2.4042,0.0,0.0,2.4335,2.8429,3.1458,3.1072,3.4945,3.8377,3.99,4.7774,5.1646,4.8031,4.6452,4.7774,5.2839,4.8526,4.7884,5.2949,5.3206,5.3922,5.5464,5.5611,5.6418,5.7978,5.7997,5.7997,5.7997,5.7997,5.7997,5.7997,5.7997,5.7997,5.7997,5.7997,5.7997,5.7997,5.7997,5.7997,5.7997,5.7997,5.7997,5.7997,5.7997,5.7997,5.8015,5.8016,5.7992,5.7981,5.7978,5.8008,5.7721,5.6386,5.6128,5.654,5.7676,5.8154,5.8702,6.0372,6.0796,6.08,6.0804,6.0804,6.08,6.0796,6.319,6.5428,6.5832,6.5903,6.5897,6.5884,6.5891,6.5897,6.5897,6.5897,6.5897,6.5897,6.5897,6.5897,6.5897,6.5897,6.5897,6.5897,6.5897,6.5897,6.5897,6.5897,6.5897,6.5897,6.5897,6.5897,6.5897,6.5897,6.5897,6.5897,6.5897,6.5897,6.5897,6.5897,6.6821,3.2409,3.2333,3.2636,2.893,2.9083,2.8782,2.3483,2.2342,2.2474,2.2611,0.0,0.0,0.0,0.0,0.0,0.0,2.6264,2.8154,2.6282,3.1531,3.634,3.845,4.1882,4.4709,4.625,4.5369,4.7076,5.2784,4.7921,4.7205,5.2913,5.3206,5.394,5.5537,5.5592,5.6363,5.7978,5.7997,5.7997,5.7997,5.7997,5.7997,5.7997,5.7997,5.7997,5.7997,5.7997,5.7997,5.7997,5.7997,5.7997,5.7997,5.7997,5.7997,5.7997,5.7987,5.7984,5.8011,5.7999,5.8707,5.9307,5.731,5.6676,5.6527,5.5903,5.7082,5.8386,5.7046,5.6687,5.6844,5.7645,5.7843,5.8327,6.0319,6.0781,6.08,6.081,6.3474,6.589,6.5903,6.5897,6.5897,6.5897,6.5897,6.5897,6.5897,6.5897,6.5897,6.5897,6.5897,6.5897,6.5897,6.5897,6.5897,6.5897,6.5897,6.5897,6.5897,6.5897,6.5897,6.5897,6.5897,6.5897,6.5897,6.5897,6.5897,6.5897,6.5897,6.5897,6.5897,6.5897,6.6628,3.4565,3.4685,3.4831,3.0196,2.95,2.8808,2.4479,2.2955,2.2794,2.4095,2.3766,0.0,0.0,0.0,2.2919,2.3049,0.0,2.5574,2.2721,2.7325,3.1946,3.4431,3.5569,3.8193,4.3424,4.1791,4.3406,5.0655,4.5736,4.5571,5.2821,5.3206,5.394,5.5537,5.5592,5.6363,5.7978,5.7997,5.7997,5.7997,5.7997,5.7997,5.7997,5.7997,5.7997,5.7997,5.7997,5.7997,5.7997,5.8024,5.8023,5.8002,5.801,5.8005,5.7999,5.8005,5.7441,5.6892,5.8278,5.9061,5.8988,5.6524,5.5712,5.5708,5.5708,5.743,5.8879,5.6403,5.5694,5.5923,5.6847,5.7104,5.7712,6.0208,6.0804,6.08,6.081,6.3493,6.589,6.5897,6.5897,6.5897,6.5897,6.5897,6.5897,6.5897,6.5897,6.5897,6.5897,6.5897,6.5897,6.5897,6.5897,6.5897,6.5897,6.5897,6.5897,6.5897,6.5897,6.5897,6.5897,6.5897,6.5897,6.5897,6.5897,6.5897,6.5897,6.5897,6.5897,6.5897,6.5897,6.6474,4.0412,3.8903,3.6971,2.9516,2.75,2.6242,2.2136,2.2426,2.3782,2.4606,2.5871,2.6911,2.7167,2.6322,2.5067,2.3553,2.3385,0.0,0.0,2.0796,2.1896,2.4373,2.9457,3.4394,3.8542,3.322,3.4137,4.5296,4.0194,4.1442,5.2619,5.3206,5.394,5.5537,5.5592,5.6363,5.7978,5.7997,5.7997,5.7997,5.7997,5.7997,5.7997,5.7997,5.7997,5.7997,5.7997,5.7997,5.7997,5.7996,5.8012,5.7999,5.8008,5.7978,5.8006,5.8012,5.6052,5.4067,5.9003,5.8585,5.5849,5.5734,5.5698,5.5701,5.5698,5.5778,5.5835,5.5717,5.5701,5.6453,5.9777,6.0624,6.0663,6.0759,6.0792,6.0804,6.0796,6.3498,6.589,6.5897,6.5897,6.5897,6.5897,6.5897,6.5897,6.5897,6.5897,6.5897,6.5897,6.5897,6.5897,6.5897,6.5897,6.5897,6.5897,6.5897,6.5897,6.5897,6.5897,6.5897,6.5897,6.5897,6.5897,6.5897,6.5897,6.5897,6.5897,6.5897,6.5897,6.5897,6.5897,6.634,4.2277,4.2977,4.2232,3.403,3.2727,3.1623,2.451,2.4169,2.5285,2.4874,2.6541,2.7902,2.7403,2.6578,2.5589,2.4478,2.3352,2.2233,0.0,2.0867,2.1139,2.1984,2.7368,3.1347,3.221,3.3697,3.7533,4.458,4.3094,4.5186,5.2803,5.3206,5.394,5.5537,5.5592,5.6363,5.7978,5.8326,5.8326,5.7997,5.8307,5.8498,5.8614,5.8614,5.8706,5.8876,5.8257,5.7996,5.8015,5.7997,5.6743,5.5171,5.8535,5.8453,5.6478,5.6497,5.7215,5.8147,5.7609,5.6668,5.5701,5.5701,5.5703,5.5703,5.5703,5.5703,5.5703,5.5703,5.5701,5.5972,5.711,5.7437,5.7412,5.7412,5.7409,5.8043,6.0296,6.3484,6.5919,6.5884,6.5903,6.5903,6.5897,6.5897,6.5897,6.5897,6.5897,6.5897,6.5897,6.5897,6.5897,6.5897,6.5897,6.5897,6.5897,6.5897,6.5897,6.5897,6.5897,6.5897,6.5897,6.5897,6.5897,6.5897,6.5897,6.5897,6.5897,6.5897,6.5897,6.5897,6.5897,6.6051,4.4701,4.5663,4.5163,3.7834,3.6834,3.5705,2.8279,2.7898,2.8925,2.8273,2.8893,3.006,3.1695,2.9288,2.6987,2.6754,2.4537,2.2317,0.0,2.0601,2.057,2.057,0.0,0.0,0.0,0.0,3.5274,4.4232,4.2967,4.5129,5.2803,5.3206,5.4007,5.5766,5.5863,5.6705,5.8466,5.8814,5.8814,5.8484,5.8796,5.8989,5.9064,5.9064,5.9253,5.9521,5.894,5.8468,5.8053,5.7416,5.5979,5.4409,5.7706,5.7654,5.5708,5.57,5.7111,5.8675,5.6464,5.5701,5.5701,5.5703,5.5703,5.5703,5.5703,5.5703,5.5703,5.5703,5.5703,5.5701,5.5701,5.5698,5.5717,5.5717,5.5692,5.6633,6.005,6.254,6.4099,6.4089,6.5051,6.5903,6.5897,6.5897,6.5897,6.5897,6.5897,6.5897,6.5897,6.5897,6.5897,6.5897,6.5897,6.5897,6.5897,6.5897,6.5897,6.5897,6.5897,6.5897,6.5897,6.5897,6.5897,6.5903,6.5897,6.5897,6.5903,6.5897,6.5897,6.5897,6.5897,6.5897]},{"header":{"parameterUnit":"m.s-1","parameterCategory":1,"la1":30.6,"la2":29.2853,"lo1":-89.7004,"lo2":-87.6739,"dx":0.0162,"dy":0.0183,"nx":112,"ny":82,"refTime":"2022-12-14T06:00:00:Z","depth":0,"parameterNumber":3,"parameterNumberName":"V-component_of_WINDS"},"data":[0.0,0.0,0.0,0.0,0.0,0.0,0.0,0.0,0.0,0.0,0.0,0.0,0.0,0.0,0.0,0.0,0.0,0.0,0.0,0.0,0.0,0.0,0.0,0.0,0.0,0.0,0.0,0.0,0.0,0.0,0.0,0.0,0.0,0.0,0.0,0.0,0.0,0.0,0.0,0.0,0.0,0.0,0.0,0.0,0.0,0.0,0.0,0.0,0.0,0.0,0.0,0.0,0.0,0.0,0.0,0.0,0.0,0.0,0.0,0.0,0.0,0.0,0.0,0.0,0.0,0.0,0.0,0.0,0.0,0.0,0.0,0.0,0.0,0.0,0.0,0.0,0.0,0.0,0.0,0.0,0.0,0.0,0.0,0.0,0.0,0.0,0.0,0.0,0.0,0.0,-1.4403,-1.458,-1.5957,-1.6855,-1.6924,-1.6875,-1.5752,-1.3232,0.0,0.0,0.0,0.0,0.0,0.0,0.0,0.0,0.0,0.0,0.0,0.0,0.0,0.0,0.0,0.0,0.0,0.0,0.0,0.0,0.0,0.0,0.0,0.0,0.0,0.0,0.0,0.0,0.0,0.0,0.0,0.0,0.0,0.0,0.0,0.0,0.0,0.0,0.0,0.0,0.0,0.0,0.0,0.0,0.0,0.0,0.0,0.0,0.0,0.0,0.0,0.0,0.0,0.0,0.0,0.0,0.0,0.0,0.0,0.0,0.0,0.0,0.0,0.0,0.0,0.0,0.0,0.0,0.0,0.0,0.0,0.0,0.0,0.0,0.0,0.0,0.0,0.0,0.0,0.0,0.0,0.0,0.0,0.0,0.0,0.0,0.0,0.0,0.0,0.0,0.0,0.0,0.0,0.0,0.0,0.0,0.0,0.0,0.0,0.0,0.0,0.0,0.0,0.0,-1.3684,-1.6572,-1.7129,-1.7432,-1.7783,-1.749,-1.6328,-1.4082,0.0,0.0,0.0,0.0,0.0,0.0,0.0,0.0,0.0,0.0,0.0,0.0,0.0,0.0,0.0,0.0,0.0,0.0,0.0,0.0,0.0,0.0,0.0,0.0,0.0,0.0,0.0,0.0,0.0,0.0,0.0,0.0,0.0,0.0,0.0,0.0,0.0,0.0,0.0,0.0,0.0,0.0,0.0,0.0,0.0,0.0,0.0,0.0,0.0,0.0,0.0,0.0,0.0,0.0,0.0,0.0,0.0,0.0,0.0,0.0,0.0,0.0,0.0,0.0,0.0,0.0,0.0,0.0,0.0,0.0,0.0,0.0,0.0,0.0,0.0,0.0,0.0,0.0,0.0,0.0,0.0,0.0,0.0,0.0,0.0,0.0,0.0,0.0,0.0,0.0,0.0,0.0,0.0,0.0,0.0,0.0,0.0,0.0,0.0,0.0,0.0,0.0,0.0,-1.3447,-1.4922,-1.7451,-1.7725,-1.7803,-1.7988,-1.7832,-1.6699,-1.4233,-1.3154,0.0,0.0,0.0,0.0,0.0,0.0,0.0,0.0,0.0,0.0,0.0,0.0,0.0,0.0,0.0,0.0,0.0,0.0,0.0,0.0,0.0,0.0,0.0,0.0,0.0,0.0,0.0,0.0,0.0,0.0,0.0,0.0,0.0,0.0,0.0,0.0,0.0,0.0,0.0,0.0,0.0,0.0,0.0,0.0,0.0,0.0,0.0,0.0,0.0,0.0,0.0,0.0,0.0,0.0,0.0,0.0,0.0,0.0,0.0,0.0,0.0,0.0,0.0,0.0,0.0,0.0,0.0,0.0,0.0,0.0,0.0,0.0,0.0,0.0,0.0,0.0,0.0,0.0,0.0,0.0,0.0,0.0,0.0,0.0,0.0,0.0,0.0,0.0,0.0,0.0,0.0,0.0,0.0,0.0,0.0,0.0,0.0,0.0,0.0,0.0,0.0,0.0,-1.5381,-1.6533,-1.7871,-1.8008,-1.8008,-1.8008,-1.8008,-1.6894,-1.4243,-1.335,0.0,0.0,0.0,0.0,0.0,0.0,0.0,0.0,0.0,0.0,0.0,0.0,0.0,0.0,0.0,0.0,0.0,0.0,0.0,0.0,0.0,0.0,0.0,0.0,0.0,0.0,0.0,0.0,0.0,0.0,0.0,0.0,0.0,0.0,0.0,0.0,0.0,0.0,0.0,0.0,0.0,0.0,0.0,0.0,0.0,0.0,0.0,0.0,0.0,0.0,0.0,0.0,0.0,0.0,0.0,0.0,0.0,0.0,0.0,0.0,0.0,0.0,0.0,0.0,0.0,0.0,0.0,0.0,0.0,0.0,0.0,0.0,0.0,0.0,0.0,0.0,0.0,0.0,0.0,0.0,0.0,0.0,0.0,0.0,0.0,0.0,0.0,0.0,0.0,0.0,0.0,0.0,0.0,0.0,0.0,0.0,0.0,0.0,0.0,0.0,0.0,0.0,-1.6074,-1.7871,-1.7998,-1.8008,-1.8008,-1.8008,-1.8008,-1.6894,-1.4243,-1.335,0.0,0.0,0.0,0.0,0.0,0.0,0.0,0.0,0.0,0.0,0.0,0.0,0.0,0.0,0.0,0.0,0.0,0.0,0.0,0.0,0.0,0.0,0.0,0.0,0.0,0.0,0.0,0.0,0.0,0.0,0.0,0.0,0.0,0.0,0.0,0.0,0.0,0.0,0.0,0.0,0.0,0.0,0.0,0.0,0.0,0.0,0.0,0.0,0.0,0.0,0.0,0.0,0.0,0.0,0.0,0.0,0.0,0.0,0.0,0.0,0.0,0.0,0.0,0.0,0.0,0.0,0.0,0.0,0.0,0.0,0.0,0.0,0.0,0.0,0.0,0.0,0.0,0.0,0.0,0.0,0.0,0.0,0.0,0.0,0.0,0.0,0.0,0.0,0.0,0.0,0.0,0.0,0.0,0.0,0.0,0.0,0.0,0.0,0.0,0.0,0.0,0.0,-1.5674,-1.7519,-1.832,-1.8643,-1.8809,-1.8809,-1.8555,-1.7295,-1.4707,0.0,0.0,0.0,0.0,0.0,0.0,0.0,0.0,0.0,0.0,0.0,0.0,0.0,0.0,0.0,0.0,0.0,0.0,0.0,0.0,0.0,0.0,0.0,0.0,0.0,0.0,0.0,0.0,0.0,0.0,0.0,0.0,0.0,0.0,0.0,0.0,0.0,0.0,0.0,0.0,0.0,0.0,0.0,0.0,0.0,0.0,0.0,0.0,0.0,0.0,0.0,0.0,0.0,0.0,0.0,0.0,0.0,0.0,0.0,0.0,0.0,0.0,0.0,0.0,0.0,0.0,0.0,0.0,0.0,0.0,0.0,0.0,0.0,0.0,0.0,0.0,0.0,0.0,0.0,0.0,0.0,0.0,0.0,0.0,0.0,0.0,0.0,0.0,0.0,0.0,0.0,0.0,0.0,0.0,0.0,0.0,0.0,0.0,0.0,0.0,0.0,0.0,-1.3711,-1.5918,-1.7658,-1.873,-1.9111,-1.9287,-1.9287,-1.9014,-1.7627,-1.4756,0.0,0.0,0.0,0.0,0.0,0.0,0.0,0.0,0.0,0.0,0.0,0.0,0.0,0.0,0.0,0.0,0.0,0.0,0.0,0.0,0.0,0.0,0.0,0.0,0.0,0.0,0.0,0.0,0.0,0.0,0.0,0.0,0.0,0.0,0.0,0.0,0.0,0.0,0.0,0.0,0.0,0.0,0.0,0.0,0.0,0.0,0.0,0.0,0.0,0.0,0.0,0.0,0.0,0.0,0.0,0.0,0.0,0.0,0.0,0.0,0.0,0.0,0.0,0.0,0.0,0.0,0.0,0.0,0.0,0.0,0.0,0.0,0.0,0.0,0.0,0.0,0.0,0.0,0.0,0.0,0.0,0.0,0.0,0.0,0.0,0.0,0.0,0.0,0.0,0.0,0.0,0.0,0.0,0.0,0.0,0.0,0.0,0.0,0.0,0.0,0.0,0.0,-1.4619,-1.7051,-1.8818,-1.9248,-1.9307,-1.9307,-1.9307,-1.9297,-1.7832,0.0,0.0,0.0,0.0,0.0,0.0,0.0,0.0,0.0,0.0,0.0,0.0,0.0,0.0,0.0,0.0,0.0,0.0,0.0,0.0,0.0,0.0,0.0,0.0,0.0,0.0,0.0,0.0,0.0,0.0,0.0,0.0,0.0,0.0,0.0,0.0,0.0,0.0,0.0,0.0,0.0,0.0,0.0,0.0,0.0,0.0,0.0,0.0,0.0,0.0,0.0,0.0,0.0,0.0,0.0,0.0,0.0,0.0,0.0,0.0,0.0,0.0,0.0,0.0,0.0,0.0,0.0,0.0,0.0,0.0,0.0,0.0,0.0,0.0,0.0,0.0,0.0,0.0,0.0,0.0,0.0,0.0,0.0,0.0,0.0,0.0,0.0,0.0,0.0,0.0,0.0,0.0,0.0,0.0,0.0,0.0,0.0,0.0,0.0,0.0,0.0,0.0,0.0,-1.4658,-1.7568,-1.958,-1.9717,-2.0283,-2.0537,-2.0215,-2.0185,-1.8584,-1.4834,0.0,0.0,0.0,0.0,0.0,0.0,0.0,0.0,0.0,0.0,0.0,0.0,0.0,0.0,0.0,0.0,0.0,0.0,0.0,0.0,0.0,0.0,0.0,0.0,0.0,0.0,0.0,0.0,0.0,0.0,0.0,0.0,0.0,0.0,0.0,0.0,0.0,0.0,0.0,0.0,0.0,0.0,0.0,0.0,0.0,0.0,0.0,0.0,0.0,0.0,0.0,0.0,0.0,0.0,0.0,0.0,0.0,0.0,0.0,0.0,0.0,0.0,0.0,0.0,0.0,0.0,0.0,0.0,0.0,0.0,0.0,0.0,0.0,0.0,0.0,0.0,0.0,0.0,0.0,0.0,0.0,0.0,0.0,0.0,0.0,0.0,0.0,0.0,0.0,0.0,0.0,0.0,0.0,0.0,0.0,0.0,0.0,0.0,0.0,0.0,0.0,0.0,-1.4902,-1.7891,-2.0049,-2.04,-2.0752,-2.0937,-2.084,-2.0664,-1.9209,-1.6025,0.0,0.0,0.0,0.0,0.0,0.0,0.0,0.0,0.0,0.0,0.0,0.0,0.0,0.0,0.0,0.0,0.0,0.0,0.0,0.0,0.0,0.0,0.0,0.0,0.0,0.0,0.0,0.0,0.0,0.0,0.0,0.0,0.0,0.0,0.0,0.0,0.0,0.0,0.0,0.0,0.0,0.0,0.0,0.0,0.0,0.0,0.0,0.0,0.0,0.0,0.0,0.0,0.0,0.0,0.0,0.0,0.0,0.0,0.0,0.0,0.0,0.0,0.0,0.0,0.0,0.0,0.0,0.0,0.0,0.0,0.0,0.0,0.0,0.0,0.0,0.0,0.0,0.0,0.0,0.0,0.0,0.0,0.0,0.0,0.0,0.0,0.0,0.0,0.0,0.0,0.0,0.0,0.0,0.0,0.0,0.0,0.0,0.0,0.0,0.0,0.0,0.0,-1.5312,-1.8144,-2.0361,-2.1211,-2.1006,-2.0957,-2.1318,-2.1016,-1.9834,-1.7445,0.0,0.0,0.0,0.0,0.0,0.0,0.0,0.0,0.0,0.0,0.0,0.0,0.0,0.0,0.0,0.0,0.0,0.0,0.0,0.0,0.0,0.0,0.0,0.0,0.0,0.0,0.0,0.0,0.0,0.0,0.0,0.0,0.0,0.0,0.0,0.0,0.0,0.0,0.0,0.0,0.0,0.0,0.0,0.0,0.0,0.0,0.0,0.0,0.0,0.0,0.0,0.0,0.0,0.0,0.0,0.0,0.0,0.0,0.0,0.0,-1.2275,-1.0576,0.0,0.0,0.0,0.0,0.0,0.0,0.0,0.0,0.0,0.0,0.0,0.0,0.0,0.0,0.0,0.0,0.0,0.0,0.0,0.0,0.0,0.0,0.0,0.0,0.0,0.0,0.0,0.0,0.0,0.0,0.0,0.0,0.0,0.0,0.0,0.0,0.0,0.0,0.0,0.0,-1.5762,-1.8867,-2.1162,-2.1689,-2.2256,-2.249,-2.2266,-2.2451,-2.0899,-1.6848,-1.6178,0.0,0.0,0.0,0.0,0.0,0.0,0.0,0.0,0.0,0.0,0.0,0.0,0.0,0.0,0.0,0.0,0.0,0.0,0.0,0.0,0.0,0.0,0.0,0.0,0.0,0.0,0.0,0.0,0.0,0.0,0.0,0.0,0.0,0.0,0.0,0.0,0.0,0.0,0.0,0.0,0.0,0.0,0.0,0.0,0.0,0.0,0.0,0.0,0.0,0.0,0.0,0.0,0.0,0.0,0.0,0.0,0.0,0.0,0.0,-1.3769,-1.2627,0.0,0.0,0.0,0.0,0.0,0.0,0.0,0.0,0.0,0.0,0.0,0.0,0.0,0.0,0.0,0.0,0.0,0.0,0.0,0.0,0.0,0.0,0.0,0.0,0.0,0.0,0.0,0.0,0.0,0.0,0.0,0.0,0.0,0.0,0.0,0.0,0.0,0.0,0.0,0.0,-1.6533,-1.9893,-2.2324,-2.2754,-2.3008,-2.3135,-2.3125,-2.2949,-2.181,-1.9474,-1.7569,0.0,0.0,0.0,0.0,0.0,0.0,0.0,0.0,0.0,0.0,0.0,0.0,0.0,0.0,0.0,0.0,0.0,0.0,0.0,0.0,0.0,0.0,0.0,0.0,0.0,0.0,0.0,0.0,0.0,0.0,0.0,0.0,0.0,0.0,0.0,0.0,0.0,0.0,0.0,0.0,0.0,0.0,0.0,0.0,0.0,0.0,0.0,0.0,0.0,0.0,0.0,0.0,0.0,-1.418,-1.4668,-1.5361,-1.5703,-1.6504,-1.748,-1.5332,-1.5127,-1.6103,-1.3655,0.0,0.0,0.0,0.0,0.0,0.0,0.0,0.0,0.0,0.0,0.0,0.0,0.0,0.0,0.0,0.0,0.0,0.0,0.0,0.0,0.0,0.0,-1.583,-1.5986,-1.6846,-1.7236,-1.5791,0.0,0.0,0.0,0.0,0.0,0.0,0.0,0.0,0.0,0.0,0.0,-1.7832,-2.1113,-2.3428,-2.3857,-2.3643,-2.3623,-2.3984,-2.3369,-2.2679,-2.2007,-1.9073,-1.6919,0.0,0.0,0.0,0.0,0.0,0.0,0.0,0.0,0.0,0.0,0.0,0.0,0.0,0.0,0.0,0.0,0.0,0.0,0.0,0.0,0.0,0.0,0.0,0.0,0.0,0.0,0.0,0.0,0.0,0.0,0.0,0.0,-1.499,-1.506,0.0,0.0,0.0,0.0,0.0,0.0,0.0,0.0,0.0,0.0,0.0,0.0,0.0,-1.3519,-1.4008,-1.5133,-1.5674,-1.5802,-1.6875,-1.7471,-1.7588,-1.7637,-1.7959,-1.8457,-1.8105,0.0,-1.7178,-1.6777,0.0,0.0,0.0,0.0,0.0,0.0,0.0,0.0,0.0,0.0,0.0,0.0,0.0,0.0,0.0,0.0,0.0,0.0,0.0,0.0,0.0,0.0,-2.0,-2.0762,-2.1084,-2.1143,-2.0918,-1.7617,-1.4727,-1.4805,-1.4814,-1.4141,0.0,0.0,0.0,0.0,0.0,0.0,-2.0312,-2.2471,-2.3867,-2.4287,-2.4619,-2.4834,-2.4893,-2.4795,-2.339,-2.0305,-1.9597,-1.7924,-1.4765,-1.3641,0.0,0.0,0.0,0.0,0.0,0.0,0.0,0.0,0.0,0.0,0.0,0.0,0.0,0.0,0.0,0.0,0.0,0.0,0.0,0.0,0.0,0.0,0.0,0.0,0.0,0.0,0.0,0.0,0.0,-1.4421,-1.4931,-1.6684,-1.5002,-1.3304,0.0,0.0,0.0,0.0,0.0,0.0,0.0,0.0,0.0,-1.5163,-1.5054,-1.5381,-1.6299,-1.6641,-1.6924,-1.7158,-1.7734,-1.8135,-1.8379,-1.8857,-1.9316,-1.9736,-1.998,-2.0029,-1.9785,-1.8086,-1.6602,-1.5274,0.0,0.0,0.0,0.0,-1.3488,-1.3653,-1.4976,-1.5401,-1.5318,-1.4805,0.0,0.0,0.0,0.0,0.0,0.0,0.0,-1.6318,-1.8232,-1.9287,-2.0195,-2.1562,-2.1699,-2.1719,-2.2432,-2.0957,-1.9033,-1.7519,-1.6641,-1.5264,-1.2628,-1.3428,0.0,0.0,0.0,-1.9687,-2.1699,-2.3672,-2.4951,-2.5137,-2.5332,-2.5439,-2.5439,-2.5215,-2.4042,-2.1681,-2.0484,-1.8803,-1.6382,-1.4936,-1.3593,0.0,0.0,0.0,0.0,0.0,0.0,0.0,0.0,0.0,0.0,0.0,0.0,0.0,0.0,0.0,0.0,0.0,0.0,0.0,0.0,0.0,0.0,0.0,0.0,0.0,0.0,0.0,0.0,-1.556,-1.6078,-1.824,-1.6634,-1.4868,0.0,0.0,0.0,0.0,0.0,0.0,-1.5063,-1.4858,-1.5349,-1.6576,-1.6562,-1.708,-1.8154,-1.7861,-1.792,-1.834,-1.834,-1.8496,-1.8828,-1.957,-2.0156,-2.0586,-2.1045,-2.1484,-2.1709,-1.9463,-1.8271,-1.7716,-1.6049,-1.5598,-1.5885,-1.5919,-1.5851,-1.609,-1.7367,-1.7789,-1.7688,-1.7082,-1.7184,-1.722,-1.5508,0.0,0.0,0.0,0.0,-1.7939,-1.9668,-1.9947,-2.0136,-2.152,-2.1692,-2.1787,-2.2713,-2.294,-2.2412,-2.0488,-1.9346,-1.7812,-1.4953,-1.6123,0.0,-1.625,-1.9131,-2.1865,-2.3164,-2.4844,-2.5908,-2.5908,-2.5996,-2.5857,-2.5542,-2.5245,-2.4207,-2.2399,-2.0792,-1.9239,-1.7603,-1.6225,-1.4954,-1.3797,0.0,0.0,0.0,0.0,0.0,0.0,0.0,0.0,0.0,0.0,0.0,0.0,0.0,0.0,0.0,0.0,0.0,0.0,0.0,0.0,0.0,0.0,0.0,0.0,0.0,0.0,0.0,0.0,0.0,-1.9385,-1.852,0.0,0.0,0.0,0.0,-1.4696,-1.5505,-1.606,-1.6058,-1.6348,-1.6982,-1.7881,-1.791,-1.8135,-1.8603,-1.8584,-1.8789,-1.9219,-1.9219,-1.9238,-1.9268,-1.9717,-2.0156,-2.0586,-2.1045,-2.1484,-2.1875,-2.1728,-2.0684,-1.9219,-1.9487,-1.863,-1.748,-1.9049,-1.9642,-1.9827,-2.115,-2.1607,-2.1598,-2.1549,-2.0693,-1.9435,-1.7824,-1.7534,0.0,0.0,-1.8518,-2.0156,-2.1904,-2.1652,-2.115,-2.1643,-2.2113,-2.2375,-2.2438,-2.249,-2.2861,-2.3916,-2.4072,-2.334,-2.1152,0.0,-2.1094,-2.1445,-2.1699,-2.2754,-2.5254,-2.6025,-2.6357,-2.6357,-2.6709,-2.6413,-2.4914,-2.4792,-2.3461,-2.0408,-1.9851,-1.8898,-1.7299,-1.713,-1.6477,-1.5233,-1.464,0.0,0.0,0.0,0.0,0.0,0.0,0.0,0.0,0.0,0.0,0.0,0.0,0.0,0.0,0.0,0.0,0.0,0.0,0.0,0.0,0.0,0.0,0.0,0.0,0.0,0.0,0.0,0.0,-1.8807,-1.8,0.0,-1.6006,-1.6927,-1.7142,-1.6069,-1.71,-1.7876,-1.8115,-1.8027,-1.8223,-1.8809,-1.8838,-1.8906,-1.9053,-1.9053,-1.9131,-1.9287,-1.9287,-1.9434,-1.9707,-2.0137,-2.0732,-2.1435,-2.1875,-2.2295,-2.2695,-2.2695,-2.2002,-2.0887,-2.0353,-2.022,-2.0275,-2.0113,-1.9571,-1.8968,-1.9481,-1.911,-1.8751,-2.0214,-2.0347,-2.0096,-2.057,-2.0822,-2.0835,-2.0407,-2.0639,-2.1112,-2.1098,-2.1322,-2.1624,-2.2119,-2.2128,-2.2182,-2.2676,-2.2838,-2.3028,-2.3818,-2.3563,-2.2773,-2.1465,-2.2607,-2.3291,-2.207,-2.3535,-2.5117,-2.6035,-2.6523,-2.6797,-2.6797,-2.6924,-2.6368,-2.4968,-2.476,-2.3537,-2.055,-2.0128,-1.9281,-1.7729,-1.7729,-1.7439,-1.6789,-1.6585,-1.5147,0.0,0.0,0.0,0.0,0.0,0.0,0.0,0.0,0.0,0.0,0.0,0.0,0.0,0.0,0.0,0.0,0.0,0.0,0.0,0.0,0.0,0.0,0.0,0.0,0.0,-1.7265,-1.7544,-1.8322,-1.8034,-1.7449,-1.6632,-1.7675,-1.8181,-1.7607,-1.8379,-1.8984,-1.9268,-1.9014,-1.8994,-1.9277,-1.9287,-1.9355,-1.9502,-1.9502,-1.9648,-1.9941,-1.9941,-2.0234,-2.0801,-2.1084,-2.1699,-2.2549,-2.2822,-2.3184,-2.3564,-2.3564,-2.2969,-2.1996,-2.1427,-2.1325,-2.1409,-2.0824,-1.9817,-1.8866,-1.9208,-1.9121,-1.905,-2.0766,-2.0994,-2.0718,-2.1566,-2.1784,-2.1626,-2.0941,-2.0994,-2.1327,-2.1094,-2.0982,-2.1052,-2.177,-2.1448,-2.134,-2.2554,-2.309,-2.3709,-2.4627,-2.4183,-2.3467,-2.3047,-2.4385,-2.498,-2.3418,-2.5127,-2.6494,-2.6201,-2.6797,-2.7236,-2.7236,-2.6929,-2.6132,-2.4615,-2.3608,-2.2266,-2.0272,-1.9485,-1.8809,-1.8183,-1.7716,-1.7308,-1.7001,-1.6987,-1.5792,-1.334,0.0,0.0,0.0,0.0,0.0,0.0,0.0,0.0,0.0,0.0,0.0,0.0,0.0,0.0,0.0,0.0,0.0,0.0,0.0,0.0,0.0,0.0,0.0,-1.8483,-1.8995,-1.9031,-1.8233,-1.8763,-1.8989,-1.8369,-1.8486,-1.8828,-1.9258,-1.9297,-1.9307,-1.9307,-1.9307,-1.9316,-1.9346,-1.9346,-1.9561,-1.999,-1.999,-2.043,-2.1289,-2.1289,-2.1738,-2.2549,-2.2549,-2.3008,-2.3809,-2.3809,-2.4043,-2.4414,-2.4322,-2.356,-2.2438,-2.2862,-2.2108,-2.0727,-2.1105,-2.052,-1.9613,-2.0782,-2.1891,-2.2978,-2.3483,-2.2784,-2.1552,-2.0853,-2.0473,-2.0095,-1.8852,-1.9439,-2.0691,-2.1969,-2.0688,-1.9366,-2.0643,-2.0311,-2.0139,-2.1835,-2.3255,-2.472,-2.6506,-2.6139,-2.581,-2.6229,-2.6306,-2.616,-2.5742,-2.6394,0.0,-2.58,-2.6803,-2.7561,-2.7646,-2.6672,-2.5454,-2.39,-2.1337,-1.9798,-1.9408,-1.8016,-1.7609,-1.8484,-1.7134,-1.6233,-1.5932,-1.5872,-1.5698,-1.5398,0.0,0.0,0.0,0.0,0.0,0.0,0.0,0.0,0.0,0.0,0.0,0.0,0.0,0.0,0.0,0.0,0.0,0.0,0.0,0.0,0.0,-1.7445,-1.7829,-1.8216,-1.8077,-1.8051,-1.8353,-1.8137,-1.8068,-1.8497,-1.885,-1.916,-1.9277,-1.957,-1.9746,-1.9746,-1.9746,-2.0039,-2.0684,-2.0703,-2.1055,-2.1787,-2.1797,-2.207,-2.2617,-2.2617,-2.291,-2.3437,-2.3437,-2.373,-2.4248,-2.4248,-2.4307,-2.4322,-2.3364,-2.2699,-2.2398,-2.2555,-2.1733,-2.0508,-2.0617,-1.9892,-1.8662,-1.8178,-1.8178,-1.8669,-1.963,-1.9669,-1.95,-2.0256,-2.0385,-2.0152,-1.9139,-1.9107,-1.926,-1.8993,-1.9228,-1.956,-2.02,-2.0955,-2.1434,-2.104,-2.2168,-2.2942,-2.2396,-2.29,-2.3748,-2.5012,-2.5236,-2.5199,-2.5089,-2.4562,-2.458,-2.5427,-2.5183,-2.5019,-2.5527,-2.5345,-2.4544,-2.3046,-2.2143,-2.103,-1.9543,-1.8985,-1.8871,-1.9118,-1.8731,-1.8377,-1.8076,-1.6807,-1.5905,0.0,0.0,0.0,0.0,0.0,0.0,0.0,0.0,0.0,0.0,0.0,0.0,0.0,0.0,0.0,0.0,0.0,0.0,0.0,0.0,0.0,0.0,-1.8603,-1.885,-1.8396,-1.8175,-1.8217,-1.8522,-1.816,-1.8174,-1.8848,-1.9141,-1.9434,-1.9795,-2.0049,-2.0352,-2.0723,-2.0742,-2.1055,-2.1748,-2.1768,-2.209,-2.2764,-2.2783,-2.2998,-2.3408,-2.3408,-2.373,-2.4316,-2.4131,-2.4394,-2.4961,-2.4775,-2.4795,-2.4866,-2.4088,-2.3103,-2.2082,0.0,0.0,0.0,0.0,-1.8746,-1.8361,-1.7683,-1.7775,-1.8375,-1.9292,-1.9148,-1.888,-1.9805,-1.9645,-1.9097,-1.8592,-1.844,-1.8589,-1.8661,-1.8908,-1.9369,-2.0071,-2.0437,-2.0742,-2.0741,-2.1456,-2.2047,-2.1861,-2.2541,0.0,-2.4283,-2.4792,-2.4948,-2.4787,-2.5138,-2.5263,-2.5137,-2.4928,-2.4657,-2.4433,-2.3844,-2.3078,-2.2213,-2.1048,0.0,0.0,0.0,-1.8564,-1.8444,-1.8437,0.0,0.0,0.0,-1.6593,-1.6874,-1.5899,0.0,0.0,-1.4008,-1.3554,0.0,0.0,0.0,0.0,0.0,0.0,0.0,0.0,0.0,0.0,0.0,0.0,0.0,0.0,0.0,0.0,-1.9527,-2.0134,-1.8968,-1.9052,-1.9117,-1.8742,-1.8799,-1.9023,-1.9463,-1.9502,-1.9844,-2.0654,-2.0713,-2.1074,-2.1914,-2.1953,0.0,0.0,0.0,-2.2881,-2.335,-2.3369,-2.3594,-2.4004,-2.4004,-2.4404,-2.5127,-2.4746,-2.5,-2.5713,-2.5121,-2.516,-2.543,-2.5128,-2.3493,-2.118,-2.0351,-1.9434,-1.8273,-1.7196,-1.7489,-1.8372,-1.8372,0.0,0.0,-2.0472,-1.9783,-1.8862,-1.928,-1.8555,-1.7642,-1.7675,-1.7883,-1.8306,-1.9556,-1.9245,-1.8816,-2.0019,-1.9498,-1.9154,-2.064,-2.1041,-2.1681,-2.2983,-2.3271,-2.3271,-2.3271,-2.4318,-2.5076,-2.4729,-2.6477,-2.7012,-2.4765,-2.5066,-2.5006,-2.3595,-2.2255,0.0,-2.1474,-1.9238,-1.8374,-1.9299,-1.837,-1.7669,-1.7408,-1.7402,-1.7402,-1.7402,-1.7141,-1.7655,-1.8971,-1.8718,-1.8591,-1.851,-1.5304,-1.4643,0.0,0.0,0.0,0.0,0.0,0.0,0.0,0.0,0.0,0.0,0.0,0.0,0.0,0.0,0.0,-1.8913,-1.9624,-2.0098,-2.0232,-2.0269,-2.0058,-1.9238,-1.9775,-2.0371,-2.082,-2.0859,-2.1074,-2.1592,-2.1631,-2.1855,-2.2363,-2.2393,-2.2744,-2.3516,-2.3545,-2.3906,-2.4687,-2.4697,-2.4922,-2.5361,-2.5361,0.0,-2.5605,-2.5518,-2.5576,-2.5635,-2.4515,-2.4024,-2.3899,-2.1659,-1.9826,-1.8387,-1.8164,-1.8019,-1.7714,-1.7513,-1.7617,-1.7818,-1.7818,-1.7915,-1.813,-1.8185,-1.8109,-1.7969,-1.8177,-1.8171,0.0,-1.8243,-1.8357,-1.8514,-1.8727,-1.8665,-1.8655,-1.9108,-1.992,-2.0439,-1.988,-2.0723,-2.1292,-2.0472,-2.0263,-2.0263,-2.0263,-2.2437,-2.403,-2.3955,-2.4395,-2.4105,-2.2409,-2.2398,-2.2042,-2.1073,-2.0691,-2.0582,-2.0582,-2.0034,-1.9686,-1.9435,-1.9152,-1.8998,-1.8945,-1.8938,-1.8938,-1.8938,-1.8885,-1.8998,-1.9279,-1.9225,-1.9199,-1.9172,-1.8009,-1.7655,0.0,0.0,0.0,0.0,0.0,0.0,0.0,0.0,0.0,0.0,0.0,-1.6248,-1.8065,0.0,-1.8682,-1.9756,-2.0293,-2.0576,-2.0566,-2.1123,-2.1221,-2.0361,-2.0644,-2.1074,-2.1523,-2.1562,-2.1738,-2.2168,-2.2393,-2.2695,-2.3125,-2.335,-2.376,-2.4414,-2.4434,-2.4746,-2.54,-2.54,-2.5518,-2.5742,-2.5742,-2.5742,-2.5635,-2.502,-2.4716,-2.4609,-2.3276,-2.2667,-2.2567,-2.0444,-1.922,-1.852,-1.7962,-1.7716,-1.7582,-1.7582,-1.7682,-1.7816,-1.7816,-1.7909,-1.8036,-1.8036,-1.8036,-1.8063,-1.8223,-1.827,-1.8297,-1.845,-1.8597,-1.8704,-1.8704,-1.8818,-1.8965,-1.9112,-1.9697,-2.0067,-1.9557,-2.004,-2.0256,-1.9591,-1.9366,-1.9591,-2.0364,-2.1707,-2.2702,-2.2702,-2.3375,-2.3263,-2.1805,-2.1586,-2.1126,-1.9935,-1.9794,-1.9794,-1.9794,-1.9794,-1.9707,-1.9461,-1.9366,-1.9366,-1.9366,-1.9366,-1.9366,-1.9366,-1.9366,-1.9366,-1.9366,-1.9366,-1.9366,-1.9359,-1.9065,-1.8931,0.0,0.0,0.0,0.0,0.0,0.0,0.0,-1.4766,-1.5352,-1.7012,-1.7353,-1.7803,-1.9268,-1.9609,-1.9893,-2.0586,-2.1074,-2.1269,-2.0977,-2.1846,-2.2285,-2.168,-2.1602,-2.1738,-2.21,-2.2207,-2.2393,-2.2734,-2.3154,-2.3574,-2.4014,-2.4355,-2.4746,-2.5185,-2.5195,-2.5371,-2.5732,-2.5742,-2.5742,-2.5742,-2.5742,-2.5742,-2.5635,-2.4304,-2.3692,-2.3583,-2.1954,-2.1183,-2.0838,-1.9725,-1.936,-1.9335,-1.8454,-1.7976,-1.7762,-1.7762,-1.7916,-1.813,-1.813,-1.829,-1.849,-1.849,-1.849,-1.8504,-1.8557,-1.8577,-1.8591,-1.8644,-1.8831,-1.9011,-1.9011,-1.9185,-1.9366,-1.9366,-1.9366,-1.9366,-1.9366,-1.9366,-1.9366,-1.9366,-1.9366,-1.9815,-2.0923,-2.1137,-2.1252,-2.1586,-2.2814,-2.3151,-2.1365,-2.1472,-2.1031,-1.9591,-1.9366,-1.9366,-1.9366,-1.9366,-1.9366,-1.9366,-1.9366,-1.9366,-1.9366,-1.9366,-1.9366,-1.9366,-1.9366,-1.9366,-1.9366,-1.9366,-1.9366,-1.9366,-1.9366,-1.9366,-1.6241,-1.5668,-1.5322,-1.6023,-1.5967,-1.6221,0.0,-1.8086,-1.7949,-1.9287,-1.9551,-1.9736,-2.0312,-2.0752,-2.1045,-2.1143,-2.1523,-2.1924,-2.2246,-2.2422,-2.2617,-2.2891,-2.293,-2.2939,-2.2998,-2.335,-2.3603,-2.3643,-2.4043,-2.4463,-2.4902,-2.4971,-2.5195,-2.5644,-2.5664,-2.5684,-2.5742,-2.5742,-2.5742,-2.5742,-2.5742,-2.5742,-2.5635,-2.4304,-2.3692,-2.3592,-2.0947,-1.9284,-1.8413,-1.8198,-1.836,-1.8611,-1.8534,-1.8424,-1.839,-1.839,-1.841,-1.8444,-1.8444,-1.8464,-1.849,-1.849,-1.849,-1.8537,-1.8798,-1.8878,-1.8931,-1.9199,-1.9292,-1.9319,-1.9319,-1.9339,-1.9366,-1.9366,-1.9366,-1.9366,-1.9366,-1.9366,-1.9366,-1.9366,-1.9366,-1.9482,-1.9591,-1.9707,-2.0148,-2.1365,-2.2814,-2.2822,-2.004,-2.0816,-2.1031,-1.9591,-1.9366,-1.9366,-1.9366,-1.9366,-1.9366,-1.9366,-1.9366,-1.9366,-1.9366,-1.9366,-1.9366,-1.9366,-1.9366,-1.9366,-1.9366,-1.9366,-1.9366,-1.9366,-1.9366,-1.9366,-1.7666,-1.7514,-1.7342,-1.7695,-1.7891,-1.8174,-1.9082,-1.9199,-1.9336,-2.0127,-2.0293,-2.0352,-2.0527,-2.0937,-2.123,-2.123,-2.1807,-2.2314,-2.249,-2.2725,-2.2939,-2.3115,-2.3359,-2.3516,-2.3516,-2.3682,-2.3896,-2.4141,-2.4551,-2.4873,-2.5059,-2.5312,-2.5547,-2.5732,-2.5742,-2.5742,-2.5742,-2.5742,-2.5742,-2.5742,-2.5742,-2.5323,-2.452,-2.3322,-2.1993,-2.0643,-1.9672,-1.8975,-1.8571,-1.8744,-1.8891,-1.9005,-1.9005,-1.9005,-1.8958,-1.8617,-1.8597,-1.8744,-1.8744,-1.8851,-1.9005,-1.9005,-1.9005,-1.9025,-1.9145,-1.9185,-1.9205,-1.9332,-1.9366,-1.9366,-1.9366,-1.9366,-1.9366,-1.9366,-1.9366,-1.9366,-1.9366,-1.9366,-1.9366,-1.9366,-1.9366,-1.9366,-1.9366,-1.9366,-1.9591,-2.0263,-2.0816,-2.0823,-1.9591,-1.9924,-2.0033,-1.9482,-1.9366,-1.9366,-1.9366,-1.9366,-1.9366,-1.9366,-1.9366,-1.9366,-1.9366,-1.9366,-1.9366,-1.9366,-1.9366,-1.9366,-1.9366,-1.9366,-1.9366,-1.9366,-1.9366,-1.9366,-1.834,-1.8514,-1.8635,-1.8769,-1.9141,-1.9492,-1.9609,-1.9873,-2.0185,-2.0498,-2.0566,-2.0605,-2.0732,-2.1113,-2.1455,-2.1562,-2.2207,-2.2685,-2.2685,-2.2949,-2.3184,-2.3301,-2.3594,-2.3887,-2.4121,-2.4141,-2.4268,-2.457,-2.5,-2.5254,-2.5254,-2.5557,-2.5742,-2.5742,-2.5742,-2.5742,-2.5742,-2.5742,-2.5742,-2.5742,-2.5859,-2.5398,-2.4389,-2.3031,-2.1071,-1.8631,-1.8918,-1.9092,-1.9185,-1.9399,-1.9533,-1.9606,-1.9606,-1.9606,-1.9553,-1.9125,-1.9005,-1.9045,-1.9045,-1.9185,-1.9366,-1.9366,-1.9366,-1.9366,-1.9366,-1.9366,-1.9366,-1.9366,-1.9366,-1.9366,-1.9366,-1.9366,-1.9366,-1.9366,-1.9366,-1.9366,-1.9366,-1.9366,-1.9366,-1.9366,-1.9366,-1.9366,-1.9366,-1.9366,-1.9366,-1.9366,-1.9366,-1.9366,-1.9366,-1.9366,-1.9366,-1.9366,-1.9366,-1.9366,-1.9366,-1.9366,-1.9366,-1.9366,-1.9366,-1.9366,-1.9366,-1.9366,-1.9366,-1.9366,-1.9366,-1.9366,-1.9366,-1.9366,-1.9406,-1.9486,-1.9486,-1.9533,-1.8313,-1.8322,-1.8741,-1.9151,-1.958,-2.0,-2.043,-2.0537,-2.0547,-2.0566,-2.0566,-2.0703,-2.1133,-2.1572,-2.2002,-2.2412,-2.2832,-2.3125,-2.3125,-2.3135,-2.3301,-2.3721,-2.3779,-2.4111,-2.4951,-2.5029,-2.5039,-2.5049,-2.5459,-2.5713,-2.5713,-2.5732,-2.5742,-2.5742,-2.5742,-2.5742,-2.5742,-2.5742,-2.5742,-2.5742,-2.6162,-2.6367,-2.6287,-2.4121,-2.1631,-1.8925,-1.9225,-1.9512,-1.9773,-1.978,-1.9953,-2.0207,-2.0207,-2.0207,-2.0201,-2.0187,-1.9826,-1.9352,-1.9352,-1.9359,-1.9366,-1.9366,-1.9366,-1.9366,-1.9366,-1.9366,-1.9366,-1.9366,-1.9366,-1.9366,-1.9366,-1.9366,-1.9366,-1.9366,-1.9366,-1.9366,-1.9366,-1.9366,-1.9366,-1.9366,-1.9366,-1.9366,-1.9366,-1.9366,-1.9366,-1.9366,-1.9366,-1.9366,-1.9366,-1.9366,-1.9366,-1.9366,-1.9366,-1.9366,-1.9366,-1.9366,-1.9366,-1.9366,-1.9366,-1.9366,-1.9366,-1.9366,-1.9366,-1.9366,-1.9366,-1.9366,-1.9366,-1.9366,-1.9512,-1.9786,-1.9786,-1.994,-1.9053,-1.9173,-1.9554,-2.0051,-2.0244,-2.0381,-2.0527,-2.0566,-2.0566,-2.0566,-2.0566,-2.0605,-2.0762,-2.1387,-2.1934,-2.207,-2.2685,-2.3135,-2.3135,-2.3135,-2.3301,-2.374,-2.4033,-2.4434,-2.501,-2.5068,-2.5195,-2.5488,-2.5654,-2.5742,-2.5742,-2.5742,-2.5742,-2.5742,-2.5742,-2.5879,-2.6172,-2.6172,-2.6455,-2.7021,-2.6589,-2.5836,-2.4985,-2.3328,-2.1524,-1.9806,-2.0107,-2.0287,-2.0394,-2.0588,-2.0728,-2.0795,-2.0601,-2.0528,-2.0501,-2.0307,-2.0107,-1.9913,-1.972,-1.9659,-1.9626,-1.9432,-1.9366,-1.9366,-1.9366,-1.9366,-1.9366,-1.9366,-1.9366,-1.9366,-1.9366,-1.9366,-1.9366,-1.9366,-1.9366,-1.9366,-1.9366,-1.9366,-1.9366,-1.9366,-1.9366,-1.9366,-1.9366,-1.9366,-1.9366,-1.9366,-1.9366,-1.9366,-1.9366,-1.9366,-1.9366,-1.9366,-1.9366,-1.9366,-1.9366,-1.9366,-1.9366,-1.9366,-1.9366,-1.9366,-1.9366,-1.9366,-1.9366,-1.9366,-1.9366,-1.9366,-1.9366,-1.9559,-1.9706,-1.9806,-2.0,-2.014,-1.961,-1.9726,-2.0033,-2.0459,-2.0566,-2.0566,-2.0566,-2.0566,-2.0605,-2.0771,-2.0557,-2.0478,-2.0947,-2.1377,-2.1807,-2.2266,-2.3047,-2.3545,-2.3389,-2.3633,-2.3877,-2.4004,-2.4385,-2.4824,-2.5264,-2.5303,-2.543,-2.5713,-2.5742,-2.5742,-2.5742,-2.5742,-2.5742,-2.5742,-2.5742,-2.5947,-2.6387,-2.6533,-2.6801,-2.7242,-2.6053,-2.4904,-2.3657,-2.2841,-2.1723,-2.0408,-2.0702,-2.0828,-2.0848,-2.1036,-2.1109,-2.1089,-2.0902,-2.0828,-2.0808,-2.0615,-2.0548,-2.0488,-2.0094,-1.9887,-1.9766,-1.9586,-1.9452,-1.9366,-1.9366,-1.9366,-1.9366,-1.9366,-1.9366,-1.9366,-1.9366,-1.9366,-1.9366,-1.9366,-1.9366,-1.9366,-1.9366,-1.9366,-1.9366,-1.9366,-1.9366,-1.9366,-1.9366,-1.9366,-1.9366,-1.9366,-1.9452,-1.9486,-1.9379,-1.9366,-1.9366,-1.9366,-1.9366,-1.9366,-1.9366,-1.9366,-1.9366,-1.9366,-1.9366,-1.9366,-1.9366,-1.9366,-1.9366,-1.9366,-1.9466,-1.9519,-1.9519,-1.9813,-2.0007,-2.012,-2.0307,-2.0448,-1.9916,-1.9936,-2.0042,-2.0459,-2.0566,-2.0566,-2.0566,-2.0566,-2.0684,-2.1084,-2.0498,-2.0293,-2.1523,-2.1465,-2.1641,-2.2861,-2.3789,-2.4219,-2.3838,-2.4482,-2.4863,-2.4492,-2.4814,-2.5244,-2.5693,-2.5742,-2.5742,-2.5742,-2.5742,-2.5742,-2.5742,-2.5742,-2.5752,-2.5771,-2.5771,-2.6006,-2.6484,-2.6841,-2.692,-2.6498,-2.4906,-2.3605,-2.2535,-2.2847,-2.214,-2.0715,-2.0989,-2.1109,-2.1109,-2.1109,-2.1109,-2.1109,-2.1109,-2.1109,-2.1109,-2.1109,-2.1109,-2.1029,-2.0468,-2.008,-1.982,-1.9806,-1.9606,-1.9366,-1.9366,-1.9366,-1.9366,-1.9366,-1.9366,-1.9366,-1.9366,-1.9366,-1.9366,-1.9366,-1.9366,-1.9366,-1.9366,-1.9366,-1.9366,-1.9366,-1.9366,-1.9366,-1.9366,-1.9379,-1.9392,-1.9392,-1.9639,-1.972,-1.9426,-1.9392,-1.9399,-1.9412,-1.9386,-1.9372,-1.9392,-1.9372,-1.9366,-1.9366,-1.9379,-1.9392,-1.9392,-1.9406,-1.9412,-1.9412,-1.9679,-1.982,-1.982,-2.0114,-2.0401,-2.0675,-2.0688,-2.0848,-2.012,-2.0149,-2.045,-2.0557,-2.0566,-2.0566,-2.0566,-2.0566,-2.0508,-2.0293,-2.0068,-1.9922,-1.9941,-2.0654,-2.1338,-2.167,-2.2705,-2.3545,-2.376,-2.3975,-2.4316,-2.4844,-2.5,-2.5244,-2.5693,-2.5742,-2.5742,-2.5742,-2.5742,-2.5742,-2.5742,-2.5742,-2.5889,-2.6211,-2.6221,-2.6728,-2.7793,-2.7612,-2.7587,-2.7427,-2.616,-2.4787,-2.3327,-2.3409,-2.2594,-2.1002,-2.1076,-2.1109,-2.1109,-2.1109,-2.1109,-2.1109,-2.1109,-2.1109,-2.1109,-2.1109,-2.1109,-2.1089,-2.0935,-2.0548,-2.0087,-1.9867,-1.9606,-1.9366,-1.9366,-1.9366,-1.9366,-1.9366,-1.9366,-1.9366,-1.9366,-1.9366,-1.9366,-1.9366,-1.9366,-1.9366,-1.9366,-1.9366,-1.9366,-1.9366,-1.9366,-1.9366,-1.9366,-1.9546,-1.9686,-1.9686,-1.994,-2.0013,-1.9726,-1.9686,-1.9773,-1.9987,-1.9626,-1.9452,-1.9673,-1.9492,-1.9366,-1.9366,-1.9573,-1.9686,-1.9686,-1.99,-2.0013,-2.0013,-2.0087,-2.012,-2.0127,-2.0421,-2.0601,-2.0681,-2.0895,-2.1036,-2.0256,-2.044,-2.0566,-2.0566,-2.0566,-2.0518,-2.0322,-2.0283,-2.0215,-1.9961,-1.9619,-1.936,-1.9493,-2.0333,-2.1094,-2.1419,-2.2882,-2.4004,-2.4062,-2.456,-2.4961,-2.5059,-2.5244,-2.5459,-2.5713,-2.5908,-2.6025,-2.6025,-2.585,-2.582,-2.6016,-2.6025,-2.6221,-2.665,-2.6846,-2.7236,-2.7814,-2.7053,-2.6482,-2.5944,-2.4561,-2.3435,-2.2466,-2.2466,-2.1971,-2.1109,-2.1109,-2.1109,-2.1109,-2.1109,-2.1109,-2.1109,-2.1109,-2.1109,-2.1109,-2.1109,-2.1109,-2.1109,-2.1109,-2.0808,-2.0401,-2.0234,-1.9987,-1.9726,-1.9593,-1.9559,-1.9533,-1.9406,-1.9366,-1.9366,-1.9366,-1.9366,-1.9399,-1.9526,-1.9559,-1.9559,-1.9559,-1.9559,-1.9559,-1.9559,-1.9452,-1.9406,-1.9539,-1.9693,-1.98,-1.98,-2.016,-2.0368,-2.0207,-2.0074,-2.0054,-2.0214,-1.9826,-1.9626,-1.9786,-1.9653,-1.9559,-1.9559,-1.9826,-1.9993,-1.9993,-2.0147,-2.0234,-2.0234,-2.0361,-2.0428,-2.0428,-2.0722,-2.0869,-2.0869,-2.1036,-2.1109,-2.0459,-2.0566,-2.0566,-2.0566,-2.0566,-2.0449,-2.0,-1.9902,-1.9883,-1.9766,-1.9097,-1.8802,-1.9525,-2.0109,-2.0742,-2.1617,-2.3464,-2.4672,-2.4463,-2.5449,-2.5947,-2.5244,-2.5508,-2.5762,-2.582,-2.6162,-2.6406,-2.6465,-2.6123,-2.6074,-2.6455,-2.6475,-2.6579,-2.685,-2.739,-2.7413,-2.684,-2.5687,-2.4601,-2.3574,-2.1846,-2.1109,-2.1109,-2.1109,-2.1109,-2.1109,-2.1109,-2.1109,-2.1109,-2.1109,-2.1109,-2.1109,-2.1109,-2.1109,-2.1109,-2.1109,-2.1109,-2.1109,-2.1109,-2.0942,-2.0728,-2.0688,-2.0474,-2.0187,-1.9933,-1.986,-1.9806,-1.9553,-1.9486,-1.9486,-1.9486,-1.9486,-1.9546,-1.98,-1.986,-1.986,-1.986,-1.986,-1.9846,-1.9806,-1.9626,-1.9539,-1.9713,-1.9806,-1.986,-1.986,-2.0327,-2.0688,-2.0728,-2.0474,-2.0307,-2.0347,-2.0087,-1.9933,-1.9973,-1.994,-1.992,-1.992,-2.0154,-2.0294,-2.0294,-2.0327,-2.0347,-2.0347,-2.0601,-2.0735,-2.0735,-2.0989,-2.1109,-2.1109,-2.1109,-2.1109,-2.0557,-2.0566,-2.0566,-2.0566,-2.0566,-2.0507,-1.9997,-1.9938,-1.9717,-1.9004,-1.8747,-1.856,-1.8327,-1.9004,-1.9815,-2.0694,-2.2013,-2.3284,-2.4273,-2.4922,-2.5381,-2.5596,-2.5693,-2.5879,-2.624,-2.6338,-2.6533,-2.6875,-2.6836,-2.6826,-2.6904,-2.6904,-2.6616,-2.6153,-2.7222,-2.7044,-2.5577,-2.4519,-2.3762,-2.3574,-2.1846,-2.1109,-2.1109,-2.1109,-2.1109,-2.1109,-2.1109,-2.1109,-2.1109,-2.1109,-2.1109,-2.1109,-2.1109,-2.1109,-2.1109,-2.1109,-2.1109,-2.1109,-2.1109,-2.1076,-2.0995,-2.0755,-2.0474,-2.0221,-2.0174,-2.0154,-2.0147,-2.0094,-2.008,-2.008,-2.008,-2.008,-2.0094,-2.0147,-2.0154,-2.0154,-2.0154,-2.0154,-2.0087,-1.9846,-1.9953,-1.9947,-1.9512,-1.984,-2.0154,-2.0154,-2.0454,-2.0762,-2.1002,-2.0782,-2.0695,-2.0929,-2.0695,-2.0621,-2.0862,-2.0661,-2.0521,-2.0521,-2.0568,-2.0601,-2.0601,-2.0828,-2.0955,-2.0955,-2.1009,-2.1036,-2.1036,-2.1082,-2.1109,-2.1109,-2.1109,-2.1109,-2.0566,-2.0566,-2.0566,-2.0566,-2.0566,-2.041,-1.9759,-1.9409,-1.9081,-1.8408,-1.8135,-1.7978,-1.8008,-1.8741,-1.9502,-2.0156,-2.152,-2.2867,-2.3942,-2.4706,-2.5247,-2.5606,-2.5878,-2.6131,-2.6336,-2.6816,-2.7139,-2.7344,-2.7559,-2.7588,-2.7363,-2.7764,-2.7615,-2.6956,-2.7418,-2.6745,-2.4405,-2.3855,-2.3201,-2.2348,-2.1481,-2.1109,-2.1109,-2.1109,-2.1109,-2.1109,-2.1109,-2.1109,-2.1109,-2.1109,-2.1109,-2.1109,-2.1109,-2.1109,-2.1109,-2.1109,-2.1109,-2.1109,-2.1109,-2.1109,-2.1089,-2.0949,-2.0802,-2.0661,-2.0508,-2.0461,-2.0434,-2.0274,-2.0234,-2.0234,-2.0234,-2.0234,-2.0274,-2.0428,-2.0461,-2.0461,-2.0461,-2.0341,-2.0234,-2.0254,-2.0241,-2.0194,-2.0067,-2.0281,-2.0461,-2.0461,-2.0715,-2.0949,-2.1089,-2.0989,-2.1015,-2.1309,-2.1076,-2.1022,-2.1316,-2.1069,-2.0902,-2.0902,-2.0902,-2.0902,-2.0902,-2.1036,-2.1109,-2.1109,-2.1109,-2.1109,-2.1109,-2.1109,-2.1109,-2.1109,-2.1109,-2.1109,-2.0557,-2.0566,-2.0566,-2.0566,-2.0566,-2.0352,-1.9516,-1.8936,-1.8427,-1.7957,-1.7615,-1.748,-1.7833,-1.8476,-1.9213,-1.9787,-2.1113,-2.2476,-2.361,-2.4469,-2.5111,-2.5625,-2.6123,-2.6445,-2.6511,-2.7236,-2.778,-2.7793,-2.7863,-2.795,-2.7949,-2.8394,-2.823,-2.7337,-2.709,-2.5712,-2.3076,-2.3084,-2.2341,-2.1109,-2.1109,-2.1109,-2.1109,-2.1109,-2.1109,-2.1109,-2.1109,-2.1109,-2.1109,-2.1109,-2.1109,-2.1109,-2.1109,-2.1109,-2.1109,-2.1109,-2.1109,-2.1109,-2.1109,-2.1109,-2.1109,-2.1109,-2.1109,-2.1069,-2.0842,-2.0768,-2.0722,-2.0488,-2.0421,-2.0421,-2.0421,-2.0421,-2.0481,-2.0715,-2.0768,-2.0768,-2.0768,-2.0588,-2.0468,-2.0641,-2.0535,-2.0454,-2.0561,-2.0635,-2.0675,-2.0675,-2.0869,-2.1042,-2.1102,-2.1109,-2.1243,-2.1603,-2.1436,-2.1416,-2.1717,-2.147,-2.1296,-2.1296,-2.1176,-2.1109,-2.1109,-2.1109,-2.1109,-2.1109,-2.1109,-2.1109,-2.1109,-2.1109,-2.1109,-2.1109,-2.1109,-2.1109,-2.0459,-2.0566,-2.0566,-2.0566,-2.0566,-2.0343,-1.9474,-1.8923,-1.8345,-1.762,-1.7432,-1.7407,-1.7455,-1.7833,-1.8476,-1.9687,-2.038,-2.1487,-2.3533,-2.4208,-2.4733,-2.5616,-2.6074,-2.6527,-2.6904,-2.7398,-2.7819,-2.8203,-2.7278,-2.7271,-2.869,-2.8229,-2.7158,-2.555,-2.4574,-2.3171,-2.1355,-2.1355,-2.1229,-2.1109,-2.1109,-2.1109,-2.1109,-2.1109,-2.1109,-2.1109,-2.1109,-2.1109,-2.1109,-2.1109,-2.1109,-2.1109,-2.1109,-2.1109,-2.1109,-2.1109,-2.1109,-2.1109,-2.1109,-2.1109,-2.1109,-2.1109,-2.1109,-2.1109,-2.1076,-2.1069,-2.1062,-2.1036,-2.1029,-2.1029,-2.1029,-2.1029,-2.1036,-2.1062,-2.1069,-2.1069,-2.1069,-2.1049,-2.0962,-2.0722,-2.0869,-2.0869,-2.0361,-2.0501,-2.0675,-2.0675,-2.0702,-2.0808,-2.1076,-2.1109,-2.1323,-2.1884,-2.1924,-2.2024,-2.2311,-2.2071,-2.1904,-2.1904,-2.1403,-2.1109,-2.1109,-2.1109,-2.1109,-2.1109,-2.1109,-2.1109,-2.1109,-2.1109,-2.1109,-2.1109,-2.1109,-2.1109,-2.0478,-2.0566,-2.0566,-2.0566,-2.0362,-2.0033,-1.9434,-1.8759,-1.8182,-1.7846,-1.755,-1.7463,-1.7726,-1.791,-1.8368,-1.939,-1.9929,-2.0791,-2.2463,-2.3496,-2.4347,-2.5237,-2.6152,-2.6953,-2.7369,-2.7756,-2.7757,-2.7027,-2.6855,-2.6703,-2.653,-2.6347,-2.5666,-2.433,-2.387,-2.2834,-2.1109,-2.1109,-2.1109,-2.1109,-2.1109,-2.1109,-2.1109,-2.1109,-2.1109,-2.1109,-2.1109,-2.1109,-2.1109,-2.1109,-2.1109,-2.1109,-2.1109,-2.1109,-2.1109,-2.1109,-2.1109,-2.1109,-2.1109,-2.1109,-2.1109,-2.1109,-2.1109,-2.1109,-2.1109,-2.1109,-2.1109,-2.1109,-2.1109,-2.1109,-2.1109,-2.1109,-2.1109,-2.1109,-2.1109,-2.1109,-2.1109,-2.1109,-2.1076,-2.0955,-2.1029,-2.1036,-2.0802,-2.0855,-2.0935,-2.0935,-2.0935,-2.0982,-2.1096,-2.1109,-2.1336,-2.1924,-2.1984,-2.2178,-2.2645,-2.2412,-2.2171,-2.1997,-2.1603,-2.1296,-2.1116,-2.1109,-2.1109,-2.1109,-2.1109,-2.1109,-2.1109,-2.1289,-2.1376,-2.1376,-2.1557,-2.1637,-2.0775,-2.0789,-2.0566,-2.0566,-2.0246,-1.9802,-1.941,-1.8595,-1.7998,-1.7833,-1.7571,-1.7507,-1.7782,-1.792,-1.8203,-1.8947,-1.9443,-2.0236,-2.17,-2.2781,-2.3746,-2.4745,-2.5925,-2.6832,-2.7313,-2.7873,-2.7726,-2.6264,-2.6301,-2.576,-2.4315,-2.4118,-2.3917,-2.3566,-2.3084,-2.2341,-2.1109,-2.1109,-2.1109,-2.1109,-2.1109,-2.1109,-2.1109,-2.1109,-2.1109,-2.1109,-2.1109,-2.1109,-2.1109,-2.1109,-2.1109,-2.1109,-2.1109,-2.1109,-2.1109,-2.1109,-2.1109,-2.1109,-2.1109,-2.1109,-2.1109,-2.1109,-2.1109,-2.1109,-2.1109,-2.1109,-2.1109,-2.1109,-2.1109,-2.1109,-2.1109,-2.1109,-2.1109,-2.1109,-2.1109,-2.1109,-2.1109,-2.1109,-2.1109,-2.1109,-2.1109,-2.1109,-2.1109,-2.1109,-2.1109,-2.1109,-2.1109,-2.1109,-2.1109,-2.1109,-2.1336,-2.1924,-2.1984,-2.2225,-2.2812,-2.2585,-2.2298,-2.2004,-2.171,-2.1423,-2.1122,-2.1109,-2.1149,-2.1236,-2.1156,-2.1156,-2.1243,-2.145,-2.155,-2.1563,-2.185,-2.1984,-2.1497,-2.1298,-2.0566,-2.0566,-2.0246,-1.9802,-1.9373,-1.8652,-1.791,-1.7474,-1.7395,-1.7415,-1.7417,-1.7736,-1.8115,-1.8554,-1.8969,-1.9927,-2.17,-2.2273,-2.3,-2.422,-2.5209,-2.5898,-2.6338,-2.7573,-2.7718,-2.6203,-2.5235,-2.4031,-2.2541,-2.1628,-2.1846,-2.3574,-2.1971,-2.1109,-2.1109,-2.1109,-2.1109,-2.1109,-2.1109,-2.1109,-2.1109,-2.1109,-2.1109,-2.1109,-2.1109,-2.1109,-2.1109,-2.1109,-2.1109,-2.1109,-2.1109,-2.1109,-2.1109,-2.1109,-2.1109,-2.1109,-2.1109,-2.1109,-2.1109,-2.1109,-2.1109,-2.1109,-2.1109,-2.1109,-2.1109,-2.1109,-2.1109,-2.1109,-2.1109,-2.1109,-2.1109,-2.1109,-2.1109,-2.1109,-2.1109,-2.1109,-2.1109,-2.1109,-2.1109,-2.1109,-2.1109,-2.1109,-2.1109,-2.1109,-2.1109,-2.1109,-2.1109,-2.1109,-2.1336,-2.1924,-2.1984,-2.2225,-2.2812,-2.2585,-2.2298,-2.2004,-2.171,-2.1423,-2.1122,-2.1109,-2.1249,-2.1543,-2.1263,-2.1256,-2.155,-2.155,-2.155,-2.1563,-2.185,-2.1984,-2.0576,-2.037,-1.9705,-1.9705,-1.9353,-1.8995,-1.8834,-1.8193,-1.7561,-1.7464,-1.7397,-1.7373,-1.7378,-1.7736,-1.83,-1.9312,-1.9604,-2.0214,-2.1655,-2.3012,-2.4029,-2.4806,-2.641,-2.7548,-2.7631,-2.8019,-2.7292,-2.4703,-2.4684,-2.3573,-2.1054,-2.099,-2.1355,-2.1846,-2.1355,-2.1109,-2.1109,-2.1109,-2.1109,-2.1109,-2.1109,-2.1109,-2.1109,-2.1109,-2.1109,-2.1109,-2.1109,-2.1109,-2.1109,-2.1109,-2.1109,-2.1109,-2.1109,-2.1109,-2.1109,-2.1109,-2.1109,-2.1109,-2.1109,-2.1109,-2.1109,-2.1109,-2.1109,-2.1109,-2.1109,-2.1109,-2.1109,-2.1109,-2.1109,-2.1109,-2.1109,-2.1109,-2.1109,-2.1109,-2.1109,-2.1109,-2.1109,-2.1109,-2.1109,-2.1109,-2.1109,-2.1109,-2.1109,-2.1109,-2.1109,-2.1109,-2.1109,-2.1109,-2.1109,-2.1109,-2.1336,-2.1924,-2.1984,-2.2225,-2.2812,-2.2779,-2.2512,-2.2017,-2.1897,-2.1623,-2.1129,-2.1109,-2.1156,-2.1249,-2.1156,-2.1156,-2.1249,-2.1456,-2.1757,-2.2151,-2.2238,-2.2392,-1.9869,-1.9889,-1.928,-1.928,-1.8956,-1.8562,-1.838,-1.7842,-1.7379,-1.7168,-1.7125,-1.7142,-1.7167,-1.7377,-1.7833,-1.8829,-1.9203,-2.0014,-2.1698,-2.3043,-2.4346,-2.5446,-2.6863,-2.7829,-2.8048,-2.7718,-2.6463,-2.402,-2.3779,-2.2704,-2.0378,-2.0638,-2.0969,-2.1109,-2.1109,-2.1109,-2.1109,-2.1109,-2.1109,-2.1109,-2.1109,-2.1109,-2.1109,-2.1109,-2.1109,-2.1109,-2.1109,-2.1109,0.0,-2.1109,-2.1109,-2.1109,-2.1109,-2.1109,-2.1109,-2.1109,-2.1109,-2.1109,-2.1109,-2.1109,-2.1109,-2.1109,-2.1109,-2.1109,-2.1109,-2.1109,-2.1109,-2.1109,-2.1109,-2.1109,-2.1109,-2.1109,-2.1109,-2.1109,-2.1109,-2.1109,-2.1109,-2.1109,-2.1109,-2.1109,-2.1109,-2.1109,-2.1109,-2.1109,-2.1109,-2.1109,-2.1109,-2.1109,-2.1109,-2.1109,-2.1336,-2.1924,-2.1984,-2.2225,-2.2812,-2.2759,-2.2492,-2.2017,-2.1884,-2.161,-2.1129,-2.1109,-2.1162,-2.1276,-2.1162,-2.1162,-2.1276,-2.1463,-2.185,-2.2418,-2.2418,-2.2579,0.0,-1.9454,-1.9111,-1.9111,-1.8815,-1.8405,-1.8018,-1.761,0.0,-1.6736,-1.6674,-1.6648,-1.6741,-1.6766,-1.6938,-1.7475,-1.8204,-1.9497,-2.1689,-2.2813,-2.4095,-2.612,-2.6742,-2.7147,-2.7582,-2.6607,-2.529,-2.39,-2.2628,-2.1467,-2.0222,-2.0498,-2.0823,-2.1109,-2.1109,-2.1109,-2.1109,-2.1109,-2.1109,-2.1109,-2.1109,-2.1109,-2.1109,-2.1109,-2.1109,-2.1109,-2.1109,-2.1109,-2.1109,-2.1109,-2.1109,-2.1109,-2.1109,-2.1109,-2.1109,-2.1109,-2.1109,-2.1109,-2.1109,-2.1109,-2.1109,-2.1109,-2.1109,-2.1109,-2.1109,-2.1109,-2.1109,-2.1109,-2.1109,-2.1109,-2.1109,-2.1109,-2.1109,-2.1109,-2.1109,-2.1109,-2.1109,-2.1109,-2.1109,-2.1109,-2.1109,-2.1109,-2.1109,-2.1109,-2.1109,-2.1109,-2.1109,-2.1109,-2.1109,-2.1109,-2.1336,-2.1924,-2.1984,-2.2225,-2.2812,-2.2612,-2.2318,-2.2004,-2.1737,-2.1443,-2.1122,-2.1109,-2.1236,-2.1516,-2.1249,-2.1243,-2.1516,-2.1563,-2.185,-2.2358,-2.2398,-2.2565,-1.6854,0.0,-1.7334,-1.7334,-1.721,-1.7118,0.0,-1.6713,-1.6388,-1.6276,-1.6212,-1.6422,-1.7102,-1.7255,-1.7683,-1.9083,-1.9765,-2.0775,-2.2587,-2.4702,-2.6163,-2.6495,-2.6338,-2.6463,-2.6742,-2.5246,-2.4198,-2.3853,-2.2698,-2.1489,-2.0294,-2.0484,-2.0823,-2.1109,-2.1109,-2.1109,-2.1109,-2.1109,-2.1109,-2.1109,-2.1109,-2.1109,-2.1109,-2.1109,-2.1109,-2.1109,-2.1109,-2.1109,-2.1109,-2.1109,-2.1109,-2.1109,-2.1109,-2.1109,-2.1109,-2.1109,-2.1109,-2.1109,-2.1109,-2.1109,-2.1109,-2.1109,-2.1109,-2.1109,-2.1109,-2.1109,-2.1109,-2.1109,-2.1109,-2.1109,-2.1109,-2.1109,-2.1109,-2.1109,-2.1109,-2.1109,-2.1109,-2.1109,-2.1109,-2.1109,-2.1109,-2.1109,-2.1109,-2.1109,-2.1109,-2.1109,-2.1109,-2.1109,-2.1109,-2.1109,-2.1336,-2.1924,-2.1984,-2.2225,-2.2812,-2.2799,-2.2539,-2.2017,-2.1924,-2.165,-2.1129,-2.1109,-2.1142,-2.1216,-2.1149,-2.1142,-2.1216,-2.1663,-2.1844,-2.1764,-2.2211,-2.2452,-1.5762,-1.6387,-1.7031,-1.7031,-1.7031,-1.6941,-1.6759,-1.6391,-1.6067,-1.5831,-1.58,-1.5966,-1.6684,-1.7299,-1.8045,-1.9104,-2.0336,-2.1955,-2.3999,-2.6374,-2.7447,-2.6463,-2.635,-2.6065,-2.5327,-2.3737,-2.2739,-2.2767,-2.1503,-2.0561,-2.0027,-2.0332,-2.055,-2.0963,-2.1102,-2.1109,-2.1109,-2.1109,-2.1109,-2.1109,-2.1109,-2.1109,-2.1109,-2.1109,-2.1109,-2.1109,-2.1109,-2.1109,-2.1109,-2.1109,-2.1109,-2.1109,-2.1109,-2.1109,-2.1109,-2.1109,-2.1109,-2.1109,-2.1109,-2.1109,-2.1109,-2.1109,-2.1109,-2.1109,-2.1109,-2.1109,-2.1109,-2.1109,-2.1109,-2.1109,-2.1109,-2.1109,-2.1109,-2.1109,-2.1109,-2.1109,-2.1109,-2.1109,-2.1109,-2.1109,-2.1109,-2.1109,-2.1109,-2.1109,-2.1109,-2.1109,-2.1109,-2.1109,-2.1109,-2.1229,-2.149,-2.1937,-2.2104,-2.2365,-2.2819,-2.2859,-2.2665,-2.2211,-2.2058,-2.1784,-2.1329,-2.1309,-2.1249,-2.1109,-2.1376,-2.1443,-2.1309,-2.177,-2.1977,-2.1957,-2.2271,-2.2492,-1.5498,-1.6426,-1.7334,-1.7139,-1.7187,-1.7158,-1.6733,-1.6379,-1.6085,-1.5655,-1.5576,-1.581,-1.6526,-1.7474,-1.8366,-1.9102,-2.098,-2.3192,-2.5515,-2.7311,-2.7814,-2.5992,-2.5847,-2.5309,-2.3668,-2.2188,-2.1364,-2.156,-2.028,-1.9495,-1.9761,-2.0031,-2.0354,-2.0676,-2.0963,-2.1102,-2.1109,-2.1109,-2.1109,-2.1109,-2.1109,-2.1109,-2.1109,-2.1109,-2.1109,-2.1109,-2.1109,-2.1109,-2.1109,-2.1109,-2.1109,-2.1109,-2.1109,-2.1109,-2.1109,-2.1109,-2.1109,-2.1109,-2.1109,-2.1109,-2.1109,-2.1109,-2.1109,-2.1109,-2.1109,-2.1109,-2.1109,-2.1109,-2.1109,-2.1109,-2.1109,-2.1109,-2.1109,-2.1109,-2.1109,-2.1109,-2.1109,-2.1109,-2.1109,-2.1109,-2.1109,-2.1109,-2.1109,-2.1109,-2.1109,-2.1109,-2.1109,-2.1109,-2.1109,-2.1383,-2.169,-2.1991,-2.2258,-2.2539,-2.2839,-2.2859,-2.2752,-2.2505,-2.2171,-2.1837,-2.1503,-2.153,-2.1436,-2.1182,-2.171,-2.1864,-2.1623,-2.1911,-2.2158,-2.2352,-2.2445,-2.2599,-1.5859,-1.666,-1.7119,-1.5996,-1.6279,-1.6713,-1.6287,-1.6414,-1.6611,-1.6547,-1.6516,-1.709,-1.8962,-1.8901,-1.9257,-2.1536,-2.3447,-2.5035,-2.6138,-2.6454,-2.6009,-2.4761,-2.3255,-2.2391,-2.2319,-2.0795,-2.0242,-2.1489,-2.028,-1.9495,-1.9761,-1.9807,-2.0094,-2.065,-2.069,-2.0829,-2.1109,-2.1109,-2.1109,-2.1109,-2.1109,-2.1109,-2.1109,-2.1109,-2.1109,-2.1109,-2.1109,-2.1109,-2.1109,-2.1109,-2.1109,-2.1109,-2.1109,-2.1109,-2.1109,-2.1109,-2.1109,-2.1109,-2.1109,-2.1109,-2.1109,-2.1109,-2.1109,-2.1109,-2.1109,-2.1109,-2.1109,-2.1109,-2.1109,-2.1109,-2.1109,-2.1109,-2.1109,-2.1109,-2.1109,-2.1109,-2.1109,-2.1109,-2.1109,-2.1109,-2.1109,-2.1109,-2.1109,-2.1109,-2.1109,-2.1109,-2.1109,-2.1109,-2.1109,-2.143,-2.1666,-2.2032,-2.2198,-2.2539,-2.2839,-2.2859,-2.2846,-2.2799,-2.2285,-2.1744,-2.1203,-2.1423,-2.153,-2.1483,-2.1817,-2.1964,-2.1924,-2.2211,-2.2251,-2.2064,-2.2565,-2.2686,-1.5254,-1.6006,-1.6582,-1.6221,-1.6943,-1.7666,-1.751,-1.7813,-1.7899,-1.7194,-1.7429,-1.8111,-1.9371,-1.9775,-2.0934,-2.3734,-2.5111,-2.5695,-2.5563,-2.605,-2.5519,-2.3168,-2.2326,-2.1619,-2.0684,-1.9891,-1.9631,-2.041,-1.9761,-1.9488,-1.9618,-1.9884,-2.0144,-2.0422,-2.0775,-2.0969,-2.1109,-2.1109,-2.1109,-2.1109,-2.1109,-2.1109,-2.1109,-2.1109,-2.1109,-2.1109,-2.1109,-2.1109,-2.1109,-2.1109,-2.1109,-2.1109,-2.1109,-2.1109,-2.1109,-2.1109,-2.1109,-2.1109,-2.1109,-2.1109,-2.1109,-2.1109,-2.1109,-2.1109,-2.1109,-2.1109,-2.1109,-2.1109,-2.1109,-2.1109,-2.1109,-2.1109,-2.1109,-2.1109,-2.1109,-2.1109,-2.1109,-2.1109,-2.1109,-2.1109,-2.1109,-2.1109,-2.1109,-2.1109,-2.1109,-2.1109,-2.1109,-2.1109,-2.1109,-2.1551,-2.1862,-2.2058,-2.2438,-2.2712,-2.2853,-2.2859,-2.2792,-2.2632,-2.2225,-2.1864,-2.1597,-2.171,-2.179,-2.179,-2.2231,-2.2378,-2.2218,-2.2519,-2.2592,-2.2465,-2.2739,-2.2786,-1.4941,-1.5566,-1.6221,-1.6865,-1.7764,-1.8484,-1.8747,-1.9043,-1.9134,-1.8428,-1.8796,-1.9423,-2.0081,-2.1278,-2.2841,-2.4994,-2.5752,-2.5695,-2.4898,-2.5244,-2.4497,-2.1922,-2.1619,-2.0959,-1.9502,-1.9366,-1.9366,-1.9366,-1.9366,-1.9366,-1.9366,-1.9761,-2.0027,-2.0169,-2.0641,-2.0969,-2.1109,-2.1109,-2.1109,-2.1109,-2.1109,-2.1109,-2.1109,-2.1109,-2.1109,-2.1109,-2.1109,-2.1109,-2.1109,-2.1109,-2.1109,-2.1109,-2.1109,-2.1109,-2.1109,-2.1109,-2.1109,-2.1109,-2.1109,-2.1109,-2.1109,-2.1109,-2.1109,-2.1109,-2.1109,-2.1109,-2.1109,-2.1109,-2.1109,-2.1109,-2.1109,-2.1109,-2.1109,-2.1109,-2.1109,-2.1109,-2.1109,-2.1109,-2.1109,-2.1109,-2.1109,-2.1109,-2.1109,-2.1109,-2.1109,-2.1109,-2.1109,-2.1109,-2.1109,-2.1676,-2.197,-2.1965,-2.2585,-2.2859,-2.2859,-2.2859,-2.2739,-2.2438,-2.2211,-2.2058,-2.1991,-2.2051,-2.2084,-2.2084,-2.2599,-2.2752,-2.2525,-2.2752,-2.2859,-2.2859,-2.2859,-2.2859,-1.5811,-1.6076,-1.6357,-1.7607,-1.7988,-1.8251,-1.9043,-1.9288,-1.9587,-2.0668,-2.0959,-2.1357,-2.2636,-2.3909,-2.4733,-2.4482,-2.4723,-2.4899,-2.4765,-2.3207,-2.193,-2.1619,-2.0424,-1.9502,-1.9366,-1.9366,-1.9366,-1.9366,-1.9366,-1.9366,-1.9366,-1.9488,-1.9721,-2.0235,-2.0213,-2.0537,-2.1109,-2.1109,-2.1109,-2.1109,-2.1109,-2.1109,-2.1109,-2.1109,-2.1109,-2.1109,-2.1109,-2.1109,-2.1109,-2.1109,-2.1109,-2.1109,-2.1109,-2.1109,-2.1109,-2.1109,-2.1109,-2.1109,-2.1109,-2.1109,-2.1109,-2.1109,-2.1109,-2.1109,-2.1109,-2.1109,-2.1109,-2.1109,-2.1109,-2.1109,-2.1109,-2.1109,-2.1109,-2.1109,-2.1109,-2.1109,-2.1109,-2.1109,-2.1109,-2.1109,-2.1109,-2.1109,-2.1109,-2.1109,-2.1109,-2.1109,-2.1109,-2.1109,-2.1109,-2.1676,-2.1985,-2.2056,-2.2526,-2.2859,-2.2859,-2.2859,-2.2739,-2.2438,-2.2398,-2.2265,-2.1997,-2.2245,-2.2385,-2.2385,-2.2699,-2.2853,-2.2826,-2.2853,-2.2859,-2.2859,-2.2859,-2.2859,-1.4707,-1.5449,-1.625,-1.7021,-1.7812,-1.865,-1.9856,-2.0526,-2.0936,-2.1119,-2.1844,-2.256,-2.3003,-2.4396,-2.5088,-2.3754,-2.4221,-2.4189,-2.2411,-2.1765,-2.1227,-2.0294,-1.9754,-1.9366,-1.9366,-1.9366,-1.9366,-1.9366,-1.9366,-1.9366,-1.9366,-1.9502,-1.9834,-2.0154,-2.0447,-2.0683,-2.1109,-2.1109,-2.1109,-2.1109,-2.1109,-2.1109,-2.1109,-2.1109,-2.1109,-2.1109,-2.1109,-2.1109,-2.1109,-2.1109,-2.1109,-2.1109,-2.1109,-2.1109,-2.1109,-2.1109,-2.1109,-2.1109,-2.1109,-2.1109,-2.1109,-2.1109,-2.1109,-2.1109,-2.1109,-2.1109,-2.1109,-2.1109,-2.1109,-2.1109,-2.1109,-2.1109,-2.1109,-2.1109,-2.1109,-2.1109,-2.1109,-2.1109,-2.1109,-2.1109,-2.1109,-2.1109,-2.1109,-2.1109,-2.1109,-2.1109,-2.1109,-2.1109,-2.1109,-2.1676,-2.1998,-2.1972,-2.2545,-2.2859,-2.2859,-2.2859,-2.2812,-2.2706,-2.2525,-2.2365,-2.2258,-2.2358,-2.2505,-2.2692,-2.2806,-2.2859,-2.2859,-2.2859,-2.2859,-2.2859,-2.2859,-2.2859,-1.4668,-1.5488,-1.6475,-1.7324,-1.8086,-1.9053,-2.0625,-2.124,-2.1598,-2.1912,-2.2436,-2.293,-2.341,-2.416,-2.4355,-2.3193,-2.3565,-2.3289,-2.0816,-2.0691,-2.0554,-1.9495,-1.9366,-1.9366,-1.9366,-1.9366,-1.9366,-1.9366,-1.9366,-1.9366,-1.9366,-1.9618,-1.9884,-2.0157,-2.0365,-2.0683,-2.1109,-2.1109,-2.1109,-2.1109,-2.1109,-2.1109,-2.1109,-2.1109,-2.1109,-2.1109,-2.1109,-2.1109,-2.1109,-2.1109,-2.1109,-2.1109,-2.1109,-2.1109,-2.1109,-2.1109,-2.1109,-2.1109,-2.1109,-2.1109,-2.1109,-2.1109,-2.1109,-2.1109,-2.1109,-2.1109,-2.1109,-2.1109,-2.1109,-2.1109,-2.1109,-2.1109,-2.1109,-2.1109,-2.1109,-2.1109,-2.1109,-2.1109,-2.1109,-2.1109,-2.1109,-2.1109,-2.1109,-2.1109,-2.1109,-2.1109,-2.1109,-2.1109,-2.1109,-2.1676,-2.2005,-2.2271,-2.2696,-2.2859,-2.2859,-2.2859,-2.2859,-2.2859,-2.2672,-2.2559,-2.2559,-2.2559,-2.2652,-2.2859,-2.2859,-2.2859,-2.2859,-2.2859,-2.2859,-2.2859,-2.2859,-2.2859,-1.6105,-1.6387,-1.7148,-1.8848,-1.8965,-1.9228,-2.1396,-2.1211,-2.1191,-2.335,-2.2856,-2.2528,-2.4054,-2.3345,-2.2714,-2.2928,-2.2647,-2.2005,-2.0644,-1.9884,-1.9366,-1.9366,-1.9366,-1.9366,-1.9366,-1.9366,-1.9366,-1.9366,-1.9366,-1.9366,-1.9366,-1.9366,-1.9631,-2.0157,-2.0216,-2.053,-2.1109,-2.1109,-2.1109,-2.1109,-2.1109,-2.1109,-2.1109,-2.1109,-2.1109,-2.1109,-2.1109,-2.1109,-2.1109,-2.1109,-2.1109,-2.1109,-2.1109,-2.1109,-2.1109,-2.1109,-2.1109,-2.1109,-2.1109,-2.1109,-2.1109,-2.1109,-2.1109,-2.1109,-2.1109,-2.1109,-2.1109,-2.1109,-2.1109,-2.1109,-2.1109,-2.1109,-2.1109,-2.1109,-2.1109,-2.1109,-2.1109,-2.1109,-2.1109,-2.1109,-2.1109,-2.1109,-2.1109,-2.1109,-2.1109,-2.1109,-2.1109,-2.1109,-2.1109,-2.169,-2.2168,-2.2882,-2.2859,-2.2859,-2.2859,-2.2859,-2.2859,-2.2859,-2.2859,-2.2859,-2.2859,-2.2859,-2.2859,-2.2859,-2.2859,-2.2859,-2.2859,-2.2859,-2.2859,-2.2859,-2.2859,-2.2859,-1.4785,-1.5918,-1.7314,-1.7822,-1.9219,-2.0713,-2.167,-2.1689,-2.1675,-2.2376,-2.2217,-2.1906,-2.1752,-2.165,-2.1337,-2.0337,-2.0694,-2.0672,-1.928,-1.9236,-1.9366,-1.9366,-1.9366,-1.9366,-1.9366,-1.9366,-1.9366,-1.9366,-1.9366,-1.9366,-1.9366,-1.9366,-1.9631,-2.0157,-2.0216,-2.053,-2.1109,-2.1109,-2.1109,-2.1109,-2.1109,-2.1109,-2.1109,-2.1109,-2.1109,-2.1109,-2.1109,-2.1109,-2.1109,-2.1109,-2.1109,-2.1109,-2.1109,-2.1109,-2.1109,-2.1109,-2.1109,-2.1109,-2.1109,-2.1109,-2.1109,-2.1109,-2.1109,-2.1109,-2.1109,-2.1109,-2.1109,-2.1109,-2.1109,-2.1109,-2.1109,-2.1109,-2.1109,-2.1109,-2.1109,-2.1109,-2.1109,-2.1109,-2.1109,-2.1109,-2.1109,-2.1109,-2.1109,-2.1109,-2.1109,-2.1109,-2.1109,-2.1256,-2.1683,-2.1837,-2.2176,-2.2826,-2.2859,-2.2859,-2.2859,-2.2859,-2.2859,-2.2859,-2.2859,-2.2859,-2.2859,-2.2859,-2.2859,-2.2859,-2.2859,-2.2859,-2.2859,-2.2859,-2.2859,-2.2859,-2.2859,-2.2859,-1.5859,-1.7256,-1.873,-1.9082,-2.0342,-2.1477,-2.1627,-2.1665,-2.1701,-2.1717,-2.0942,-2.0339,-2.0565,-2.0402,-2.0004,-1.9378,-1.9964,-2.0044,-1.8646,-1.8978,-1.9366,-1.9366,-1.9366,-1.9366,-1.9366,-1.9366,-1.9366,-1.9366,-1.9366,-1.9366,-1.9366,-1.9366,-1.9625,-2.0027,-2.0086,-2.0404,-2.0963,-2.1102,-2.1109,-2.1109,-2.1109,-2.1109,-2.1109,-2.1109,-2.1109,-2.1109,-2.1109,-2.1109,-2.1109,-2.1109,-2.1109,-2.1109,-2.1109,-2.1109,-2.1109,-2.1109,-2.1109,-2.1109,-2.1109,-2.1109,-2.1109,-2.1109,-2.1109,-2.1109,-2.1109,-2.1109,-2.1109,-2.1109,-2.1109,-2.1109,-2.1109,-2.1109,-2.1109,-2.1109,-2.1109,-2.1109,-2.1109,-2.1109,-2.1109,-2.1109,-2.1109,-2.1109,-2.1109,-2.1109,-2.1109,-2.1109,-2.1109,-2.1262,-2.197,-2.2018,-2.2191,-2.2812,-2.2859,-2.2859,-2.2859,-2.2859,-2.2859,-2.2859,-2.2859,-2.2859,-2.2859,-2.2859,-2.2859,-2.2859,-2.2859,-2.2859,-2.2859,-2.2859,-2.2859,-2.2859,-2.2859,-2.2859,-1.8008,-1.9277,-2.0468,-2.1602,-2.1831,-2.1757,-2.1405,-2.1114,-2.0935,-2.0935,-1.9222,-1.8247,-1.9918,-1.9272,-1.8714,-1.9331,-1.9926,-1.9874,-1.8653,-1.9074,-1.9366,-1.9366,-1.9366,-1.9366,-1.9366,-1.9366,-1.9366,-1.9366,-1.9366,-1.9366,-1.9366,-1.9366,-1.9495,-1.9761,-2.0117,-2.03,-2.0683,-2.0969,-2.1109,-2.1109,-2.1109,-2.1109,-2.1109,-2.1109,-2.1109,-2.1109,-2.1109,-2.1109,-2.1109,-2.1109,-2.1109,-2.1109,-2.1109,-2.1109,-2.1109,-2.1109,-2.1109,-2.1109,-2.1109,-2.1109,-2.1109,-2.1109,-2.1109,-2.1109,-2.1109,-2.1109,-2.1109,-2.1109,-2.1109,-2.1109,-2.1109,-2.1109,-2.1109,-2.1109,-2.1109,-2.1109,-2.1109,-2.1109,-2.1109,-2.1109,-2.1109,-2.1109,-2.1109,-2.1109,-2.1109,-2.1116,-2.1109,-2.1389,-2.197,-2.1977,-2.2284,-2.2882,-2.2859,-2.2859,-2.2859,-2.2859,-2.2859,-2.2859,-2.2859,-2.2859,-2.2859,-2.2859,-2.2859,-2.2859,-2.2859,-2.2859,-2.2859,-2.2859,-2.2859,-2.2859,-2.2859,-2.2859,-1.6258,-1.6997,-1.8031,-2.0652,-2.1419,-2.1456,-2.1346,-1.9852,-1.8503,-1.8503,-1.8048,-1.7623,-1.7251,-1.7037,-1.711,-1.7943,-1.8317,-1.8653,-1.8824,-1.9165,-1.9366,-1.9366,-1.9366,-1.9366,-1.9366,-1.9366,-1.9366,-1.9366,-1.9366,-1.9366,-1.9366,-1.9366,-1.9495,-1.9761,-2.0013,-2.0322,-2.0676,-2.0969,-2.1109,-2.1109,-2.1109,-2.1109,-2.1109,-2.1109,-2.1109,-2.1109,-2.1109,-2.1109,-2.1109,-2.1109,-2.1109,-2.1109,-2.1109,-2.1109,-2.1109,-2.1109,-2.1109,-2.1109,-2.1109,-2.1109,-2.1109,-2.1109,-2.1109,-2.1109,-2.1109,-2.1109,-2.1109,-2.1109,-2.1109,-2.1109,-2.1109,-2.1109,-2.1109,-2.1109,-2.1109,-2.1109,-2.1109,-2.1109,-2.1109,-2.1109,-2.1109,-2.1109,-2.1109,-2.1109,-2.1249,-2.1402,-2.1256,-2.1396,-2.2258,-2.2117,-2.2284,-2.2882,-2.2859,-2.2859,-2.2859,-2.2859,-2.2859,-2.2859,-2.2859,-2.2859,-2.2859,-2.2859,-2.2859,-2.2859,-2.2859,-2.2859,-2.2859,-2.2859,-2.2859,-2.2859,-2.2859,-2.2859,-1.5854,-1.6671,-1.7543,-1.9849,-1.9972,-1.9579,-1.9579,-1.8126,-1.6756,-1.6756,-1.6756,-1.6665,-1.631,-1.6273,-1.6513,-1.7255,-1.7782,-1.8121,-1.8597,-1.9065,-1.9366,-1.9366,-1.9366,-1.9366,-1.9366,-1.9366,-1.9366,-1.9366,-1.9366,-1.9366,-1.9366,-1.9366,-1.9488,-1.9625,-2.002,-2.0325,-2.0524,-2.0829,-2.1109,-2.1109,-2.1109,-2.1109,-2.1109,-2.1109,-2.1109,-2.1109,-2.1109,-2.1109,-2.1109,-2.1109,-2.1109,-2.1109,-2.1109,-2.1109,-2.1109,-2.1109,-2.1109,-2.1109,-2.1109,-2.1109,-2.1109,-2.1109,-2.1109,-2.1109,-2.1109,-2.1109,-2.1109,-2.1109,-2.1109,-2.1109,-2.1109,-2.1109,-2.1109,-2.1109,-2.1109,-2.1109,-2.1109,-2.1109,-2.1109,-2.1109,-2.1109,-2.1109,-2.1109,-2.1109,-2.1116,-2.1389,-2.1298,-2.1593,-2.2187,-2.2189,-2.2338,-2.2799,-2.2859,-2.2859,-2.2859,-2.2859,-2.2859,-2.2859,-2.2859,-2.2859,-2.2859,-2.2859,-2.2859,-2.2859,-2.2859,-2.2859,-2.2859,-2.2859,-2.2859,-2.2859,-2.2859,-2.2859,-1.5419,-1.673,-1.7771,-1.8938,-1.8411,-1.7692,-1.7692,-1.6662,-1.5832,-1.5832,-1.5832,-1.5905,-1.6152,-1.6239,-1.6466,-1.7054,-1.7595,-1.8083,-1.851,-1.9025,-1.9359,-1.9366,-1.9366,-1.9366,-1.9366,-1.9366,-1.9366,-1.9366,-1.9366,-1.9366,-1.9366,-1.9366,-1.9372,-1.9495,-1.9897,-2.0199,-2.0251,-2.0823,-2.1109,-2.1109,-2.1109,-2.1109,-2.1109,-2.1109,-2.1109,-2.1109,-2.1109,-2.1109,-2.1109,-2.1109,-2.1109,-2.1109,-2.1109,-2.1109,-2.1109,-2.1109,-2.1109,-2.1109,-2.1109,-2.1109,-2.1109,-2.1109,-2.1109,-2.1109,-2.1109,-2.1109,-2.1109,-2.1109,-2.1109,-2.1109,-2.1109,-2.1109,-2.1109,-2.1109,-2.1109,-2.1109,-2.1109,-2.1109,-2.1109,-2.1109,-2.1109,-2.1109,-2.1109,-2.1116,-2.1249,-2.1249,-2.149,-2.1818,-2.2086,-2.2258,-2.2545,-2.2859,-2.2859,-2.2859,-2.2859,-2.2859,-2.2859,-2.2859,-2.2859,-2.2859,-2.2859,-2.2859,-2.2859,-2.2859,-2.2859,-2.2859,-2.2859,-2.2859,-2.2859,-2.2859,-2.2859,-2.2722,-1.2876,-1.5155,-1.7463,-1.7817,-1.7777,-1.7692,-1.7692,-1.6662,-1.5832,-1.5832,-1.5832,-1.5838,-1.5879,-1.6099,-1.6466,-1.7054,-1.7428,-1.7929,-1.8751,-1.8896,-1.91,-1.9366,-1.9366,-1.9366,-1.9366,-1.9366,-1.9366,-1.9366,-1.9366,-1.9366,-1.9366,-1.9366,-1.9495,-1.9754,-2.0027,-2.0332,-2.0663,-2.0963,-2.1109,-2.1109,-2.1109,-2.1109,-2.1109,-2.1109,-2.1109,-2.1109,-2.1109,-2.1109,-2.1109,-2.1109,-2.1109,-2.1109,-2.1109,-2.1109,-2.1109,-2.1109,-2.1109,-2.1109,-2.1109,-2.1109,-2.1109,-2.1109,-2.1109,-2.1109,-2.1109,-2.1109,-2.1109,-2.1109,-2.1109,-2.1109,-2.1109,-2.1109,-2.1109,-2.1109,-2.1109,-2.1109,-2.1109,-2.1109,-2.1109,-2.1109,-2.1109,-2.1109,-2.1109,-2.1389,-2.1543,-2.1543,-2.182,-2.2087,-2.2357,-2.244,-2.2545,-2.2859,-2.2859,-2.2859,-2.2859,-2.2859,-2.2859,-2.2859,-2.2859,-2.2859,-2.2859,-2.2859,-2.2859,-2.2859,-2.2859,-2.2859,-2.2859,-2.2859,-2.2859,-2.2859,-2.2859,-2.2022,-1.1962,-1.394,-1.5686,-1.6416,-1.6669,-1.6669,-1.6669,-1.6197,-1.5832,-1.5832,-1.5832,-1.5832,-1.5832,-1.6072,-1.6413,-1.6834,-1.7281,-1.7776,-1.8337,-1.8526,-1.8735,-1.9074,-1.91,-1.9229,-1.9366,-1.9366,-1.9366,-1.9366,-1.9366,-1.9366,-1.9366,-1.9366,-1.9488,-1.9618,-2.0,-2.0308,-2.0397,-2.0829,-2.1109,-2.1109,-2.1109,-2.1109,-2.1109,-2.1109,-2.1109,-2.1109,-2.1109,-2.1109,-2.1109,-2.1109,-2.1109,-2.1109,-2.1109,-2.1109,-2.1109,-2.1109,-2.1109,-2.1109,-2.1109,-2.1109,-2.1109,-2.1109,-2.1109,-2.1109,-2.1109,-2.1109,-2.1109,-2.1109,-2.1109,-2.1109,-2.1109,-2.1109,-2.1109,-2.1109,-2.1109,-2.1109,-2.1109,-2.1109,-2.1109,-2.1109,-2.1109,-2.1109,-2.1109,-2.1249,-2.1336,-2.1549,-2.1822,-2.2114,-2.2394,-2.2552,-2.2709,-2.2859,-2.2859,-2.2859,-2.2859,-2.2859,-2.2859,-2.2859,-2.2859,-2.2859,-2.2859,-2.2859,-2.2859,-2.2859,-2.2859,-2.2859,-2.2859,-2.2859,-2.2859,-2.2859,-2.1878,-2.0894,-1.1228,-1.2486,-1.3434,-1.4903,-1.5384,-1.5558,-1.5778,-1.5832,-1.5832,-1.5832,-1.5885,-1.5939,-1.5939,-1.6186,-1.648,-1.6767,-1.7248,-1.7689,-1.7983,-1.8227,-1.8473,-1.8715,-1.8879,-1.8971,-1.9236,-1.9359,-1.9366,-1.9366,-1.9366,-1.9366,-1.9366,-1.9366,-1.9488,-1.9495,-1.9938,-2.0244,-2.0384,-2.0823,-2.1109,-2.1109,-2.1109,-2.1109,-2.1109,-2.1109,-2.1109,-2.1109,-2.1109,-2.1109,-2.1109,-2.1109,-2.1109,-2.1109,-2.1109,-2.1109,-2.1109,-2.1109,-2.1109,-2.1109,-2.1109,-2.1109,-2.1109,-2.1109,-2.1109,-2.1109,-2.1109,-2.1109,-2.1109,-2.1109,-2.1109,-2.1109,-2.1109,-2.1109,-2.1109,-2.1109,-2.1109,-2.1109,-2.1109,-2.1109,-2.1109,-2.1109,-2.1109,-2.1109,-2.1109,-2.1116,-2.1268,-2.1531,-2.1917,-2.2166,-2.2427,-2.2702,-2.2859,-2.2859,-2.2859,-2.2859,-2.2859,-2.2859,-2.2859,-2.2859,-2.2859,-2.2859,-2.2859,-2.2859,-2.2742,-2.2225,-2.214,-2.2232,-2.2232,-2.1683,-2.1408,-2.1415,-2.0045,-1.9072,-1.0122,-1.0527,-1.0875,-1.3101,-1.4175,-1.481,-1.5638,-1.5832,-1.5832,-1.5832,-1.6052,-1.6253,-1.6253,-1.6486,-1.678,-1.7081,-1.7382,-1.7689,-1.8003,-1.807,-1.8196,-1.8497,-1.8764,-1.8964,-1.8964,-1.9229,-1.9366,-1.9366,-1.9366,-1.9366,-1.9366,-1.9366,-1.9495,-1.9761,-2.0082,-2.0387,-2.067,-2.0969,-2.1109,-2.1109,-2.1109,-2.1109,-2.1109,-2.1109,-2.1109,-2.1109,-2.1109,-2.1109,-2.1109,-2.1109,-2.1109,-2.1109,-2.1109,-2.1109,-2.1109,-2.1109,-2.1109,-2.1109,-2.1109,-2.1109,-2.1109,-2.1109,-2.1109,-2.1109,-2.1109,-2.1109,-2.1109,-2.1109,-2.1109,-2.1109,-2.1109,-2.1109,-2.1109,-2.1109,-2.1109,-2.1109,-2.1109,-2.1109,-2.1109,-2.1109,-2.1109,-2.1109,-2.1109,-2.1396,-2.1563,-2.1617,-2.2084,-2.233,-2.2389,-2.2702,-2.2859,-2.2859,-2.2859,-2.2859,-2.2859,-2.2859,-2.2859,-2.2859,-2.2859,-2.2859,-2.2859,-2.2859,-2.2093,-2.0274,-2.0269,-2.0251,-2.0251,-1.8346,-1.7534,-1.7555,-1.7358,-1.6404,-0.9274,-0.9778,-1.0267,-1.2058,-1.3233,-1.4088,-1.4596,-1.5291,-1.5832,-1.5832,-1.6066,-1.6333,-1.6513,-1.6794,-1.7021,-1.7134,-1.7395,-1.7622,-1.7736,-1.7749,-1.7862,-1.817,-1.8433,-1.8698,-1.8925,-1.9229,-1.9366,-1.9366,-1.9366,-1.9366,-1.9366,-1.9366,-1.9488,-1.9502,-2.0014,-2.0465,-2.0956,-2.1102,-2.1109,-2.1109,-2.1109,-2.1109,-2.1109,-2.1109,-2.1109,-2.1109,-2.1109,-2.1109,-2.1109,-2.1109,-2.1109,-2.1109,-2.1109,-2.1109,-2.1109,-2.1109,-2.1109,-2.1109,-2.1109,-2.1109,-2.1109,-2.1109,-2.1109,-2.1109,-2.1109,-2.1109,-2.1109,-2.1109,-2.1109,-2.1109,-2.1109,-2.1109,-2.1109,-2.1109,-2.1109,-2.1109,-2.1109,-2.1109,-2.1109,-2.1109,-2.1109,-2.1109,-2.1109,-2.1396,-2.1683,-2.183,-2.1204,-2.1158,-2.2545,-2.1776,-2.162,-2.2709,-2.2859,-2.2859,-2.2859,-2.2859,-2.2859,-2.2859,-2.2859,-2.2297,-2.1176,-2.1075,-2.0231,-1.8223,-1.6997,-1.7056,-1.8269,-1.7577,-1.7248,-1.7147,-1.599,-1.4995,-0.8283,-0.8791,-0.9472,-1.1042,-1.1951,-1.2799,-1.4088,-1.475,-1.5237,-1.5725,-1.6066,-1.6359,-1.6653,-1.6947,-1.7181,-1.7281,-1.7455,-1.7582,-1.7582,-1.7582,-1.7655,-1.7862,-1.8243,-1.8546,-1.8735,-1.9156,-1.9366,-1.9366,-1.9366,-1.9366,-1.9366,-1.9366,-1.9495,-1.9631,-2.0017,-2.0463,-2.1102,-2.1109,-2.1109,-2.1109,-2.1109,-2.1109,-2.1109,-2.1109,-2.1109,-2.1109,-2.1109,-2.1109,-2.1109,-2.1109,-2.1109,-2.1109,-2.1109,-2.1109,-2.1109,-2.1109,-2.1109,-2.1109,-2.1109,-2.1109,-2.1109,-2.1109,-2.1109,-2.1109,-2.1109,-2.1109,-2.1109,-2.1109,-2.1109,-2.1109,-2.1109,-2.1109,-2.1109,-2.1109,-2.1109,-2.0963,-2.0391,-2.0683,-2.1109,-2.1109,-2.1109,-2.0963,-2.0397,-2.053,-2.0808,-2.1195,-1.9807,-1.9427,-2.1647,-2.0245,-1.9644,-2.086,-2.1009,-2.1009,-2.1009,-2.162,-2.1932,-2.1932,-2.1904,-2.1402,-2.0133,-1.9418,-1.8239,-1.6327,-1.5035,-1.4711,-1.5363,-1.5363,-1.5314,-1.5359,-1.4034,-1.3476,0.0,0.0,0.0,-1.01,-1.0281,-1.0922,-1.4095,-1.4175,-1.3995,-1.5471,-1.6005,-1.6313,-1.6647,-1.6947,-1.7241,-1.7535,-1.7582,-1.7582,-1.7582,-1.7582,-1.7582,-1.7582,-1.8123,-1.8557,-1.85,-1.9004,-1.9366,-1.9366,-1.9366,-1.9366,-1.9366,-1.9366,-1.9631,-2.0157,-2.0216,-2.053,-2.1109,-2.1109,-2.1109,-2.1109,-2.1109,-2.1109,-2.1109,-2.1109,-2.1109,-2.1109,-2.1109,-2.1109,-2.1109,-2.1109,-2.1109,-2.1109,-2.1109,-2.1109,-2.1109,-2.1109,-2.1109,-2.1109,-2.1109,-2.1109,-2.1109,-2.1109,-2.1109,-2.1109,-2.1109,-2.1109,-2.1109,-2.1109,-2.1109,-2.1109,-2.1109,-2.1109,-2.1109,-2.1102,-2.1102,-2.055,-1.8843,-1.984,-2.0996,-2.0976,-2.1109,-2.0543,-1.8987,-1.8746,-1.8971,-1.9385,-1.7876,-1.7477,-1.9752,-1.8385,-1.7143,-1.7148,-1.7148,-1.7148,-1.7148,-1.893,-2.012,-2.0102,-2.0116,-2.0005,-1.9999,-1.8163,-1.6263,-1.429,-1.4265,-1.3424,-1.1619,-1.1619,-1.1619,-1.1619,-1.1619,-1.1697,-0.6979,0.0,0.0,0.0,0.0,0.0,-1.1156,-1.1757,-1.2518,-1.4222,-1.4629,-1.5104,-1.646,-1.6947,-1.7241,-1.7535,-1.7582,-1.7582,-1.7582,-1.7582,-1.7582,-1.7582,-1.8123,-1.851,-1.8446,-1.9052,-1.9366,-1.9366,-1.9366,-1.9366,-1.9366,-1.9366,-1.9631,-2.0157,-2.0216,-2.053,-2.1109,-2.1109,-2.1109,-2.1109,-2.1109,-2.1109,-2.1109,-2.1109,-2.1109,-2.1109,-2.1109,-2.1109,-2.1109,-2.1109,-2.1109,-2.1109,-2.1109,-2.1109,-2.1109,-2.1109,-2.1109,-2.1109,-2.1109,-2.1109,-2.1109,-2.1109,-2.1109,-2.1109,-2.1109,-2.1109,-2.1109,-2.1109,-2.1109,-2.1109,-2.1109,-2.1109,-2.0816,-1.9543,-2.0118,-2.0258,-1.7312,-1.8056,-1.9232,-1.9497,-2.0543,-2.0963,-1.9398,-1.9282,-1.896,-1.7698,-1.6187,-1.5843,-1.774,-1.6311,-1.5763,-1.7121,-1.7273,-1.7273,-1.7273,-1.8959,-2.0145,-2.0126,-2.0116,-1.9532,-1.8012,-1.6141,-1.4294,-1.2466,-1.2316,-1.2176,-1.1619,-1.1619,-1.1619,-1.1619,-1.1619,-1.1718,-0.7241,-0.7301,-0.7502,-0.7923,0.0,0.0,-1.0962,-1.151,-1.2291,-1.4689,-1.5084,-1.5351,-1.6493,-1.6847,-1.7061,-1.7355,-1.7502,-1.7582,-1.7582,-1.7582,-1.7582,-1.7582,-1.8123,-1.849,-1.849,-1.9025,-1.9366,-1.9366,-1.9366,-1.9366,-1.9366,-1.9366,-1.9631,-2.0157,-2.0216,-2.053,-2.1109,-2.1109,-2.1109,-2.1109,-2.1109,-2.1109,-2.1109,-2.1109,-2.1109,-2.1109,-2.1109,-2.1109,-2.1109,-2.1109,-2.1109,-2.1109,-2.1109,-2.1109,-2.1109,-2.1109,-2.1109,-2.1109,-2.1109,-2.1109,-2.1109,-2.1109,-2.1109,-2.1109,-2.1109,-2.1109,-2.1109,-2.1109,-2.1109,-2.0963,-2.0251,-1.9979,-1.9549,-1.7869,-1.8198,-1.8162,-1.5448,-1.6213,-1.7703,-1.8818,-1.9193,-1.906,-1.8342,-1.7696,-1.6894,-1.5974,-1.4377,-1.3866,-1.5785,-1.4457,-1.3706,-1.4762,-1.491,-1.491,-1.491,-1.6587,-1.7674,-1.7648,-1.7679,-1.7157,-1.606,-1.4177,-1.2745,-1.1619,-1.1619,-1.1619,-1.1619,-1.1619,-1.1619,-1.1619,-1.1619,-1.1725,-0.7675,-0.7796,-0.8088,-0.8597,-0.8183,0.0,-1.1824,-1.2004,-1.2325,-1.5311,-1.5698,-1.5638,-1.6126,-1.6246,-1.6366,-1.6667,-1.7094,-1.7435,-1.7562,-1.7609,-1.7629,-1.7629,-1.817,-1.8537,-1.8537,-1.9045,-1.9366,-1.9366,-1.9366,-1.9366,-1.9366,-1.9366,-1.9658,-2.013,-2.0249,-2.053,-2.1109,-2.1109,-2.1109,-2.1109,-2.1109,-2.1109,-2.1109,-2.1109,-2.1109,-2.1109,-2.1109,-2.1109,-2.1109,-2.1109,-2.1109,-2.1109,-2.1109,-2.1109,-2.1109,-2.1109,-2.1109,-2.1109,-2.1109,-2.1109,-2.1109,-2.1109,-2.1109,-2.1109,-2.1109,-2.0969,-2.0816,-2.0543,-2.0676,-2.0397,-1.8704,-1.8197,-1.7822,-1.6032,-1.5824,-1.5327,-1.3413,-1.4447,-1.6161,-1.8064,-1.7267,-1.626,-1.6466,-1.5084,-1.401,-1.401,-1.2661,-1.2212,-1.3858,-1.2658,-1.1619,-1.1619,-1.1619,-1.1619,-1.1619,-1.3259,-1.4457,-1.4457,-1.4424,-1.4398,-1.4432,-1.2654,-1.1619,-1.1619,-1.1619,-1.1619,-1.1619,-1.1619,-1.1619,-1.1619,-1.1619,-1.1735,-0.8209,-0.841,-0.855,-0.819,-0.8497,0.0,-0.8631,-0.8831,-0.9439,-1.0782,-1.0822,-1.1136,-1.2846,-1.336,-1.3621,-1.3928,-1.5211,-1.65,-1.7448,-1.7796,-1.7956,-1.7956,-1.8477,-1.8838,-1.8838,-1.9158,-1.9366,-1.9366,-1.9366,-1.9366,-1.9366,-1.9366,-1.9703,-2.0187,-2.0185,-2.053,-2.1109,-2.1109,-2.1109,-2.1109,-2.1109,-2.1109,-2.1109,-2.1109,-2.1109,-2.1109,-2.1109,-2.1109,-2.1109,-2.1109,-2.1109,-2.1109,-2.1109,-2.1109,-2.1109,-2.1109,-2.1109,-2.1109,-2.1109,-2.1109,-2.1109,-2.1109,-2.1109,-2.1109,-2.1109,-2.0112,-1.8704,-1.7317,-1.7874,-1.8572,-1.6904,-1.6394,-1.5999,-1.4191,-1.4814,-1.4997,-1.1863,-1.2596,-1.4152,-1.4894,-1.5798,-1.6086,-1.5013,-1.455,-1.3858,-1.2363,-1.177,-1.1767,-1.2065,-1.177,-1.1619,-1.1619,-1.1619,-1.1619,-1.1619,-1.3259,-1.4457,-1.4457,-1.442,-1.4374,-1.4466,-1.2617,-1.1619,-1.1619,-1.1619,-1.1619,-1.1619,-1.1619,-1.1619,-1.1619,-1.1619,-1.1806,-0.8118,-0.8527,-0.8985,-0.8844,-0.8918,0.0,0.0,-0.9339,-0.9706,-1.1323,-1.1069,-1.0955,-1.2278,-1.2525,-1.2625,-1.2933,-1.4462,-1.5611,-1.5618,-1.7021,-1.8103,-1.825,-1.8651,-1.8925,-1.8925,-1.9192,-1.9366,-1.9366,-1.9366,-1.9366,-1.9366,-1.9366,-1.9593,-2.0207,-2.0152,-2.0486,-2.1102,-2.1109,-2.1109,-2.1109,-2.1109,-2.1109,-2.1109,-2.1109,-2.1109,-2.1109,-2.1109,-2.1109,-2.1109,-2.1109,-2.1109,-2.1109,-2.1109,-2.1109,-2.1109,-2.1109,-2.1109,-2.1109,-2.1109,-2.1109,-2.1109,-2.1109,-2.1109,-2.0963,-1.9973,-1.906,-1.8237,-1.739,-1.7797,-1.8153,-1.6333,-1.526,-1.4174,-1.2371,-1.2648,-1.2789,-1.1132,-1.1545,-1.2331,-1.2674,-1.3432,-1.4044,-1.4416,-1.3558,-1.2661,-1.1767,-1.1619,-1.1619,-1.1619,-1.1619,-1.1619,-1.1619,-1.1619,-1.1619,-1.1619,-1.251,-1.296,-1.296,-1.296,-1.2937,-1.3031,-1.204,-1.1619,-1.1619,-1.1619,-1.1619,-1.1619,-1.1619,-1.1619,-1.1619,-1.1619,-1.183,-0.7935,-0.851,-0.935,-0.9311,-0.9253,-0.9399,0.0,0.0,0.0,-1.2084,-1.169,-1.127,-1.1868,-1.171,-1.1623,-1.1935,-1.3394,-1.4215,-1.3267,-1.5431,-1.7248,-1.7602,-1.845,-1.8898,-1.8611,-1.8698,-1.8938,-1.9339,-1.8998,-1.8945,-1.9345,-1.9366,-1.969,-2.0133,-2.0172,-2.0531,-2.1102,-2.1109,-2.1109,-2.1109,-2.1109,-2.1109,-2.1109,-2.1109,-2.1109,-2.1109,-2.1109,-2.1109,-2.1109,-2.1109,-2.1109,-2.1109,-2.1109,-2.1109,-2.1109,-2.1109,-2.1109,-2.1102,-2.0683,-2.0543,-2.0537,-2.0118,-1.9979,-1.9669,-1.7897,-1.7507,-1.764,-1.7003,-1.7087,-1.7018,-1.5276,-1.3759,-1.2371,-1.0993,-1.0721,-1.0721,-1.0857,-1.0949,-1.104,-1.1375,-1.1469,-1.1917,-1.3558,-1.2658,-1.1619,-1.1619,-1.1619,-1.1619,-1.1619,-1.1619,-1.1619,-1.1619,-1.1619,-1.1619,-1.1619,-1.1619,-1.1619,-1.1619,-1.1619,-1.1619,-1.1619,-1.1619,-1.1619,-1.1619,-1.1619,-1.1619,-1.1619,-1.1619,-1.1619,-1.1619,-1.1619,-1.182,-0.8027,-0.8864,-0.9532,-0.8247,-0.9163,-0.986,-0.7956,0.0,-0.8497,-0.8272,0.0,-0.8199,-0.881,0.0,0.0,-0.8918,-1.0347,-1.145,-1.1309,-1.2719,-1.3968,-1.4522,-1.7388,-1.8798,-1.7482,-1.6907,-1.7388,-1.9232,-1.7662,-1.7428,-1.9272,-1.9366,-1.9626,-2.0187,-2.0241,-2.0535,-2.1102,-2.1109,-2.1109,-2.1109,-2.1109,-2.1109,-2.1109,-2.1109,-2.1109,-2.1109,-2.1109,-2.1109,-2.1109,-2.1109,-2.1109,-2.1109,-2.1109,-2.1109,-2.1109,-2.1109,-2.1109,-2.0829,-1.9271,-1.8843,-1.856,-1.6899,-1.6223,-1.5872,-1.4189,-1.4646,-1.515,-1.2259,-1.2361,-1.3148,-1.1326,-1.0857,-1.0721,-1.0585,-1.0585,-1.0721,-1.0857,-1.1,-1.1243,-1.1312,-1.1472,-1.1619,-1.1914,-1.1767,-1.1619,-1.1619,-1.1619,-1.1619,-1.1619,-1.1619,-1.1619,-1.1619,-1.1619,-1.1619,-1.1619,-1.1619,-1.1619,-1.1619,-1.1619,-1.1619,-1.1619,-1.1619,-1.1619,-1.1619,-1.1619,-1.1619,-1.1619,-1.1619,-1.1619,-1.1619,-1.1619,-1.1782,-0.7482,-0.8212,-0.8974,-0.8159,-0.8546,-0.88,-0.7743,-0.7584,-0.7739,-0.8174,0.0,0.0,0.0,0.0,0.0,0.0,-0.9559,-1.0247,-0.9566,-1.1476,-1.3227,-1.3995,-1.5244,-1.6273,-1.6834,-1.6513,-1.7134,-1.9212,-1.7442,-1.7181,-1.9259,-1.9366,-1.9633,-2.0214,-2.0234,-2.0514,-2.1102,-2.1109,-2.1109,-2.1109,-2.1109,-2.1109,-2.1109,-2.1109,-2.1109,-2.1109,-2.1109,-2.1109,-2.1109,-2.1109,-2.1109,-2.1109,-2.1109,-2.1109,-2.1109,-2.0963,-2.0391,-1.941,-1.8566,-1.7669,-1.6726,-1.5893,-1.4789,-1.3701,-1.3035,-1.331,-1.3479,-1.2125,-1.2308,-1.2862,-1.2122,-1.1244,-1.0679,-1.0636,-1.0717,-1.0721,-1.0996,-1.1192,-1.1322,-1.1472,-1.1619,-1.1619,-1.1619,-1.1619,-1.1619,-1.1619,-1.1619,-1.1619,-1.1619,-1.1619,-1.1619,-1.1619,-1.1619,-1.1619,-1.1619,-1.1619,-1.1619,-1.1619,-1.1619,-1.1619,-1.1619,-1.1619,-1.1619,-1.1619,-1.1619,-1.1619,-1.1619,-1.1619,-1.1619,-1.1619,-1.1619,-1.1748,-0.7032,-0.769,-0.8362,-0.7739,-0.7698,-0.7719,-0.7309,-0.7018,-0.7078,-0.7945,-0.8067,0.0,0.0,0.0,-0.7948,-0.8049,0.0,-0.8994,-0.827,-1.0013,-1.1706,-1.2532,-1.2946,-1.3901,-1.5805,-1.5211,-1.5798,-1.8437,-1.6647,-1.6587,-1.9225,-1.9366,-1.9633,-2.0214,-2.0234,-2.0514,-2.1102,-2.1109,-2.1109,-2.1109,-2.1109,-2.1109,-2.1109,-2.1109,-2.1109,-2.1109,-2.1109,-2.1109,-2.1109,-2.0976,-2.069,-2.0397,-2.0258,-1.9973,-1.9688,-1.9973,-1.908,-1.7529,-1.6986,-1.555,-1.4162,-1.3962,-1.299,-1.1841,-1.1841,-1.1815,-1.1845,-1.186,-1.2092,-1.2142,-1.2213,-1.1359,-1.0566,-1.0481,-1.0585,-1.0721,-1.0996,-1.1196,-1.1322,-1.1619,-1.1619,-1.1619,-1.1619,-1.1619,-1.1619,-1.1619,-1.1619,-1.1619,-1.1619,-1.1619,-1.1619,-1.1619,-1.1619,-1.1619,-1.1619,-1.1619,-1.1619,-1.1619,-1.1619,-1.1619,-1.1619,-1.1619,-1.1619,-1.1619,-1.1619,-1.1619,-1.1619,-1.1619,-1.1619,-1.1619,-1.1619,-1.1721,-0.7126,-0.765,-0.8027,-0.6274,-0.6602,-0.7032,-0.5828,-0.58,-0.6095,-0.6421,-0.7419,-0.7971,-0.7279,-0.7548,-0.7724,-0.7201,-0.7149,0.0,0.0,-0.7621,-0.7969,-0.8871,-1.0722,-1.2518,-1.4028,-1.2091,-1.2425,-1.6486,-1.4629,-1.5084,-1.9152,-1.9366,-1.9633,-2.0214,-2.0234,-2.0514,-2.1102,-2.1109,-2.1109,-2.1109,-2.1109,-2.1109,-2.1109,-2.1109,-2.1109,-2.1109,-2.1109,-2.1109,-2.1109,-2.0823,-1.9834,-1.8566,-1.8151,-1.7174,-1.6086,-1.7874,-1.7271,-1.5376,-1.3758,-1.1919,-1.0225,-1.0204,-1.0072,-0.9947,-1.0072,-0.9961,-0.9971,-1.0075,-0.9947,-0.9954,-0.9869,-1.0009,-1.0016,-1.0031,-1.0309,-1.0585,-1.0857,-1.1054,-1.1322,-1.1619,-1.1619,-1.1619,-1.1619,-1.1619,-1.1619,-1.1619,-1.1619,-1.1619,-1.1619,-1.1619,-1.1619,-1.1619,-1.1619,-1.1619,-1.1619,-1.1619,-1.1619,-1.1619,-1.1619,-1.1619,-1.1619,-1.1619,-1.1619,-1.1619,-1.1619,-1.1619,-1.1619,-1.1619,-1.1619,-1.1619,-1.1619,-1.1697,-0.7455,-0.7868,-0.7923,-0.6307,-0.6362,-0.6506,-0.549,-0.558,-0.5954,-0.6317,-0.705,-0.7476,-0.7151,-0.706,-0.6976,-0.6673,-0.6421,-0.6218,0.0,-0.6231,-0.6412,-0.6721,-0.9424,-1.141,-1.1724,-1.2265,-1.3661,-1.6226,-1.5685,-1.6446,-1.9219,-1.9366,-1.9633,-2.0214,-2.0234,-2.0514,-2.1102,-1.9941,-1.9941,-2.1109,-1.9935,-1.9431,-1.9328,-1.9328,-1.8792,-1.772,-1.7672,-1.7593,-1.7461,-1.7455,-1.7078,-1.6473,-1.6371,-1.5253,-1.382,-1.5535,-1.5197,-1.3558,-1.1721,-1.0631,-0.9947,-0.9947,-0.9822,-0.9822,-0.9822,-0.9822,-0.9822,-0.9822,-0.9947,-0.9869,-0.9942,-0.9999,-1.0252,-1.0252,-1.0381,-1.0496,-1.0767,-1.0908,-1.1031,-1.1469,-1.1472,-1.1472,-1.1619,-1.1619,-1.1619,-1.1619,-1.1619,-1.1619,-1.1619,-1.1619,-1.1619,-1.1619,-1.1619,-1.1619,-1.1619,-1.1619,-1.1619,-1.1619,-1.1619,-1.1619,-1.1619,-1.1619,-1.1619,-1.1619,-1.1619,-1.1619,-1.1619,-1.1619,-1.1619,-1.1619,-1.1619,-1.1647,-0.7882,-0.8052,-0.7963,-0.6671,-0.6495,-0.6376,-0.5497,-0.5613,-0.5951,-0.6203,-0.6737,-0.7148,-0.7099,-0.6762,-0.6479,-0.6361,-0.5891,-0.5513,0.0,-0.552,-0.556,-0.556,0.0,0.0,0.0,0.0,-1.2318,-1.5338,-1.511,-1.6203,-1.9219,-1.9366,-1.9391,-1.9338,-1.9235,-1.9249,-1.9279,-1.8122,-1.8122,-1.9285,-1.8116,-1.7613,-1.7636,-1.7636,-1.699,-1.5949,-1.5931,-1.5803,-1.5691,-1.5653,-1.5131,-1.4579,-1.4388,-1.3178,-1.1841,-1.363,-1.3185,-1.1671,-1.0338,-0.9947,-0.9947,-0.9822,-0.9822,-0.9822,-0.9822,-0.9822,-0.9822,-0.9822,-0.9822,-0.9947,-0.9947,-1.0072,-1.0075,-1.0075,-1.0322,-1.0496,-1.0588,-1.0746,-1.1014,-1.1301,-1.147,-1.1472,-1.1619,-1.1619,-1.1619,-1.1619,-1.1619,-1.1619,-1.1619,-1.1619,-1.1619,-1.1619,-1.1619,-1.1619,-1.1619,-1.1619,-1.1619,-1.1619,-1.1619,-1.1619,-1.1619,-1.1619,-1.1619,-1.1472,-1.1619,-1.1619,-1.1472,-1.1619,-1.1619,-1.1619,-1.1619,-1.1619]}]]